[[{"header":{"parameterUnit":"m.s-1","parameterCategory":1,"la1":30.6,"la2":28.766,"lo1":-90.7593,"lo2":-88.6598,"dy":0.0162,"dx":0.0183,"nx":116,"ny":114,"refTime":"2023-09-13T12:00:00:Z","depth":0,"parameterNumber":2,"parameterNumberName":"U-component_of_WINDS"},"data":[0.0,0.0,0.0,0.0,0.0,0.0,0.0,0.0,0.0,0.0,0.0,0.0,0.0,0.0,0.0,0.0,0.0,0.0,0.0,0.0,0.0,0.0,0.0,0.0,0.0,0.0,0.0,0.0,0.0,0.0,0.0,0.0,0.0,0.0,0.0,0.0,0.0,0.0,0.0,0.0,0.0,0.0,0.0,0.0,0.0,0.0,0.0,0.0,0.0,0.0,0.0,0.0,0.0,0.0,0.0,0.0,0.0,0.0,0.0,0.0,0.0,0.0,0.0,0.0,0.0,0.0,0.0,0.0,0.0,0.0,0.0,0.0,0.0,0.0,0.0,0.0,0.0,0.0,0.0,0.0,0.0,0.0,0.0,0.0,0.0,0.0,0.0,0.0,0.0,0.0,0.0,0.0,0.0,0.0,0.0,0.0,0.0,0.0,0.0,0.0,0.0,0.0,0.0,0.0,0.0,0.0,0.0,0.0,0.0,0.0,0.0,0.0,0.0,0.0,0.0,0.0,0.0,0.0,0.0,0.0,0.0,0.0,0.0,0.0,0.0,0.0,0.0,0.0,0.0,0.0,0.0,0.0,0.0,0.0,0.0,0.0,0.0,0.0,0.0,0.0,0.0,0.0,0.0,0.0,0.0,0.0,0.0,0.0,0.0,0.0,0.0,0.0,0.0,0.0,0.0,0.0,0.0,0.0,0.0,0.0,0.0,0.0,0.0,0.0,0.0,0.0,0.0,0.0,0.0,0.0,0.0,0.0,0.0,0.0,0.0,0.0,0.0,0.0,0.0,0.0,0.0,0.0,0.0,0.0,0.0,0.0,0.0,0.0,0.0,0.0,0.0,0.0,0.0,0.0,0.0,0.0,0.0,0.0,0.0,0.0,0.0,0.0,0.0,0.0,0.0,0.0,0.0,0.0,0.0,0.0,0.0,0.0,0.0,0.0,0.0,0.0,0.0,0.0,0.0,0.0,0.0,0.0,0.0,0.0,0.0,0.0,0.0,0.0,0.0,0.0,0.0,0.0,0.0,0.0,0.0,0.0,0.0,0.0,0.0,0.0,0.0,0.0,0.0,0.0,0.0,0.0,0.0,0.0,0.0,0.0,0.0,0.0,0.0,0.0,0.0,0.0,0.0,0.0,0.0,0.0,0.0,0.0,0.0,0.0,0.0,0.0,0.0,0.0,0.0,0.0,0.0,0.0,0.0,0.0,0.0,0.0,0.0,0.0,0.0,0.0,0.0,0.0,0.0,0.0,0.0,0.0,0.0,0.0,0.0,0.0,0.0,0.0,0.0,0.0,0.0,0.0,0.0,0.0,0.0,0.0,0.0,0.0,0.0,0.0,0.0,0.0,0.0,0.0,0.0,0.0,0.0,0.0,0.0,0.0,0.0,0.0,0.0,0.0,0.0,0.0,0.0,0.0,0.0,0.0,0.0,0.0,0.0,0.0,0.0,0.0,0.0,0.0,0.0,0.0,0.0,0.0,0.0,0.0,0.0,0.0,0.0,0.0,0.0,0.0,0.0,0.0,0.0,0.0,0.0,0.0,0.0,0.0,0.0,0.0,0.0,0.0,0.0,0.0,0.0,0.0,0.0,0.0,0.0,0.0,0.0,0.0,0.0,0.0,0.0,0.0,0.0,0.0,0.0,0.0,0.0,0.0,0.0,0.0,0.0,0.0,0.0,0.0,0.0,0.0,0.0,0.0,0.0,0.0,0.0,0.0,0.0,0.0,0.0,0.0,0.0,0.0,0.0,0.0,0.0,0.0,0.0,0.0,0.0,0.0,0.0,0.0,0.0,0.0,0.0,0.0,0.0,0.0,0.0,0.0,0.0,0.0,0.0,0.0,0.0,0.0,0.0,0.0,0.0,0.0,0.0,0.0,0.0,0.0,0.0,0.0,0.0,0.0,0.0,0.0,0.0,0.0,0.0,0.0,0.0,0.0,0.0,0.0,0.0,0.0,0.0,0.0,0.0,0.0,0.0,0.0,0.0,0.0,0.0,0.0,0.0,0.0,0.0,0.0,0.0,0.0,0.0,0.0,0.0,0.0,0.0,0.0,0.0,0.0,0.0,0.0,0.0,0.0,0.0,0.0,0.0,0.0,0.0,0.0,0.0,0.0,0.0,0.0,0.0,0.0,0.0,0.0,0.0,0.0,0.0,0.0,0.0,0.0,0.0,0.0,0.0,0.0,0.0,0.0,0.0,0.0,0.0,0.0,0.0,0.0,0.0,0.0,0.0,0.0,0.0,0.0,0.0,0.0,0.0,0.0,0.0,0.0,0.0,0.0,0.0,0.0,0.0,0.0,0.0,0.0,0.0,0.0,0.0,0.0,0.0,0.0,0.0,0.0,0.0,0.0,0.0,0.0,0.0,0.0,0.0,0.0,0.0,0.0,0.0,0.0,0.0,0.0,0.0,0.0,0.0,0.0,0.0,0.0,0.0,0.0,0.0,0.0,0.0,0.0,0.0,0.0,0.0,0.0,0.0,0.0,0.0,0.0,0.0,0.0,0.0,0.0,0.0,0.0,0.0,0.0,0.0,0.0,0.0,0.0,0.0,0.0,0.0,0.0,0.0,0.0,0.0,0.0,0.0,0.0,0.0,0.0,0.0,0.0,0.0,0.0,0.0,0.0,0.0,0.0,0.0,0.0,0.0,0.0,0.0,0.0,0.0,0.0,0.0,0.0,0.0,0.0,0.0,0.0,0.0,0.0,0.0,0.0,0.0,0.0,0.0,0.0,0.0,0.0,0.0,0.0,0.0,0.0,0.0,0.0,0.0,0.0,0.0,0.0,0.0,0.0,0.0,0.0,0.0,0.0,0.0,0.0,0.0,0.0,0.0,0.0,0.0,0.0,0.0,0.0,0.0,0.0,0.0,0.0,0.0,0.0,0.0,0.0,0.0,0.0,0.0,0.0,0.0,0.0,0.0,0.0,0.0,0.0,0.0,0.0,0.0,0.0,0.0,0.0,0.0,0.0,0.0,0.0,0.0,0.0,0.0,0.0,0.0,0.0,0.0,0.0,0.0,0.0,0.0,0.0,0.0,0.0,0.0,0.0,0.0,0.0,0.0,0.0,0.0,0.0,0.0,0.0,0.0,0.0,0.0,0.0,0.0,0.0,0.0,0.0,0.0,0.0,0.0,0.0,0.0,0.0,0.0,0.0,0.0,0.0,0.0,0.0,0.0,0.0,0.0,0.0,0.0,0.0,0.0,0.0,0.0,0.0,0.0,0.0,0.0,0.0,0.0,0.0,0.0,0.0,0.0,0.0,0.0,0.0,0.0,0.0,0.0,0.0,0.0,0.0,0.0,0.0,0.0,0.0,0.0,0.0,0.0,0.0,0.0,0.0,0.0,0.0,0.0,0.0,0.0,0.0,0.0,0.0,0.0,0.0,0.0,0.0,0.0,0.0,0.0,0.0,0.0,0.0,0.0,0.0,0.0,0.0,0.0,0.0,0.0,0.0,0.0,0.0,0.0,0.0,0.0,0.0,0.0,0.0,0.0,0.0,0.0,0.0,0.0,0.0,0.0,0.0,0.0,0.0,0.0,0.0,0.0,0.0,0.0,0.0,0.0,0.0,0.0,0.0,0.0,0.0,0.0,0.0,0.0,0.0,0.0,0.0,0.0,0.0,0.0,0.0,0.0,0.0,0.0,0.0,0.0,0.0,0.0,0.0,0.0,0.0,0.0,0.0,0.0,0.0,0.0,0.0,0.0,0.0,0.0,0.0,0.0,0.0,0.0,0.0,0.0,0.0,0.0,0.0,0.0,0.0,0.0,0.0,0.0,0.0,0.0,0.0,0.0,0.0,0.0,0.0,0.0,0.0,0.0,0.0,0.0,0.0,0.0,0.0,0.0,0.0,0.0,0.0,0.0,0.0,0.0,0.0,0.0,0.0,0.0,0.0,0.0,0.0,0.0,0.0,0.0,0.0,0.0,0.0,0.0,0.0,0.0,0.0,0.0,0.0,0.0,0.0,0.0,0.0,0.0,0.0,0.0,0.0,0.0,0.0,0.0,0.0,0.0,0.0,0.0,0.0,0.0,0.0,0.0,0.0,0.0,0.0,0.0,0.0,0.0,0.0,0.0,0.0,0.0,0.0,0.0,0.0,0.0,0.0,0.0,0.0,0.0,0.0,0.0,0.0,0.0,0.0,0.0,0.0,0.0,0.0,0.0,0.0,0.0,0.0,0.0,0.0,0.0,0.0,0.0,0.0,0.0,0.0,0.0,0.0,0.0,0.0,0.0,0.0,0.0,0.0,0.0,0.0,0.0,0.0,0.0,0.0,0.0,0.0,0.0,0.0,0.0,0.0,0.0,0.0,0.0,0.0,0.0,0.0,0.0,0.0,0.0,0.0,0.0,0.0,0.0,0.0,0.0,0.0,0.0,0.0,0.0,0.0,0.0,0.0,0.0,0.0,0.0,0.0,0.0,0.0,0.0,0.0,0.0,0.0,0.0,0.0,0.0,0.0,0.0,0.0,0.0,0.0,0.0,0.0,0.0,0.0,0.0,0.0,0.0,0.0,0.0,0.0,0.0,0.0,0.0,0.0,0.0,0.0,0.0,0.0,0.0,0.0,0.0,0.0,0.0,0.0,0.0,0.0,0.0,0.0,0.0,0.0,0.0,0.0,0.0,0.0,0.0,0.0,0.0,0.0,0.0,0.0,0.0,0.0,0.0,0.0,0.0,0.0,0.0,0.0,0.0,0.0,0.0,0.0,0.0,0.0,0.0,0.0,0.0,0.0,0.0,0.0,0.0,0.0,0.0,0.0,0.0,0.0,0.0,0.0,0.0,0.0,0.0,0.0,0.0,0.0,0.0,0.0,0.0,0.0,0.0,0.0,0.0,0.0,0.0,0.0,0.0,0.0,0.0,0.0,0.0,0.0,0.0,0.0,0.0,0.0,0.0,0.0,0.0,0.0,0.0,0.0,0.0,0.0,0.0,0.0,0.0,0.0,0.0,0.0,0.0,0.0,0.0,0.0,0.0,0.0,0.0,0.0,0.0,0.0,0.0,0.0,0.0,0.0,0.0,0.0,0.0,0.0,0.0,0.0,0.0,0.0,0.0,0.0,0.0,0.0,0.0,0.0,0.0,0.0,0.0,0.0,0.0,0.0,0.0,0.0,0.0,0.0,0.0,0.0,0.0,0.0,0.0,0.0,0.0,0.0,0.0,0.0,0.0,0.0,0.0,0.0,0.0,0.0,0.0,0.0,0.0,0.0,0.0,0.0,0.0,0.0,0.0,0.0,0.0,0.0,0.0,0.0,0.0,0.0,0.0,0.0,0.0,0.0,0.0,0.0,0.0,0.0,0.0,0.0,0.0,0.0,0.0,0.0,0.0,0.0,0.0,0.0,0.0,0.0,0.0,0.0,0.0,0.0,0.0,0.0,0.0,0.0,0.0,0.0,0.0,0.0,0.0,0.0,0.0,0.0,0.0,0.0,0.0,0.0,0.0,0.0,0.0,0.0,0.0,0.0,0.0,0.0,0.0,0.0,0.0,0.0,0.0,0.0,0.0,0.0,0.0,0.0,0.0,0.0,0.0,0.0,0.0,0.0,0.0,0.0,0.0,0.0,0.0,0.0,0.0,0.0,0.0,0.0,0.0,0.0,0.0,0.0,0.0,0.0,0.0,0.0,0.0,0.0,0.0,0.0,0.0,0.0,0.0,0.0,0.0,0.0,0.0,0.0,0.0,0.0,0.0,0.0,0.0,0.0,0.0,0.0,0.0,0.0,0.0,0.0,0.0,0.0,0.0,0.0,0.0,0.0,0.0,0.0,0.0,0.0,0.0,0.0,0.0,0.0,0.0,0.0,0.0,0.0,0.0,0.0,0.0,0.0,0.0,0.0,0.0,0.0,0.0,0.0,0.0,0.0,0.0,0.0,0.0,0.0,0.0,0.0,0.0,0.0,0.0,0.0,0.0,0.0,0.0,0.0,0.0,0.0,0.0,0.0,0.0,0.0,0.0,0.0,0.0,0.0,0.0,0.0,0.0,0.0,0.0,0.0,0.0,0.0,0.0,0.0,0.0,0.0,0.0,0.0,0.0,0.0,0.0,0.0,0.0,0.0,0.0,0.0,0.0,0.0,0.0,0.0,0.1525,0.0,0.0,0.0,0.0,0.0,0.0,0.0,0.0,0.0,0.0,0.0,0.0,0.0,0.0,0.0,0.0,0.0,0.0,0.0,0.0,0.0,0.0,0.0,0.0,0.0,0.0,0.0,0.0,0.0,0.0,0.0,0.0,0.0,0.0,0.0,0.0,0.0,0.0,0.0,0.0,0.0,0.0,0.0,0.0,0.0,0.0,0.0,0.0,0.0,0.0,0.0,0.0,0.0,0.0,0.0,0.0,0.0,0.0,0.0,0.0,0.0,0.0,0.0,0.0,0.0,0.0,0.0,0.0,0.0,0.0,0.0,0.0,0.0,0.0,0.0,0.0,0.0,0.0,0.0,0.0,0.0,0.0,0.0,0.0,0.0,0.0,0.0,0.0,0.0,0.0,0.0,0.0,0.0,0.0,0.0,0.0,0.0,0.0,0.0,0.0,0.0,0.0,0.0,0.0,0.0,0.0,0.0,0.0,0.0,0.0,0.0,0.0,0.0,0.0,0.0,0.0,0.1862,0.0,0.0,0.0,0.0,0.0,0.0,0.0,0.0,0.0,0.0,0.0,0.0,0.0,0.0,0.0,0.0,0.0,0.0,0.0,0.0,0.0,0.0,0.0,0.0,0.0,0.0,0.0,0.0,0.0,0.0,0.0,0.0,0.0,0.0,0.0,0.0,0.0,0.0,0.0,0.0,0.0,0.0,0.0,0.0,0.0,0.0,0.0,0.0,0.0,0.0,0.0,0.0,0.0,0.0,0.0,0.0,0.0,0.0,0.0,0.0,0.0,0.0,0.0,0.0,0.0,0.0,0.0,0.0,0.0,0.0,0.0,0.0,0.0,0.0,0.0,0.0,0.0,0.0,0.0,0.0,0.0,0.0,0.0,0.0,0.0,0.0,0.0,0.0,0.0,0.0,0.0,0.0,0.0,0.0,0.0,0.0,0.0,0.0,0.0,0.0,0.0,0.0,0.0,0.0,0.0,0.0,0.0,0.0,-0.0314,-0.0045,0.0224,0.0695,0.0987,0.1121,0.1592,0.1974,0.2267,0.2424,0.0,0.0,0.0,0.0,0.0,0.0,0.0,0.0,0.0,0.0,0.0,0.0,0.0,0.0,0.0,0.0,0.0,0.0,0.0,0.0,0.0,0.0,0.0,0.0,0.0,0.0,0.0,0.0,0.0,0.0,0.0,0.0,0.0,0.0,0.0,0.0,0.0,0.0,0.3881,0.3475,0.3339,0.3449,0.3894,0.0,0.0,0.0,0.0,0.0,0.0,0.0,0.0,0.0,0.0,0.0,0.0,0.0,0.0,0.0,0.0,0.0,0.0,0.0,0.0,0.0,0.0,0.0,0.0,0.0,0.0,0.0,0.0,0.0,0.0,0.0,0.0,0.0,0.0,0.0,0.0,0.0,0.0,0.0,0.0,0.0,0.0,0.0,-0.0291,-0.0628,0.0,0.0,0.0,0.0,0.0,0.0,0.0,0.0,0.0,0.0,0.0,0.0,0.0,-0.2513,-0.2243,-0.1974,-0.166,-0.1256,-0.1054,-0.0807,-0.0538,-0.0067,0.0493,0.1121,0.1592,0.0,0.2469,0.2491,0.0,0.0,0.0,0.0,0.0,0.0,0.0,0.0,0.0,0.0,0.0,0.0,0.0,0.0,0.0,0.0,0.0,0.0,0.0,0.0,0.0,0.0,0.0,0.0,0.0,0.0,0.0,0.0,0.0,0.0,0.0,0.0,0.0,0.0,0.0,0.0,0.3678,0.3767,0.3497,0.3183,0.3026,0.3027,0.3094,0.327,0.3539,0.3922,0.0,0.0,0.0,0.0,0.0,0.0,0.0,0.0,0.0,0.0,0.0,0.0,0.0,0.0,0.0,0.0,0.0,0.0,0.0,0.0,0.0,0.0,0.0,0.0,0.0,0.0,0.0,0.0,0.0,0.0,0.0,0.0,0.0,0.0,0.0,0.0,0.0,0.0,0.0,-0.0202,-0.0605,-0.0695,-0.1121,-0.1548,0.0,0.0,0.0,0.0,0.0,0.0,0.0,0.0,0.0,-0.2511,-0.24,-0.2221,-0.1974,-0.1861,-0.1525,-0.1009,-0.0919,-0.0673,-0.0292,0.0179,0.0718,0.13,0.1794,0.2355,0.2893,0.276,0.2627,0.2491,0.0,0.0,0.0,0.0,0.3135,0.3537,0.0,0.0,0.0,0.0,0.0,0.0,0.0,0.0,0.0,0.0,0.0,0.0,0.0,0.0,0.0,0.2221,0.0,0.0,0.0,0.0,0.0,0.0,0.0,0.0,0.0,0.0,0.0,0.3026,0.343,0.3475,0.3114,0.2846,0.2757,0.2784,0.2536,0.2691,0.3139,0.3499,0.3432,0.0,0.0,0.0,0.0,0.0,0.0,0.0,0.0,0.0,0.0,0.0,0.0,0.0,0.0,0.0,0.0,0.0,0.0,0.0,0.0,0.0,0.0,0.0,0.0,0.0,0.0,0.0,0.0,0.0,0.0,0.0,0.0,0.0,0.0,0.0,0.0,0.0,0.0,-0.0404,-0.0695,-0.0695,-0.1121,-0.1503,0.0,0.0,0.0,0.0,0.0,0.0,-0.2711,-0.2535,-0.2334,-0.2109,-0.2109,-0.1974,-0.1705,-0.1705,-0.1391,-0.0807,-0.074,-0.0449,0.0022,0.0561,0.1099,0.1636,0.2153,0.2735,0.3294,0.3074,0.2894,0.2782,0.2782,0.2803,0.2892,0.3159,0.3626,0.4141,0.0,0.0,0.0,0.0,0.0,0.0,0.0,0.0,0.0,0.0,0.0,0.0,0.0,0.0,0.1727,0.148,0.1436,0.1233,0.0,0.0,0.0,0.0,0.0,0.0,0.0,0.0,0.0,0.2536,0.2825,0.2935,0.2911,0.2445,0.2334,0.2513,0.2312,0.2469,0.2918,0.2941,0.2941,0.2896,0.0,0.0,0.0,0.0,0.0,0.0,0.0,0.0,0.0,0.0,0.0,0.0,0.0,0.0,0.0,0.0,0.0,0.0,0.0,0.0,0.0,0.0,0.0,0.0,0.0,0.0,0.0,0.0,0.0,0.0,0.0,0.0,0.0,0.0,0.0,0.0,0.0,0.0,0.0,-0.0695,-0.1121,0.0,0.0,0.0,0.0,-0.2221,-0.2243,-0.2243,-0.2243,-0.2221,-0.2086,-0.1817,-0.1817,-0.1682,-0.1413,-0.1413,-0.13,-0.1076,-0.083,-0.0448,0.0022,0.074,0.1479,0.2194,0.2665,0.3136,0.3564,0.3294,0.3318,0.3544,0.3544,0.3652,0.3872,0.4141,0.4411,0.4725,0.0,0.0,0.0,0.0,0.0,0.0,0.0,0.0,0.0,0.0,0.0,0.0,0.0,0.1548,0.1503,0.1413,0.1391,0.1278,0.0987,0.0,0.0,0.0,0.0,0.0,0.0,0.0,0.1615,0.1794,0.2063,0.2107,0.1927,0.1636,0.1604,0.178,0.1714,0.1978,0.2465,0.2765,0.2803,0.2627,0.2536,0.2312,0.0,0.0,0.0,0.0,0.0,0.0,0.0,0.0,0.0,0.0,0.0,0.0,0.0,0.0,0.0,0.0,0.0,0.0,0.0,0.0,0.0,0.0,0.0,0.0,0.0,0.0,0.0,0.0,0.0,0.0,0.0,0.0,0.0,0.0,0.0,0.0,0.0,-0.0515,-0.0919,0.0,-0.1345,-0.1615,-0.1839,-0.193,-0.2109,-0.2131,-0.1952,-0.1952,-0.1817,-0.1548,-0.1548,-0.1503,-0.1391,-0.1278,-0.1009,-0.065,-0.0202,0.0314,0.0919,0.1525,0.2107,0.2665,0.2957,0.3361,0.379,0.3875,0.3786,0.3609,0.374,0.3941,0.4186,0.4456,0.4815,0.5171,0.0,0.0,0.0,0.0,0.0,0.0,0.0,0.0,0.0,0.0,0.0,0.1714,0.1555,0.1525,0.1503,0.1413,0.1391,0.1323,0.1121,0.0,0.0,0.0,0.0,0.0,0.0,0.1143,0.1368,0.1525,0.1692,0.1687,0.153,0.128,0.1246,0.1376,0.1375,0.1697,0.2259,0.2639,0.2766,0.2736,0.2669,0.24,0.1974,0.0,0.0,0.0,0.0,0.0,0.0,0.0,0.0,0.0,0.0,0.0,0.0,0.0,0.0,0.0,0.0,0.0,0.0,0.0,0.0,0.0,0.0,0.0,0.0,0.0,0.0,0.0,0.0,0.0,0.0,0.0,0.0,0.0,0.0,0.0,-0.0403,-0.0403,-0.074,-0.0964,-0.0964,-0.1256,-0.1458,-0.1548,-0.1727,-0.1772,-0.1682,-0.1592,-0.148,-0.13,-0.1211,-0.1166,-0.1166,-0.1031,-0.074,-0.0269,0.0247,0.0919,0.1682,0.2355,0.2936,0.3381,0.3673,0.3987,0.4279,0.4454,0.4342,0.4076,0.4229,0.4431,0.4701,0.4859,0.5174,0.5513,0.0,0.0,0.0,0.0,0.0,0.0,0.0,0.0,0.0,0.0,0.2315,0.2185,0.187,0.1817,0.1727,0.1458,0.1436,0.1345,0.1143,0.1121,0.0,0.0,0.0,0.0,0.1099,0.1121,0.1345,0.1792,0.1734,0.1737,0.18,0.1464,0.1323,0.1325,0.1344,0.17,0.2332,0.2543,0.2867,0.3224,0.2999,0.2755,0.2424,0.0,0.0,0.0,0.0,0.0,0.0,0.0,0.0,0.0,0.0,0.0,0.0,0.0,0.0,0.0,0.0,0.0,0.0,0.0,0.0,0.0,0.0,0.0,0.0,0.0,0.0,0.0,0.0,0.0,0.0,0.0,0.0,0.0,0.0,-0.0224,-0.0381,-0.0381,-0.0561,-0.0695,-0.0695,-0.0695,-0.0807,-0.1076,-0.1099,-0.1166,-0.1368,-0.1188,-0.1076,-0.1076,-0.083,-0.0695,-0.0673,-0.0673,-0.0426,0.0045,0.0538,0.1278,0.2288,0.3206,0.3877,0.4342,0.481,0.501,0.501,0.501,0.501,0.501,0.501,0.5169,0.5394,0.5416,0.5532,0.5732,0.0,0.0,0.0,0.0,0.0,0.0,0.0,0.0,0.0,0.0,0.2526,0.2533,0.2589,0.2422,0.2289,0.2199,0.2064,0.1952,0.1907,0.0,0.0,0.0,0.0,0.0,0.1323,0.1503,0.1647,0.1731,0.1852,0.1897,0.1866,0.1782,0.1743,0.1743,0.2093,0.2419,0.2767,0.3314,0.3776,0.4093,0.3547,0.3206,0.2936,0.0,0.0,0.0,0.0,0.0,0.0,0.0,0.0,0.0,0.0,0.0,0.0,0.0,0.0,0.0,0.0,0.0,0.0,0.0,0.0,0.0,0.0,0.0,0.0,0.0,0.0,0.0,0.0,0.0,0.0,0.0,0.0,0.0224,0.0022,-0.0067,-0.0112,-0.0112,-0.0337,-0.0493,-0.0493,-0.0605,-0.074,-0.0807,-0.0807,-0.083,-0.0897,-0.083,-0.074,-0.0605,-0.0515,-0.0381,-0.0202,0.0134,0.0561,0.1031,0.1681,0.2508,0.3448,0.3898,0.4364,0.481,0.4944,0.501,0.501,0.5213,0.528,0.528,0.528,0.5327,0.5416,0.5574,0.5832,0.6153,0.0,0.0,0.0,0.0,0.0,0.0,0.0,0.0,0.0,0.0,0.3586,0.362,0.3732,0.3445,0.3206,0.3093,0.2802,0.2624,0.2624,0.0,0.0,0.0,0.0,0.233,0.233,0.2553,0.2683,0.2712,0.2881,0.2921,0.2854,0.2829,0.2778,0.2718,0.3079,0.3338,0.3559,0.4033,0.438,0.4603,0.4263,0.3944,0.3606,0.3133,0.2508,0.1792,0.1322,0.0695,0.0022,-0.0157,0.0,0.0,0.0,0.0,0.0,0.0,0.0,0.0,0.0,0.0,0.0,0.0,0.0,0.0,0.0,0.0,0.0,0.0,0.0,0.0,0.0,0.0,0.0,0.0,0.0695,0.0673,0.0606,0.0247,0.0,0.0,-0.0045,-0.0067,-0.0067,-0.009,-0.0157,-0.0224,-0.0247,-0.0291,-0.0403,-0.0224,0.0,0.0224,0.0426,0.065,0.0918,0.1187,0.1501,0.186,0.2486,0.3178,0.3916,0.4387,0.481,0.5169,0.5258,0.5302,0.5305,0.5463,0.5556,0.0,0.0,0.0,0.0,0.0,0.6299,0.6652,0.0,0.0,0.0,0.0,0.0,0.0,0.0,0.0,0.0,0.0,0.0,0.5153,0.5131,0.4788,0.4464,0.4204,0.3738,0.3427,0.0,0.0,0.0,0.3801,0.3823,0.3846,0.3846,0.4048,0.4206,0.4312,0.443,0.4456,0.4396,0.4312,0.4183,0.4005,0.4205,0.4402,0.4579,0.4757,0.4883,0.496,0.5069,0.4815,0.4307,0.3888,0.329,0.2642,0.2126,0.1478,0.074,0.0247,0.0,0.0,0.0,0.0,0.0,0.0,0.0,0.0,0.0,0.0,0.0,0.0,0.0,0.0,0.0,0.0,0.0,0.0,0.0,0.0,0.0,0.0,0.0,0.0,0.1285,0.1373,0.158,0.0857,0.027,0.018,0.0404,0.0561,0.0561,0.074,0.0784,0.0628,0.0605,0.0493,0.0269,0.0,0.0,0.0,0.0,0.2062,0.235,0.2372,0.2508,0.2709,0.3159,0.3628,0.4117,0.4786,0.5233,0.5527,0.5708,0.5783,0.5819,0.5819,0.5887,0.6004,0.5857,0.5881,0.6052,0.6432,0.6813,0.7158,0.0,0.0,0.0,0.0,0.0,0.0,0.0,0.0,0.0,0.6438,0.6566,0.6655,0.6609,0.6375,0.6155,0.5938,0.5334,0.4872,0.0,0.0,0.5003,0.5048,0.5206,0.5295,0.5295,0.5539,0.5632,0.5553,0.563,0.5632,0.5566,0.5392,0.5293,0.5251,0.547,0.557,0.5609,0.565,0.5727,0.5845,0.5815,0.5368,0.4681,0.4539,0.4255,0.3851,0.3179,0.2351,0.1478,0.0807,0.0134,-0.0426,-0.0628,0.0,0.0,0.0,0.0,0.0,0.0,0.0,0.0,0.0,0.0,0.0,0.0,0.0,0.0,0.0,0.0,0.0,0.0,0.0,0.0,0.2113,0.2415,0.268,0.2838,0.2459,0.1919,0.1214,0.1368,0.1525,0.1525,0.177,0.1903,0.1858,0.1858,0.1836,0.1768,0.1858,0.2105,0.2531,0.2644,0.2889,0.3333,0.3491,0.3693,0.3963,0.0,0.0,0.5364,0.5497,0.5808,0.621,0.6254,0.6361,0.6509,0.6509,0.6587,0.6684,0.6444,0.6497,0.6726,0.6924,0.716,0.7422,0.0,0.0,0.0,0.0,0.0,0.0,0.0,0.0,0.0,0.0,0.8014,0.805,0.8047,0.7786,0.7517,0.7319,0.6776,0.0,0.0,0.6381,0.6489,0.6596,0.6688,0.6754,0.6754,0.7022,0.708,0.6948,0.7095,0.7047,0.6851,0.6847,0.6803,0.6703,0.6915,0.6938,0.6842,0.6842,0.6777,0.6639,0.6648,0.6262,0.569,0.5591,0.5413,0.5124,0.4523,0.3671,0.273,0.1881,0.1053,0.0291,-0.0045,-0.0247,-0.0314,0.0,0.0,0.0,0.0,0.0,0.0,0.0,0.0,0.0,0.0,0.0,0.0,0.0,0.0,0.1881,0.0,0.0,0.3012,0.3466,0.3725,0.3973,0.4293,0.4217,0.3625,0.2347,0.23,0.2443,0.2688,0.291,0.3109,0.3242,0.3242,0.3242,0.3242,0.3376,0.36,0.3939,0.4072,0.4318,0.4648,0.4761,0.4875,0.501,0.528,0.5569,0.5902,0.6098,0.633,0.6561,0.6628,0.6699,0.6816,0.6881,0.702,0.719,0.7088,0.712,0.7224,0.7311,0.7509,0.7743,0.0,0.0,0.0,0.0,0.0,0.0,0.0,0.0,0.0,0.0,0.9543,0.9503,0.9524,0.92,0.8843,0.0,0.0,0.0,0.0,0.7925,0.8035,0.8207,0.8295,0.8335,0.8335,0.8562,0.8605,0.85,0.8641,0.8576,0.8321,0.8478,0.8433,0.8237,0.8387,0.8345,0.8141,0.8128,0.7895,0.7569,0.7625,0.7346,0.6916,0.6733,0.6454,0.6105,0.5638,0.4855,0.3914,0.2955,0.2039,0.1233,0.074,0.0426,0.0247,0.0471,0.0493,0.0,0.0,0.0,0.0,0.0,0.0,0.0,0.0,0.0,0.1653,0.2202,0.2569,0.2935,0.3415,0.3763,0.4188,0.4853,0.5031,0.5239,0.569,0.5746,0.5247,0.3948,0.3586,0.358,0.3959,0.4147,0.4338,0.4556,0.4579,0.4579,0.4579,0.4781,0.4986,0.5211,0.5413,0.5636,0.583,0.583,0.5866,0.5888,0.6117,0.6244,0.6318,0.665,0.6837,0.6892,0.701,0.707,0.7083,0.7287,0.749,0.7677,0.7796,0.777,0.768,0.7676,0.7817,0.7988,0.0,0.0,0.0,0.0,0.0,0.0,0.0,0.0,0.0,0.0,0.0,0.0,0.0,0.0,0.0,0.0,0.0,0.0,0.9013,0.9392,0.9637,0.9658,1.0067,1.0284,1.0284,1.0332,1.0318,1.0315,1.0208,1.0146,1.0117,1.0126,0.9997,0.9761,0.9784,0.9652,0.9382,0.9276,0.9086,0.8892,0.8832,0.8531,0.8067,0.776,0.7117,0.6299,0.5833,0.5206,0.4449,0.3449,0.2645,0.1974,0.1458,0.1144,0.0987,0.1009,0.0,0.0673,0.0695,0.0864,0.0,0.136,0.1593,0.1901,0.0,0.0,0.2762,0.332,0.3833,0.4278,0.4579,0.5181,0.5691,0.5839,0.6214,0.6523,0.6636,0.6603,0.6574,0.6626,0.5849,0.5329,0.5375,0.5445,0.5519,0.5542,0.5542,0.5542,0.5542,0.5564,0.57,0.5972,0.6016,0.6124,0.6318,0.6318,0.6403,0.6592,0.6615,0.6791,0.7073,0.7135,0.7262,0.751,0.7651,0.7691,0.7725,0.8097,0.8283,0.8333,0.8574,0.852,0.8262,0.8031,0.7967,0.7988,0.0,0.0,0.0,0.0,0.0,0.0,0.0,0.0,0.0,0.0,0.0,0.0,0.0,0.0,0.0,0.0,0.0,0.0,1.0842,1.1149,1.1348,1.1348,1.166,1.1826,1.1826,1.1826,1.1826,1.1826,1.1762,1.1679,1.1564,1.1811,1.1779,1.1589,1.1695,1.1615,1.1383,1.1227,1.0942,1.0592,1.046,1.0024,0.9416,0.9,0.8328,0.7507,0.6653,0.5874,0.0,0.0,0.3693,0.2934,0.2419,0.2106,0.1882,0.1772,0.166,0.0,0.1571,0.0,0.0,0.0,0.2317,0.2593,0.3293,0.361,0.3932,0.4627,0.5057,0.5461,0.5889,0.6225,0.6531,0.0,0.7096,0.7279,0.7484,0.7465,0.75,0.7599,0.7177,0.6785,0.6546,0.6559,0.6644,0.6785,0.6733,0.6686,0.6686,0.6586,0.6624,0.6844,0.685,0.6999,0.7332,0.7335,0.7526,0.7932,0.7932,0.8084,0.836,0.8434,0.8582,0.8756,0.8824,0.885,0.8858,0.9025,0.9105,0.9105,0.9225,0.9204,0.9055,0.863,0.8357,0.8287,0.0,0.0,0.0,0.0,0.0,0.0,0.0,0.0,0.0,0.0,0.0,0.0,0.0,0.0,0.0,0.0,0.0,0.0,0.0,1.282,1.3033,1.3033,1.3296,1.3438,1.3438,1.3438,1.3438,1.3438,1.3438,1.3336,1.3144,1.3501,1.3506,1.3234,1.3399,1.3332,1.3107,1.2922,1.26,1.2237,1.1949,1.1436,1.0784,1.0122,0.9462,0.8737,0.7518,0.6656,0.0,0.0,0.4805,0.4093,0.3624,0.3247,0.2978,0.2825,0.2724,0.2632,0.2648,0.0,0.0,0.3087,0.3263,0.3532,0.4269,0.4636,0.5058,0.5787,0.6139,0.6467,0.6945,0.707,0.7269,0.7643,0.7718,0.7768,0.7967,0.7988,0.7988,0.7988,0.7915,0.7734,0.746,0.7354,0.7382,0.7577,0.7522,0.748,0.7572,0.7416,0.7474,0.7772,0.7775,0.7967,0.8317,0.8411,0.8668,0.9087,0.9157,0.9303,0.9542,0.9632,0.9766,0.9941,0.9941,0.9965,1.0039,1.0113,1.0158,1.0158,1.0236,1.0212,1.0109,0.9809,0.932,0.8903,0.0,0.0,0.0,0.0,0.0,0.0,0.0,0.0,0.0,0.0,0.0,0.0,0.0,0.0,0.0,0.0,0.0,0.0,0.0,1.4266,1.4643,1.4643,1.5075,1.5311,1.5311,1.5311,1.5311,1.5311,1.5311,1.522,1.5019,1.5234,1.506,1.4547,1.4614,1.4462,1.4157,1.4011,1.3838,1.3593,1.3132,1.2665,1.2126,1.0998,1.0279,0.9684,0.8281,0.0,0.0,0.6293,0.5872,0.5564,0.5075,0.461,0.0,0.4233,0.3997,0.376,0.0,0.0,0.4011,0.4285,0.4544,0.488,0.5429,0.5762,0.6117,0.6645,0.6964,0.7241,0.7519,0.7793,0.7967,0.7988,0.7988,0.7988,0.7988,0.7988,0.7988,0.7988,0.7985,0.7982,0.0,0.7743,0.76,0.76,0.7597,0.7708,0.7966,0.7982,0.8212,0.875,0.875,0.8893,0.915,0.9429,0.9616,0.9775,1.0038,1.023,1.0371,1.0375,1.0522,1.0754,1.0754,1.0906,1.117,1.1419,1.1541,1.1565,1.1824,1.1775,1.1565,1.18,1.1071,0.9994,0.0,0.0,0.0,0.0,0.0,0.0,0.0,0.0,0.0,0.0,0.0,0.0,0.0,0.0,0.0,0.0,0.0,0.0,0.0,1.6005,1.6105,1.5837,1.6105,1.625,1.625,1.6386,1.646,1.646,1.6768,1.6829,1.6637,1.6964,1.696,1.6653,1.6673,1.6557,1.63,1.5932,1.5597,1.5242,1.4636,1.4104,1.3584,1.2586,1.1816,1.1144,0.0,0.0,0.0,0.7158,0.6849,0.6583,0.6293,0.6093,0.5911,0.5701,0.5453,0.5281,0.5426,0.0,0.5591,0.5908,0.6053,0.6257,0.6808,0.7135,0.7441,0.7786,0.8084,0.823,0.8137,0.8212,0.8258,0.8258,0.8258,0.8333,0.8503,0.8531,0.8531,0.8531,0.8531,0.0,0.0,0.0,0.0,0.8133,0.821,0.8389,0.8648,0.8589,0.8812,0.9449,0.9643,0.9988,1.0524,1.0972,1.136,1.1723,1.2181,1.2421,1.2471,1.2471,1.2519,1.2587,1.2587,1.2635,1.2732,1.2829,1.2853,1.2877,1.2961,1.2931,1.2877,1.2961,1.2816,1.2519,0.0,0.0,0.0,0.0,0.0,0.0,0.0,0.0,0.0,0.0,0.0,0.0,0.0,0.0,0.0,0.0,0.0,0.0,0.0,0.0,1.7688,1.7458,1.7635,1.7732,1.7732,1.7865,1.7957,1.8029,1.8339,1.8379,1.8198,1.8459,1.8459,1.8267,1.8187,1.8095,1.7942,1.7387,1.6968,1.6607,1.5865,1.5346,1.4901,1.3886,1.3124,0.0,0.0,0.0,0.8697,0.8105,0.7775,0.758,0.729,0.7132,0.7008,0.6772,0.6641,0.6607,0.6828,0.69,0.6953,0.7186,0.7307,0.7456,0.7804,0.8084,0.8333,0.8503,0.8676,0.8751,0.8581,0.8552,0.8552,0.8552,0.8552,0.8602,0.8775,0.88,0.88,0.88,0.88,0.885,0.0,0.0,0.0,0.8708,0.8858,0.9114,0.9478,0.9507,0.9877,1.0697,1.0962,1.1385,1.2014,1.2471,1.2883,1.327,1.3613,1.3781,1.3781,1.3781,1.383,1.3926,1.3926,1.398,1.4076,1.4076,1.4076,1.4076,1.4076,1.4076,1.4076,1.4136,1.4358,1.4454,0.0,0.0,0.0,0.0,0.0,0.0,0.0,0.0,0.0,0.0,0.0,0.0,0.0,0.0,0.0,0.0,0.0,0.0,0.0,0.0,0.0,1.9395,1.9577,1.9674,1.9676,1.9687,1.9766,1.9953,1.9992,1.9904,1.9717,1.9717,1.9629,1.9394,1.9205,1.9116,1.9036,1.8379,1.7965,1.7679,1.6796,1.6319,1.6004,1.488,0.0,0.0,0.0,0.0,0.0,0.0,0.0,0.0,0.8072,0.7764,0.7554,0.7495,0.7574,0.7746,0.7928,0.8028,0.8088,0.8088,0.8262,0.8457,0.8457,0.8651,0.885,0.885,0.885,0.8825,0.0,0.0,0.8825,0.8825,0.8825,0.8825,0.885,0.885,0.8874,0.0,0.0,0.0,0.0,0.0,0.0,0.9406,0.0,0.9945,1.0462,1.0752,1.1389,1.2419,1.2665,1.3022,1.3565,1.383,1.4124,1.4394,1.4394,1.4394,1.4418,1.4418,1.4562,1.4807,1.4807,1.4933,1.5178,1.5178,1.5178,1.5178,1.5178,1.5178,1.5196,1.5397,1.5629,1.5706,0.0,0.0,0.0,0.0,0.0,0.0,0.0,0.0,0.0,0.0,0.0,0.0,0.0,0.0,0.0,0.0,0.0,0.0,0.0,0.0,0.0,0.0,0.0,0.0,0.0,0.0,0.0,0.0,2.1288,2.1441,2.1241,2.1383,2.1279,2.0933,2.0895,2.0585,2.0089,1.9629,1.9036,1.8376,0.0,1.6906,1.6443,0.0,0.0,0.0,0.0,0.0,0.0,0.0,0.0,0.0,0.0,0.845,0.849,0.8625,0.8796,0.8964,0.9116,0.9173,0.9183,0.9183,0.9253,0.9303,0.9303,0.9352,0.9402,0.9402,0.9402,0.9327,0.0,0.0,0.0,0.9109,0.9109,0.0,0.9649,0.9694,0.0,0.9965,0.0,1.0088,1.0364,1.0875,0.0,0.0,1.1267,1.1316,1.1853,1.2111,1.2519,1.3203,1.3661,1.4052,1.4394,1.4873,1.5302,1.572,1.572,1.5832,1.6008,1.6008,1.6062,1.6109,1.6109,1.6163,1.6211,1.6211,1.6211,1.6211,1.6211,1.6211,1.6211,1.6275,1.6346,1.6346,0.0,0.0,0.0,0.0,0.0,0.0,0.0,0.0,0.0,0.0,0.0,0.0,0.0,0.0,0.0,0.0,0.0,0.0,0.0,0.0,0.0,0.0,0.0,0.0,0.0,0.0,0.0,0.0,0.0,0.0,2.2464,2.2475,2.2381,2.2155,2.1966,2.1681,2.1299,2.0721,0.0,0.0,0.0,0.0,0.0,0.0,0.0,0.0,0.0,0.0,0.0,0.0,0.0,0.9038,0.9031,0.9101,0.921,0.9456,0.0,0.975,0.9894,0.9945,0.9945,0.9945,0.9945,0.9945,0.9945,0.9871,0.9776,0.9776,0.9677,0.0,0.0,0.0,0.0,0.0,0.0,0.0,0.9945,1.0191,1.0462,0.0,1.0855,0.0,1.16,1.2014,1.2573,0.0,1.2694,1.2476,1.302,1.3275,1.3679,1.4304,1.4747,1.5135,1.554,1.5825,1.6116,1.6383,1.6383,1.6447,1.6612,1.6612,1.6612,1.6612,0.0,1.6612,1.6612,1.6612,1.6612,1.6612,1.6612,1.6612,1.6612,1.673,1.6784,1.6784,0.0,0.0,0.0,0.0,0.0,0.0,0.0,0.0,0.0,0.0,0.0,0.0,0.0,0.0,0.0,0.0,0.0,0.0,0.0,0.0,0.0,0.0,0.0,0.0,0.0,0.0,0.0,0.0,0.0,0.0,0.0,0.0,0.0,0.0,0.0,0.0,0.0,0.0,0.0,0.0,0.0,0.0,0.0,0.0,0.0,0.0,0.0,0.0,0.0,0.0,1.0828,0.978,0.9754,0.9773,0.9885,1.0178,1.0271,1.0333,1.0511,1.056,1.056,1.056,1.058,1.0609,1.056,1.0364,1.0142,1.0117,0.0,0.9698,0.9698,0.9698,0.9727,0.9752,0.0,1.0142,1.024,1.0708,1.112,1.1463,1.1731,1.219,1.2901,1.3191,1.377,1.4782,1.401,1.3698,1.4124,1.4412,1.4867,1.5527,1.5778,1.614,1.6612,1.6612,1.6612,1.6659,1.6659,1.6683,1.6699,1.6699,1.6699,1.6699,1.6699,0.0,1.6699,1.6699,1.6699,1.6699,1.6699,1.6699,1.6723,1.6949,1.7043,1.7066,0.0,0.0,0.0,0.0,0.0,0.0,0.0,0.0,0.0,0.0,0.0,0.0,0.0,0.0,0.0,0.0,0.0,0.0,0.0,0.0,0.0,0.0,0.0,0.0,0.0,0.0,0.0,0.0,0.0,0.0,0.0,0.0,0.0,0.0,0.0,0.0,0.0,0.0,0.0,0.0,0.0,0.0,0.0,0.0,0.0,0.0,0.0,0.0,0.0,0.0,1.2246,1.0714,1.0503,1.0691,1.1018,1.1067,1.1216,1.1341,1.138,1.1389,1.1389,1.1389,1.1561,1.1658,1.1438,1.1169,0.0,0.0,1.0462,1.0265,1.0265,1.0265,1.0339,1.056,0.0,0.0,0.0,0.0,1.2365,0.0,0.0,0.0,0.0,0.0,0.0,0.0,0.0,1.5622,1.5493,1.5724,1.6025,1.6369,1.644,1.6518,1.6612,1.6612,1.6706,1.6932,1.6932,1.7019,1.7185,1.7185,1.7185,1.7185,1.7185,0.0,1.7185,1.7185,1.7185,1.7185,1.7185,1.7185,1.7185,1.7239,1.7263,1.7263,0.0,0.0,0.0,0.0,0.0,0.0,0.0,0.0,0.0,0.0,2.1696,2.1696,0.0,0.0,0.0,0.0,0.0,0.0,0.0,0.0,0.0,0.0,0.0,0.0,0.0,0.0,0.0,0.0,0.0,0.0,0.0,0.0,0.0,0.0,0.0,0.0,0.0,0.0,0.0,0.0,0.0,0.0,0.0,0.0,0.0,0.0,0.0,0.0,0.0,0.0,1.4065,1.3161,1.2403,1.2222,1.232,1.2414,1.2507,1.2597,1.2597,1.2694,1.2797,1.2797,1.2894,1.2966,1.2821,0.0,0.0,0.0,1.1385,1.1022,1.1022,0.0,0.0,0.0,0.0,0.0,0.0,0.0,0.0,0.0,0.0,0.0,0.0,0.0,0.0,0.0,0.0,1.6494,1.6228,1.6471,1.6683,1.6807,1.6918,1.6958,1.6958,1.6958,1.7028,1.7153,1.7153,1.7216,1.7302,1.7302,1.7302,1.7302,1.7302,0.0,1.7309,1.745,1.7504,1.7527,1.766,1.773,1.773,1.773,1.773,1.773,0.0,0.0,0.0,0.0,0.0,0.0,0.0,2.182,2.1843,2.1843,2.1887,2.1932,2.1932,2.1776,0.0,0.0,0.0,0.0,0.0,0.0,0.0,0.0,0.0,0.0,0.0,0.0,0.0,0.0,0.0,0.0,0.0,0.0,0.0,0.0,0.0,0.0,0.0,0.0,0.0,0.0,0.0,0.0,0.0,0.0,0.0,0.0,0.0,0.0,0.0,0.0,1.5807,1.5624,1.4651,1.4019,1.3691,1.3867,1.392,1.392,1.392,1.4064,1.4214,1.4214,1.4262,1.4292,1.4238,1.3703,0.0,0.0,1.2549,1.2068,1.2019,0.0,0.0,0.0,0.0,0.0,0.0,0.0,0.0,0.0,0.0,0.0,0.0,0.0,0.0,0.0,0.0,0.0,1.677,1.6996,1.7144,1.7144,1.7364,1.7473,1.7473,1.7473,1.7473,1.7473,1.7473,1.7473,1.7473,1.7473,1.7473,1.7473,1.7473,0.0,0.0,1.7691,1.7791,1.7815,1.8017,1.811,1.811,1.811,1.811,1.811,0.0,0.0,0.0,0.0,0.0,0.0,0.0,2.223,2.2331,2.2331,2.2552,2.2693,2.2693,2.2087,0.0,0.0,0.0,0.0,0.0,0.0,0.0,0.0,0.0,0.0,0.0,0.0,0.0,0.0,0.0,0.0,0.0,0.0,0.0,0.0,0.0,0.0,0.0,0.0,0.0,0.0,0.0,0.0,0.0,0.0,0.0,0.0,0.0,0.0,0.0,0.0,0.0,1.7079,1.6781,1.5998,1.521,1.5211,0.0,0.0,1.5218,1.5242,1.5272,1.5272,1.5439,1.5564,1.532,0.0,0.0,1.4244,1.3908,1.3613,1.3366,1.3323,0.0,0.0,0.0,0.0,0.0,0.0,0.0,0.0,0.0,0.0,0.0,0.0,0.0,0.0,0.0,0.0,1.7263,1.7481,1.7636,1.7636,1.7877,1.804,1.804,1.804,1.804,1.804,1.804,1.804,1.804,1.804,1.804,1.804,1.804,0.0,0.0,1.8063,1.8063,1.8063,1.8087,1.811,1.811,1.811,1.811,1.811,0.0,0.0,0.0,0.0,0.0,0.0,0.0,2.2596,2.2684,2.2816,2.2916,2.3091,2.3365,2.3246,2.3028,0.0,0.0,0.0,0.0,0.0,0.0,0.0,0.0,0.0,0.0,0.0,0.0,0.0,0.0,0.0,0.0,0.0,0.0,0.0,0.0,0.0,0.0,0.0,0.0,0.0,0.0,0.0,0.0,0.0,0.0,0.0,0.0,0.0,0.0,0.0,0.0,0.0,1.7488,1.7129,0.0,0.0,1.6126,1.6126,1.6126,1.6228,1.6353,1.6353,1.6447,1.6501,1.64,0.0,1.5663,1.548,1.5099,1.4765,1.4663,1.4799,1.5052,0.0,0.0,0.0,0.0,0.0,0.0,0.0,0.0,0.0,0.0,0.0,0.0,0.0,0.0,0.0,1.8077,1.799,1.7947,1.7947,1.804,1.811,1.811,1.811,1.811,1.811,1.811,1.811,1.811,1.811,1.811,1.811,1.811,0.0,0.0,1.8257,1.8419,1.855,1.8704,1.8935,1.9173,1.9043,1.9089,1.9173,0.0,0.0,0.0,0.0,0.0,0.0,2.3057,2.321,2.3353,2.3505,2.3626,2.3864,2.4252,2.4542,2.4542,2.4134,0.0,0.0,0.0,0.0,0.0,0.0,0.0,0.0,0.0,0.0,0.0,0.0,0.0,0.0,0.0,0.0,0.0,0.0,0.0,0.0,0.0,0.0,0.0,0.0,0.0,0.0,0.0,0.0,0.0,0.0,0.0,0.0,0.0,0.0,0.0,0.0,0.0,0.0,0.0,0.0,1.6817,1.6817,1.6817,1.6941,1.709,1.709,1.709,1.709,0.0,0.0,1.6497,1.6457,1.6126,1.5849,1.5771,1.6035,1.6317,0.0,0.0,1.7648,0.0,0.0,0.0,0.0,0.0,0.0,0.0,0.0,0.0,0.0,0.0,0.0,1.8837,1.8605,1.8404,1.821,1.8272,1.8319,1.8319,1.8319,1.8319,1.8319,1.8388,1.8427,1.8427,1.8566,1.8635,1.8643,1.8727,0.0,0.0,1.8951,1.9112,1.9265,1.9531,1.9828,2.011,2.005,2.011,2.0201,0.0,0.0,0.0,0.0,0.0,0.0,0.0,2.4187,2.4477,2.4498,2.4893,2.5264,2.5454,2.5904,2.6247,2.6445,0.0,0.0,0.0,0.0,0.0,0.0,0.0,0.0,0.0,0.0,0.0,0.0,0.0,0.0,0.0,0.0,0.0,0.0,0.0,0.0,0.0,0.0,0.0,0.0,0.0,0.0,0.0,0.0,0.0,0.0,0.0,0.0,0.0,0.0,0.0,0.0,0.0,0.0,0.0,0.0,1.7279,1.7279,1.7279,1.7279,1.7302,1.7302,1.7302,1.7302,0.0,0.0,1.7239,1.7019,1.6979,1.6909,1.6636,1.6864,1.7246,0.0,0.0,0.0,0.0,0.0,0.0,0.0,0.0,0.0,0.0,0.0,0.0,0.0,0.0,0.0,1.9415,1.9391,1.9115,1.8512,1.8697,1.8781,1.8781,1.8781,1.8781,1.8804,1.905,1.9188,1.9211,1.9677,1.9882,1.9905,0.0,0.0,0.0,2.0269,2.0269,2.0314,2.0501,2.0591,2.0614,2.0885,2.0997,2.0997,0.0,0.0,0.0,0.0,0.0,0.0,0.0,2.4914,2.5189,2.5189,2.5464,2.5758,2.5967,2.6528,2.696,2.7165,0.0,0.0,0.0,0.0,0.0,0.0,0.0,0.0,0.0,0.0,0.0,0.0,0.0,0.0,0.0,0.0,0.0,0.0,0.0,0.0,0.0,0.0,0.0,0.0,0.0,0.0,0.0,0.0,0.0,0.0,0.0,0.0,0.0,0.0,0.0,0.0,0.0,0.0,0.0,0.0,0.0,0.0,1.7356,1.7302,1.7302,1.7302,1.7434,1.7574,1.7574,0.0,1.7558,1.7495,1.7317,1.7241,1.7387,1.7683,1.8107,0.0,0.0,0.0,0.0,0.0,0.0,0.0,0.0,0.0,0.0,0.0,0.0,0.0,0.0,0.0,1.9749,1.9654,1.9342,1.8728,1.8758,1.8897,1.9073,1.9073,1.9234,1.954,1.9631,1.9851,2.0161,2.0297,2.0487,0.0,0.0,0.0,0.0,2.0781,2.0885,2.1064,2.128,2.1548,2.1847,2.1926,2.2081,2.2211,0.0,0.0,0.0,0.0,0.0,0.0,0.0,2.558,2.5926,2.5926,2.6124,2.6342,2.6558,2.7103,2.7542,2.7745,0.0,0.0,0.0,0.0,0.0,0.0,0.0,0.0,0.0,0.0,0.0,0.0,0.0,0.0,0.0,0.0,0.0,0.0,0.0,0.0,0.0,0.0,0.0,0.0,0.0,0.0,2.0351,0.0,0.0,0.0,0.0,0.0,0.0,0.0,0.0,0.0,0.0,0.0,0.0,0.0,1.8117,1.7931,0.0,1.759,1.759,1.759,1.7737,0.0,0.0,0.0,1.7861,1.7861,1.7811,1.7859,1.8067,1.8483,1.8905,1.9283,0.0,0.0,0.0,0.0,0.0,0.0,0.0,0.0,0.0,0.0,0.0,0.0,0.0,0.0,2.0038,2.0022,1.9816,1.9373,1.9265,1.9311,1.9471,1.9646,1.9866,2.017,2.0374,2.0659,2.1033,2.1199,2.1423,0.0,0.0,0.0,0.0,2.1793,2.1891,2.2069,2.228,2.2555,2.2806,2.2896,2.3038,2.3144,0.0,0.0,0.0,0.0,0.0,0.0,0.0,0.0,0.0,0.0,2.6789,2.6994,2.7165,2.7574,2.7962,0.0,0.0,0.0,0.0,0.0,0.0,0.0,0.0,0.0,0.0,0.0,0.0,2.7185,2.6983,2.6644,2.6199,0.0,0.0,0.0,0.0,0.0,0.0,0.0,0.0,0.0,0.0,0.0,0.0,0.0,0.0,0.0,0.0,0.0,0.0,0.0,0.0,0.0,0.0,0.0,0.0,0.0,0.0,0.0,0.0,1.8133,0.0,0.0,0.0,0.0,0.0,0.0,0.0,1.8164,1.8415,1.8636,1.8659,1.9185,1.962,1.9669,0.0,0.0,0.0,0.0,0.0,0.0,0.0,0.0,0.0,0.0,0.0,0.0,0.0,0.0,2.0232,2.0499,2.0551,2.0363,2.0201,2.0056,2.0019,2.0456,2.0704,2.0718,2.1244,2.1615,2.1828,2.2268,2.2618,0.0,0.0,0.0,0.0,2.3157,2.3157,2.3188,2.345,2.3547,2.3569,2.3776,2.3841,2.3841,0.0,0.0,0.0,0.0,0.0,0.0,0.0,0.0,0.0,0.0,0.0,2.7076,2.6983,2.7339,0.0,0.0,0.0,0.0,0.0,0.0,0.0,0.0,0.0,0.0,0.0,0.0,0.0,2.6962,2.6768,2.652,2.6199,2.6042,0.0,0.0,0.0,0.0,0.0,0.0,0.0,0.0,0.0,0.0,0.0,0.0,0.0,0.0,1.8804,1.8804,0.0,0.0,0.0,0.0,0.0,0.0,0.0,0.0,1.872,1.872,1.8643,0.0,1.811,1.811,1.8257,1.8404,0.0,0.0,0.0,0.0,0.0,1.9063,1.9323,1.9506,1.9747,0.0,0.0,0.0,0.0,0.0,0.0,0.0,0.0,0.0,0.0,0.0,0.0,0.0,0.0,2.0691,2.0232,2.078,2.1045,2.0843,2.1682,2.1761,2.1042,2.1302,2.1615,2.1989,2.2299,2.2674,2.3069,2.3188,2.3363,0.0,0.0,0.0,2.3646,2.3646,2.3646,2.3667,2.3937,2.4045,2.4055,2.4261,2.4347,2.4347,0.0,0.0,0.0,0.0,0.0,0.0,0.0,0.0,0.0,0.0,0.0,0.0,0.0,0.0,0.0,0.0,0.0,0.0,0.0,0.0,0.0,0.0,0.0,0.0,0.0,0.0,0.0,0.0,0.0,2.6292,0.0,0.0,0.0,0.0,0.0,0.0,0.0,0.0,0.0,0.0,2.2198,0.0,0.0,0.0,0.0,0.0,1.8804,1.8804,0.0,1.8804,1.8804,1.8804,0.0,0.0,0.0,0.0,1.8804,1.8804,1.8804,1.862,1.8411,1.8411,1.8535,1.8698,0.0,0.0,0.0,0.0,0.0,0.0,1.9918,0.0,0.0,0.0,0.0,0.0,0.0,0.0,0.0,0.0,0.0,0.0,0.0,0.0,0.0,0.0,0.0,2.1553,2.1404,2.177,2.2085,2.2277,2.2915,2.2918,2.2183,2.2624,2.2974,2.3234,2.3474,2.3787,2.4143,2.4143,2.4207,0.0,0.0,0.0,2.4131,2.4131,2.4131,2.4153,2.4282,2.4335,2.4347,2.4454,2.4497,2.4518,0.0,0.0,0.0,0.0,0.0,0.0,0.0,0.0,0.0,0.0,0.0,0.0,0.0,0.0,0.0,0.0,0.0,0.0,0.0,0.0,0.0,0.0,0.0,0.0,0.0,0.0,0.0,0.0,0.0,0.0,0.0,0.0,2.5853,0.0,0.0,0.0,0.0,0.0,0.0,0.0,2.2331,0.0,0.0,0.0,0.0,0.0,0.0,0.0,0.0,1.8804,1.8804,1.8804,1.8804,0.0,0.0,0.0,0.0,0.0,1.8804,1.8804,1.8804,1.8804,1.8844,1.8994,1.9328,0.0,0.0,0.0,0.0,0.0,0.0,0.0,0.0,0.0,0.0,0.0,0.0,0.0,0.0,0.0,0.0,0.0,0.0,0.0,0.0,0.0,0.0,2.2779,2.2956,2.3076,2.341,2.4009,2.4085,2.3943,2.3587,2.4057,2.4316,2.4316,2.452,2.4722,2.4946,2.4946,2.4946,2.4946,0.0,0.0,2.4604,2.4604,2.4604,2.4604,2.4604,2.4604,2.4604,2.4604,2.4604,2.4647,0.0,0.0,0.0,0.0,0.0,0.0,0.0,0.0,0.0,0.0,0.0,0.0,0.0,0.0,0.0,0.0,0.0,0.0,0.0,0.0,0.0,0.0,0.0,0.0,0.0,0.0,0.0,0.0,0.0,0.0,2.5895,2.5895,2.5686,2.5306,0.0,0.0,0.0,0.0,0.0,0.0,0.0,0.0,0.0,0.0,0.0,0.0,0.0,0.0,0.0,1.8804,1.8804,1.8804,1.8804,0.0,0.0,0.0,0.0,0.0,1.8804,1.8804,1.8804,1.8804,1.9058,1.9328,1.9383,0.0,0.0,0.0,0.0,0.0,0.0,0.0,0.0,0.0,0.0,0.0,0.0,0.0,0.0,0.0,0.0,0.0,0.0,0.0,0.0,0.0,0.0,2.357,2.3721,2.4312,2.4763,2.4989,2.5371,2.5655,2.5817,2.5124,2.4797,2.4797,2.5009,2.5105,2.5158,2.5158,2.5158,2.5158,0.0,2.5137,2.5094,2.5094,2.5094,2.5094,2.5094,2.5094,2.5094,2.5094,2.5094,2.5094,0.0,0.0,0.0,0.0,0.0,0.0,0.0,0.0,0.0,0.0,0.0,0.0,0.0,0.0,0.0,0.0,0.0,0.0,0.0,0.0,0.0,0.0,0.0,0.0,0.0,0.0,0.0,0.0,0.0,2.599,2.5895,2.5791,2.5549,2.52,0.0,0.0,0.0,0.0,0.0,0.0,0.0,0.0,0.0,0.0,0.0,0.0,0.0,0.0,0.0,0.0,1.8804,1.8804,1.8804,0.0,0.0,0.0,0.0,0.0,1.8804,1.8804,1.8852,1.9074,1.9248,1.9439,1.9622,0.0,0.0,0.0,0.0,0.0,0.0,0.0,0.0,0.0,0.0,0.0,0.0,0.0,0.0,0.0,0.0,0.0,0.0,0.0,0.0,0.0,0.0,0.0,2.551,2.5724,2.6004,2.6327,2.6441,2.6615,2.6845,2.6422,2.5948,2.5443,2.5528,2.557,2.557,2.557,2.5528,2.5422,0.0,2.5327,2.52,2.52,2.52,2.52,2.52,2.52,2.52,2.52,2.5285,2.5422,0.0,0.0,0.0,0.0,0.0,0.0,0.0,0.0,0.0,0.0,0.0,0.0,0.0,0.0,0.0,0.0,0.0,0.0,0.0,0.0,0.0,0.0,0.0,0.0,0.0,0.0,2.6375,2.6136,2.599,2.5885,2.5843,2.5601,2.5401,0.0,0.0,0.0,0.0,0.0,0.0,0.0,0.0,0.0,0.0,0.0,0.0,0.0,0.0,0.0,0.0,0.0,0.0,0.0,0.0,0.0,0.0,1.8804,1.8804,1.8804,1.8804,1.8868,1.9003,1.9328,0.0,1.9598,1.9932,0.0,0.0,0.0,0.0,0.0,0.0,0.0,0.0,0.0,0.0,0.0,0.0,0.0,0.0,0.0,0.0,0.0,0.0,0.0,0.0,0.0,0.0,0.0,2.7136,2.7074,2.7199,2.7556,2.7359,2.7301,2.7457,2.7348,2.6944,2.6234,2.6234,2.6234,2.6223,2.6125,2.5986,2.5838,2.5719,2.5549,2.5348,2.5348,2.5348,2.5348,2.5348,2.5348,2.5348,2.5348,2.5485,2.5665,0.0,0.0,0.0,0.0,0.0,0.0,0.0,0.0,0.0,0.0,0.0,0.0,0.0,0.0,0.0,0.0,0.0,0.0,0.0,0.0,0.0,0.0,0.0,0.0,0.0,2.6354,2.6136,2.5927,2.5906,2.5791,2.5633,2.5359,2.5221,2.52,0.0,0.0,0.0,0.0,0.0,0.0,0.0,0.0,0.0,0.0,0.0,0.0,0.0,0.0,0.0,0.0,0.0,0.0,0.0,0.0,1.8804,1.8804,1.8804,1.8804,1.8804,1.9074,1.9367,1.9391,0.0,0.0,2.0298,2.0631,0.0,0.0,0.0,0.0,0.0,0.0,0.0,0.0,0.0,0.0,0.0,0.0,0.0,0.0,0.0,0.0,0.0,0.0,0.0,0.0,0.0,0.0,2.7904,2.8141,2.8294,2.8317,2.8061,2.7914,2.7947,2.7511,2.7282,2.7184,2.7184,2.7184,2.7173,2.6747,2.654,2.6508,2.6082,2.5874,2.5853,2.5853,2.5853,2.5853,2.5853,2.5853,2.5853,2.5853,2.5853,2.5874,0.0,0.0,0.0,0.0,0.0,0.0,0.0,0.0,0.0,0.0,0.0,0.0,0.0,0.0,0.0,0.0,0.0,0.0,0.0,0.0,0.0,0.0,0.0,2.5327,2.5727,2.6042,2.6053,2.5707,2.5242,2.4999,2.4914,2.468,0.0,0.0,0.0,0.0,0.0,0.0,0.0,0.0,0.0,0.0,0.0,0.0,0.0,0.0,0.0,0.0,0.0,0.0,1.8804,1.8804,0.0,1.8804,1.8804,1.8804,1.8804,1.8804,1.8804,1.9098,1.9447,1.9654,0.0,0.0,0.0,0.0,0.0,0.0,0.0,0.0,0.0,0.0,0.0,0.0,0.0,0.0,0.0,0.0,0.0,0.0,0.0,0.0,0.0,0.0,0.0,0.0,0.0,0.0,2.849,2.8594,2.864,2.864,2.8559,2.8507,2.8507,2.8321,2.8234,2.8234,2.7599,2.7293,2.7282,2.7119,2.7031,2.702,2.6856,2.678,2.6758,2.6453,2.6333,2.63,2.6016,2.5895,2.5895,2.5895,2.5895,2.5895,0.0,0.0,0.0,0.0,0.0,0.0,0.0,0.0,0.0,0.0,0.0,0.0,0.0,0.0,0.0,0.0,0.0,0.0,0.0,0.0,0.0,0.0,0.0,2.4359,2.4754,2.5285,2.5506,2.5391,2.4637,2.4251,2.4187,0.0,0.0,0.0,0.0,0.0,0.0,0.0,0.0,0.0,2.0727,2.017,0.0,0.0,0.0,0.0,0.0,0.0,0.0,0.0,1.8804,0.0,0.0,0.0,1.8804,1.8804,1.8804,1.8828,1.8947,1.9256,1.963,0.0,0.0,0.0,0.0,0.0,0.0,0.0,0.0,0.0,0.0,0.0,0.0,0.0,0.0,0.0,0.0,0.0,0.0,0.0,0.0,0.0,0.0,0.0,0.0,0.0,0.0,0.0,0.0,2.8803,2.8803,2.8803,2.8803,2.8803,2.8803,2.8803,2.8803,2.8792,2.8102,2.7763,2.7763,2.761,2.7522,2.7511,2.7359,2.7293,2.7282,2.6944,2.6824,2.6791,2.6474,2.6256,2.6115,2.6115,2.6037,2.5895,0.0,0.0,0.0,0.0,0.0,0.0,0.0,0.0,0.0,0.0,0.0,0.0,0.0,0.0,0.0,0.0,0.0,0.0,0.0,0.0,0.0,0.0,0.0,2.358,2.3797,2.4058,2.4423,2.4882,2.4164,2.3667,2.3482,2.3482,0.0,0.0,0.0,0.0,0.0,0.0,0.0,0.0,2.0374,1.9851,0.0,0.0,0.0,0.0,0.0,0.0,0.0,0.0,1.8804,1.8804,0.0,0.0,0.0,1.8804,1.8804,1.8884,1.9296,1.9638,0.0,0.0,0.0,0.0,0.0,0.0,0.0,0.0,0.0,0.0,0.0,0.0,0.0,0.0,0.0,0.0,0.0,0.0,0.0,0.0,0.0,0.0,0.0,0.0,0.0,0.0,0.0,0.0,0.0,2.8803,2.8803,2.8803,2.8803,2.8803,2.8803,2.8803,2.8803,2.8803,2.8803,2.8803,2.8781,2.8243,2.8002,2.798,2.7511,2.7304,2.7304,2.7315,2.7293,2.7293,2.7293,2.7009,2.6617,2.6617,2.6311,2.5917,0.0,0.0,0.0,0.0,0.0,0.0,0.0,0.0,0.0,0.0,0.0,0.0,0.0,0.0,0.0,0.0,0.0,0.0,0.0,0.0,2.253,2.253,2.2662,2.2838,2.3079,2.3157,2.345,2.3927,2.3035,2.2574,0.0,0.0,0.0,2.2611,0.0,0.0,0.0,0.0,0.0,2.0351,1.9959,1.9571,1.9188,0.0,0.0,0.0,0.0,0.0,0.0,0.0,0.0,0.0,0.0,0.0,0.0,1.8804,1.8804,1.8884,1.9296,0.0,0.0,0.0,0.0,0.0,0.0,0.0,0.0,0.0,0.0,0.0,0.0,0.0,0.0,0.0,0.0,0.0,0.0,0.0,0.0,0.0,0.0,0.0,0.0,0.0,0.0,0.0,0.0,0.0,0.0,2.8803,2.8803,2.8803,2.8803,2.8803,2.8803,2.8803,2.8803,2.8803,2.8803,2.8803,2.8792,2.8627,2.8562,2.8551,2.8408,2.8354,2.8321,2.7937,2.7599,2.7293,2.7293,2.7206,2.7086,2.7086,2.6988,2.6868,0.0,0.0,0.0,0.0,0.0,0.0,0.0,0.0,0.0,0.0,0.0,0.0,0.0,0.0,0.0,0.0,0.0,0.0,0.0,0.0,2.2132,2.2132,2.2132,2.2242,2.2517,2.2517,2.2671,0.0,0.0,0.0,0.0,0.0,0.0,2.1834,0.0,2.1789,0.0,0.0,2.06,2.011,1.9831,1.9571,1.9333,0.0,0.0,0.0,0.0,0.0,0.0,0.0,0.0,0.0,0.0,0.0,0.0,1.8966,1.9131,1.9371,1.9638,0.0,0.0,0.0,0.0,0.0,0.0,0.0,0.0,0.0,0.0,0.0,0.0,0.0,0.0,0.0,0.0,0.0,0.0,0.0,0.0,0.0,0.0,0.0,0.0,0.0,0.0,0.0,0.0,0.0,0.0,2.8803,2.8803,2.8803,2.8803,2.8803,2.8803,2.8803,2.8803,2.8803,2.8803,2.8803,2.8803,2.8803,2.8803,2.8803,2.8803,2.8803,2.8781,2.844,2.8156,2.7906,2.7906,2.7774,2.7577,2.7577,2.7457,2.7293,0.0,0.0,0.0,0.0,0.0,0.0,0.0,0.0,0.0,0.0,0.0,0.0,0.0,0.0,0.0,0.0,0.0,0.0,0.0,0.0,2.1696,2.1696,2.1696,2.1807,2.2052,2.2052,2.2052,0.0,0.0,0.0,0.0,0.0,2.1325,2.1302,0.0,2.1203,0.0,2.0736,2.036,1.9905,1.9905,1.9777,1.9564,1.9333,0.0,0.0,0.0,0.0,0.0,0.0,0.0,0.0,1.8874,1.9035,1.9234,1.9234,1.9656,2.0134,0.0,0.0,0.0,0.0,0.0,0.0,0.0,0.0,0.0,0.0,0.0,0.0,0.0,0.0,0.0,0.0,0.0,0.0,0.0,0.0,0.0,0.0,0.0,0.0,0.0,0.0,0.0,0.0,0.0,0.0,0.0,2.8803,2.8803,2.8803,2.8803,2.8803,2.8803,2.8803,2.8803,2.8803,2.8803,2.8803,2.8803,2.8803,2.8803,2.8803,2.8803,2.8803,2.8803,2.8803,2.8803,2.8803,2.8803,2.8484,2.8056,2.8056,2.7806,2.7446,0.0,0.0,0.0,0.0,0.0,0.0,0.0,0.0,0.0,0.0,0.0,0.0,0.0,0.0,0.0,0.0,0.0,0.0,0.0,0.0,2.1696,2.1696,2.1696,2.1741,2.1785,2.1785,2.1785,2.1785,0.0,0.0,0.0,0.0,0.0,2.055,0.0,2.0699,2.045,2.0397,2.0201,1.9905,1.9905,1.9777,1.9587,1.9541,1.951,0.0,0.0,0.0,0.0,0.0,0.0,0.0,1.9419,1.9464,1.951,1.951,1.9803,2.0182,0.0,2.0892,0.0,0.0,0.0,0.0,0.0,0.0,0.0,0.0,0.0,0.0,0.0,0.0,0.0,0.0,0.0,0.0,0.0,0.0,0.0,0.0,0.0,0.0,0.0,0.0,0.0,0.0,0.0,0.0,2.8803,2.8803,2.8803,2.8803,2.8803,2.8803,2.8803,2.8803,2.8803,0.0,2.8803,2.8803,2.8803,2.8803,2.8803,2.8803,2.8803,2.8803,2.8803,2.8803,2.8803,2.8803,2.8803,2.8738,2.8627,2.8627,2.8551,2.8474,0.0,0.0,0.0,0.0,0.0,0.0,0.0,0.0,0.0,0.0,0.0,0.0,0.0,0.0,0.0,0.0,0.0,0.0,0.0,0.0,0.0,0.0,2.1696,2.1696,2.1696,2.1696,2.1696,0.0,0.0,0.0,0.0,0.0,0.0,2.0496,0.0,2.0564,2.0292,2.0292,2.0292,2.0269,2.0133,2.0119,2.0104,1.9831,1.9731,1.9739,1.9633,0.0,0.0,0.0,0.0,0.0,0.0,0.0,1.9773,1.9962,2.0364,2.0772,0.0,0.0,0.0,0.0,0.0,0.0,0.0,0.0,0.0,0.0,0.0,0.0,0.0,0.0,0.0,0.0,0.0,0.0,0.0,0.0,0.0,0.0,0.0,0.0,0.0,0.0,0.0,0.0,0.0,2.8803,2.8803,2.8803,2.8803,2.8803,2.8803,2.8803,2.8803,2.8803,2.8803,2.8803,2.8803,2.8803,2.8803,2.8803,2.8803,2.8803,2.8803,2.8803,2.8803,2.8803,2.8803,2.8803,2.8803,2.8803,2.8803,2.8803,2.8803,2.8803,0.0,0.0,0.0,0.0,0.0,0.0,0.0,0.0,0.0,0.0,0.0,0.0,0.0,0.0,0.0,0.0,0.0,0.0,0.0,0.0,0.0,0.0,2.1696,2.1696,2.1696,2.1696,2.1696,0.0,0.0,0.0,0.0,0.0,0.0,2.0699,0.0,2.0586,2.036,2.036,2.0518,2.0722,2.0518,2.0555,2.069,2.0269,2.0087,2.0065,1.9891,1.9831,1.9831,1.9831,0.0,0.0,0.0,0.0,2.0178,2.0574,2.109,2.1595,0.0,0.0,0.0,0.0,0.0,0.0,0.0,0.0,0.0,0.0,0.0,0.0,0.0,0.0,0.0,0.0,0.0,0.0,0.0,0.0,0.0,0.0,0.0,0.0,0.0,0.0,0.0,0.0,0.0,2.8803,2.8803,2.8803,2.8803,2.8803,2.8827,2.885,2.885,2.8896,2.8908,2.8908,2.8908,2.8908,2.8908,2.8908,2.8873,2.8803,2.8803,2.8803,2.8803,2.8803,2.8803,2.8803,2.8803,2.8803,2.8803,2.8803,2.8803,2.8803,0.0,0.0,0.0,0.0,0.0,0.0,0.0,0.0,0.0,0.0,0.0,0.0,0.0,0.0,0.0,0.0,0.0,0.0,2.1696,0.0,0.0,2.1696,2.1696,2.1696,2.1696,2.1696,2.1696,0.0,0.0,0.0,0.0,0.0,0.0,2.0699,0.0,0.0,2.0654,2.0654,2.0758,2.0952,2.093,2.093,2.0952,2.0885,0.0,2.0862,2.0817,2.0817,2.0817,2.0817,2.0817,0.0,0.0,0.0,2.0919,2.1347,2.1758,2.2161,0.0,0.0,0.0,0.0,0.0,0.0,0.0,0.0,0.0,0.0,0.0,0.0,0.0,0.0,0.0,0.0,0.0,0.0,0.0,0.0,0.0,0.0,0.0,0.0,0.0,0.0,0.0,0.0,2.8803,2.8803,2.8803,2.8803,2.8803,2.8803,2.8966,2.9058,2.9058,2.9278,2.9416,2.9416,2.9416,2.9416,2.9416,2.9416,2.9186,2.8803,2.8803,2.8803,2.8803,2.8803,2.8803,2.8803,2.8803,2.8803,2.8803,2.8803,2.8803,2.8803,0.0,0.0,0.0,0.0,0.0,0.0,0.0,0.0,0.0,0.0,0.0,0.0,0.0,0.0,0.0,2.1696,2.1696,2.1696,2.1696,2.1696,2.1696,2.1696,2.1696,2.1696,2.1696,2.1696,0.0,0.0,0.0,0.0,0.0,2.1486,2.1284,0.0,0.0,0.0,0.0,0.0,2.1006,2.1217,2.1064,2.1096,2.1217,0.0,0.0,0.0,0.0,0.0,0.0,2.0997,2.0997,2.0997,2.0997,0.0,0.0,0.0,2.1875,0.0,2.2979,0.0,0.0,0.0,0.0,0.0,0.0,0.0,0.0,0.0,0.0,0.0,0.0,0.0,0.0,0.0,0.0,0.0,0.0,0.0,0.0,0.0,0.0,0.0,0.0,0.0,0.0,0.0,2.8803,2.8803,2.8803,2.8803,2.8803,2.8803,2.8989,2.9105,2.9105,2.937,2.9508,2.9508,2.9508,2.9508,2.9508,2.9508,2.9393,2.9186,2.9035,2.8966,2.8966,2.885,2.8803,2.8803,2.8803,2.8803,2.8803,2.8803,2.8803,2.8803,0.0,0.0,0.0,0.0,0.0,0.0,0.0,0.0,0.0,0.0,0.0,0.0,0.0,0.0,0.0,0.0,2.1632,2.1696,2.1696,2.1696,2.1696,2.1696,2.1696,2.1696,2.1696,0.0,0.0,0.0,0.0,0.0,2.1696,2.1696,2.1629,0.0,2.1414,0.0,0.0,0.0,0.0,0.0,0.0,0.0,0.0,0.0,0.0,0.0,0.0,0.0,0.0,0.0,0.0,0.0,0.0,0.0,0.0,0.0,0.0,0.0,0.0,0.0,0.0,0.0,0.0,0.0,0.0,0.0,0.0,0.0,0.0,0.0,0.0,0.0,0.0,0.0,0.0,0.0,0.0,0.0,0.0,0.0,0.0,0.0,0.0,0.0,0.0,0.0,2.8803,2.8803,2.8803,2.8803,2.8827,2.8873,2.9105,2.922,2.9289,2.9623,2.9806,2.9886,2.9886,2.9886,2.9886,2.9886,2.9829,2.976,2.937,2.9197,2.9197,2.9035,2.8943,2.8873,2.8873,2.885,2.8803,2.8803,2.8803,2.8803,0.0,0.0,0.0,0.0,0.0,0.0,0.0,0.0,0.0,0.0,0.0,0.0,0.0,2.0885,2.1135,2.1135,2.148,2.1696,2.1696,2.1696,2.1696,2.1696,2.1696,0.0,2.1696,0.0,0.0,0.0,0.0,0.0,2.1696,2.1696,2.1687,2.1674,2.1482,2.1392,2.1369,0.0,0.0,0.0,0.0,0.0,0.0,0.0,0.0,0.0,0.0,0.0,0.0,0.0,0.0,0.0,0.0,0.0,0.0,0.0,0.0,0.0,0.0,0.0,0.0,0.0,0.0,0.0,0.0,0.0,0.0,0.0,0.0,0.0,0.0,0.0,0.0,0.0,0.0,0.0,0.0,0.0,0.0,0.0,0.0,0.0,0.0,0.0,0.0,0.0,2.8803,2.8803,2.8803,2.8803,2.8896,2.9082,2.9324,2.9611,2.9874,3.0318,3.0679,3.0905,3.0905,3.0905,3.0905,3.0905,3.0781,3.051,2.9783,2.9485,2.9485,2.9462,2.9301,2.9082,2.9082,2.8966,2.8803,2.8803,2.8803,2.8803,0.0,0.0,0.0,0.0,0.0,0.0,0.0,0.0,0.0,0.0,0.0,0.0,0.0,2.0425,2.09,2.09,2.1392,2.1696,2.1696,2.1696,2.1696,2.1696,2.1696,2.1696,2.1696,0.0,0.0,0.0,0.0,2.1696,2.1696,2.1696,2.1696,2.1696,2.1629,2.1584,2.1584,2.1584,0.0,0.0,0.0,0.0,0.0,0.0,0.0,0.0,0.0,0.0,0.0,0.0,0.0,0.0,0.0,0.0,0.0,0.0,0.0,0.0,0.0,0.0,0.0,0.0,0.0,0.0,0.0,0.0,0.0,0.0,0.0,0.0,0.0,0.0,0.0,0.0,0.0,0.0,0.0,0.0,0.0,0.0,0.0,0.0,0.0,0.0,0.0,0.0,0.0,2.8989,2.8989,2.9174,2.9278,2.9347,2.9611,2.9943,3.0341,3.0691,3.0905,3.1006,3.1006,3.1006,3.1006,3.1006,3.095,3.0848,3.0578,3.0193,2.9737,2.9554,2.9439,2.9359,2.9359,2.9301,2.9255,2.9255,2.914,2.8989,0.0,0.0,0.0,0.0,0.0,0.0,0.0,0.0,0.0,0.0,0.0,0.0,0.0,0.0,2.058,2.0831,2.1309,2.1607,2.1607,2.1674,2.1696,2.1696,2.1696,2.1696,2.1696,0.0,0.0,0.0,0.0,0.0,0.0,2.1696,2.1696,2.1696,2.1696,2.1696,0.0,0.0,0.0,2.1696,0.0,0.0,2.1696,0.0,0.0,0.0,0.0,0.0,0.0,0.0,0.0,0.0,0.0,0.0,0.0,0.0,0.0,0.0,0.0,0.0,0.0,0.0,0.0,0.0,0.0,0.0,0.0,0.0,0.0,0.0,0.0,0.0,0.0,0.0,0.0,0.0,0.0,0.0,0.0,0.0,0.0,0.0,0.0,0.0,0.0,0.0,0.0,0.0,2.9243,2.9393,2.9577,2.9737,3.0,3.0375,3.0825,3.1005,3.1151,3.1241,3.1241,3.1241,3.1241,3.1241,3.1196,3.1107,3.1107,3.0793,3.025,2.9977,2.9829,2.9737,2.9657,2.9588,2.9508,2.9508,2.9393,2.9243,0.0,0.0,0.0,0.0,0.0,0.0,0.0,0.0,0.0,0.0,0.0,0.0,0.0,0.0,0.0,2.0926,2.1248,2.1392,2.1392,2.1584,2.1696,2.1696,2.1696,2.1696,2.1696,0.0,0.0,0.0,0.0,0.0,0.0,0.0,2.1696,2.1696,2.1696,2.1696,2.1696,0.0,2.1696,2.1696,0.0,2.1696,2.1696,0.0,0.0,0.0,2.1696,2.1696,0.0,0.0,0.0,0.0,0.0,0.0,0.0,0.0,0.0,0.0,0.0,0.0,0.0,0.0,0.0,0.0,0.0,0.0,0.0,0.0,0.0,0.0,0.0,0.0,0.0,0.0,0.0,0.0,0.0,0.0,0.0,0.0,0.0,0.0,0.0,0.0,0.0,0.0,2.9508,2.9508,2.9508,2.9531,2.9737,3.0216,3.0487,3.0847,3.1306,3.1306,3.1439,3.1705,3.1705,3.1705,3.1705,3.1705,3.155,3.1306,3.1306,3.1206,3.0995,3.0724,3.0465,3.0193,3.0023,2.976,2.9531,2.9531,2.9531,2.9508,0.0,0.0,0.0,0.0,0.0,0.0,0.0,0.0,0.0,0.0,0.0,0.0,0.0,0.0,2.0074,2.093,2.1064,2.1195,2.1392,2.1437,2.1482,2.1482,2.1482,2.1482,2.1482,0.0,0.0,0.0,0.0,0.0,0.0,0.0,0.0,0.0,2.1696,2.1696,2.1696,2.1696,0.0,0.0,2.1696,2.1696,0.0,0.0,0.0,0.0,0.0,2.1696,2.1696,0.0,2.1696,2.1696,0.0,0.0,0.0,0.0,0.0,0.0,2.2459,0.0,0.0,0.0,0.0,0.0,0.0,0.0,0.0,0.0,0.0,0.0,0.0,0.0,0.0,0.0,0.0,0.0,0.0,0.0,0.0,0.0,0.0,0.0,0.0,0.0,0.0,0.0,2.9691,2.9794,2.9794,3.0114,3.0442,3.0758,3.0994,3.116,3.1306,3.1484,3.1617,3.1705,3.1705,3.1705,3.1705,3.1705,3.1661,3.1594,3.1594,3.155,3.1473,3.105,3.086,3.0758,3.0725,3.0658,3.0556,3.0386,3.017,2.9988,0.0,0.0,0.0,0.0,0.0,0.0,0.0,0.0,0.0,0.0,0.0,0.0,0.0,0.0,0.0,2.0484,2.0645,2.0826,2.1091,2.1203,2.1217,2.1217,2.1217,2.1217,2.1217,2.1347,0.0,0.0,0.0,0.0,0.0,0.0,0.0,0.0,0.0,0.0,0.0,0.0,0.0,0.0,2.1696,0.0,0.0,2.1696,2.1696,0.0,0.0,0.0,2.1696,2.1696,2.1696,0.0,0.0,0.0,0.0,0.0,0.0,0.0,0.0,0.0,0.0,0.0,0.0,0.0,2.7444,2.7503,0.0,0.0,0.0,0.0,0.0,0.0,0.0,0.0,0.0,0.0,0.0,0.0,0.0,0.0,0.0,0.0,0.0,3.0136,3.0136,3.0136,3.0273,3.0375,3.0375,3.0623,3.0893,3.1129,3.1239,3.135,3.1461,3.1617,3.1705,3.1705,3.1705,3.1705,3.1705,3.1705,3.1705,3.1705,3.1705,3.1705,3.1683,3.1407,3.1241,3.1129,3.1017,3.1006,3.0984,3.0826,3.0657,3.0533,0.0,0.0,0.0,0.0,0.0,0.0,0.0,0.0,0.0,0.0,0.0,0.0,0.0,0.0,0.0,0.0,2.0087,2.036,2.0631,2.0848,2.0975,2.0975,2.0975,2.0975,2.0975,2.1203,0.0,0.0,0.0,0.0,0.0,0.0,0.0,0.0,0.0,0.0,0.0,0.0,0.0,2.1696,2.1696,2.1696,0.0,0.0,2.1696,0.0,2.1696,2.1696,2.1696,2.1696,2.1696,0.0,0.0,0.0,0.0,0.0,2.1963,0.0,0.0,0.0,0.0,0.0,0.0,0.0,2.8087,2.8207,2.8224,0.0,0.0,0.0,0.0,0.0,0.0,0.0,0.0,0.0,0.0,0.0,0.0,0.0,0.0,0.0,3.0972,3.1006,3.1006,3.1006,3.1006,3.1006,3.1017,3.1017,3.1117,3.135,3.135,3.1461,3.1705,3.1705,3.1705,3.1705,3.1705,3.1705,3.1705,3.1705,3.1705,3.1705,3.1705,3.1705,3.1705,3.1705,3.155,3.1328,3.1151,3.1084,3.1062,3.1039,3.1017,3.1017,1.5353,0.0,0.0,0.0,0.0,0.0,0.0,0.0,0.0,0.0,0.0,0.0,0.0,0.0,0.0,0.0,1.9723,2.0087,2.036,2.0631,2.0758,2.0758,2.0758,2.0758,2.0758,2.0812,2.1024,0.0,0.0,0.0,0.0,0.0,0.0,0.0,0.0,0.0,0.0,0.0,0.0,2.1696,2.1696,0.0,2.1696,2.1696,2.1696,2.1696,2.1696,2.1696,2.1696,0.0,2.1696,2.1696,0.0,0.0,0.0,0.0,0.0,0.0,0.0,0.0,0.0,0.0,0.0,0.0,2.839,2.8588,2.8712,0.0,0.0,0.0,0.0,0.0,0.0,0.0,0.0,0.0,0.0,0.0,0.0,0.0,0.0,0.0,3.0972,3.1006,3.1006,3.1006,3.1006,3.1062,3.1229,3.1239,3.1362,3.1617,3.1617,3.1639,3.1705,3.1705,3.1705,3.1705,3.1705,3.1705,3.1705,3.1705,3.1705,3.1705,3.1705,3.1705,3.1705,3.1705,3.1661,3.1617,3.1584,3.1562,3.154,3.1306,3.1239,3.1229,1.4265,0.0,0.0,0.0,0.0,0.0,0.0,0.0,0.0,0.0,0.0,0.0,0.0,0.0,0.0,0.0,0.0,0.0,0.0,0.0,2.0141,2.0141,2.0141,2.0209,2.0292,2.0428,2.0677,0.0,0.0,0.0,0.0,0.0,0.0,0.0,0.0,0.0,0.0,0.0,2.1696,2.1696,2.1696,0.0,2.1696,2.1696,2.1696,2.1696,2.1696,2.1696,2.1696,2.1696,2.1696,0.0,0.0,2.1874,2.2141,0.0,2.275,2.3307,0.0,0.0,0.0,2.6724,0.0,0.0,0.0,2.8732,2.8883,2.9675,3.0033,0.0,0.0,0.0,0.0,0.0,0.0,0.0,0.0,0.0,0.0,0.0,0.0,0.0,3.1318,3.134,3.134,3.134,3.134,3.1385,3.1484,3.1506,3.155,3.1705,3.1705,3.1705,3.1705,3.1705,3.1705,3.1705,3.1705,3.1705,3.1705,3.1705,3.1705,3.1705,3.1705,3.1705,3.1705,3.1705,3.1705,3.1705,3.1705,3.1705,3.1683,3.155,3.1506,3.1484,1.3088,0.0,0.0,0.0,0.0,0.0,0.0,0.0,0.0,0.0,0.0,0.0,0.0,0.0,0.0,0.0,0.0,0.0,0.0,0.0,0.0,1.961,1.961,1.9671,1.9845,2.0087,2.036,0.0,0.0,0.0,0.0,0.0,0.0,0.0,0.0,0.0,0.0,0.0,0.0,2.1696,0.0,2.1696,2.1696,2.1696,2.1696,2.1696,2.1696,2.1696,2.1696,2.1696,0.0,2.1718,2.1763,2.1985,0.0,0.0,0.0,0.0,0.0,0.0,0.0,0.0,0.0,2.7586,0.0,0.0,0.0,2.9769,0.0,0.0,0.0,0.0,0.0,0.0,0.0,0.0,0.0,0.0,0.0,0.0,0.0,0.0,3.1661,3.1705,3.1705,3.1705,3.1705,3.1705,3.1705,3.1705,3.1705,3.1705,3.1705,3.1705,3.1705,3.1705,3.1705,3.1705,3.1705,3.1705,3.1705,3.1705,3.1705,3.1705,3.1705,3.1705,3.1705,3.1705,3.1705,3.1705,3.1705,3.1705,3.1705,3.1705,3.1705,3.1705,1.1784,1.1886,0.0,0.0,0.0,0.0,0.0,0.0,0.0,0.0,0.0,0.0,0.0,0.0,0.0,0.0,0.0,0.0,1.9242,0.0,0.0,0.0,1.961,1.961,1.9633,1.9845,2.0087,0.0,0.0,0.0,0.0,0.0,0.0,0.0,2.1293,0.0,0.0,0.0,2.1696,0.0,2.1696,2.1696,0.0,2.1696,2.1696,2.1696,2.1696,2.1696,2.1696,0.0,2.1696,2.1741,0.0,2.2362,2.2838,0.0,0.0,0.0,0.0,0.0,0.0,0.0,2.782,0.0,0.0,0.0,2.8698,2.9044,0.0,0.0,0.0,0.0,0.0,0.0,0.0,0.0,0.0,0.0,0.0,0.0,0.0,0.0,0.0,3.1705,3.1705,3.1705,3.1705,3.1705,3.1705,3.1705,3.1705,3.1705,3.1705,3.1705,3.1705,3.1705,3.1705,3.1705,3.1705,3.1705,3.1705,3.1705,3.1705,3.1705,3.1705,3.1705,3.1705,3.1705,3.1705,3.1705,3.1705,3.1705,3.1705,3.1705,3.1705,3.1705,1.1009,1.1206,0.0,0.0,0.0,0.0,0.0,0.0,0.0,0.0,0.0,0.0,0.0,0.0,0.0,0.0,0.0,1.8573,0.0,0.0,0.0,0.0,0.0,0.0,0.0,1.9448,1.9677,2.0065,2.0178,0.0,0.0,0.0,0.0,0.0,2.0947,0.0,2.1163,0.0,0.0,0.0,0.0,0.0,0.0,2.1651,2.1696,2.1696,2.1696,2.1696,2.1696,0.0,2.1696,0.0,0.0,0.0,0.0,0.0,0.0,0.0,0.0,0.0,0.0,0.0,0.0,0.0,2.8331,0.0,2.8656,0.0,0.0,0.0,0.0,0.0,0.0,0.0,3.1705,0.0,0.0,0.0,0.0,0.0,0.0,0.0,0.0,0.0,0.0,0.0,3.1705,3.1705,3.1705,3.1705,3.1705,3.1705,3.1705,3.1705,3.1705,3.1705,3.1705,3.1705,3.1705,3.1705,3.1705,3.1705,3.1705,3.1705,3.1705,3.1705,3.1705,3.1705,3.1705,3.1705,3.1705,3.1705,3.1705,3.1705,3.1705,3.1705,1.0337,0.0,0.0,0.0,0.0,0.0,0.0,0.0,0.0,0.0,0.0,0.0,1.4669,1.5248,0.0,0.0,0.0,1.8295,0.0,0.0,1.8804,0.0,0.0,0.0,0.0,0.0,1.9371,1.97,0.0,0.0,0.0,0.0,0.0,0.0,0.0,2.0713,2.093,0.0,0.0,2.1019,2.1217,2.1325,2.1423,2.1629,2.1696,2.1696,2.1696,2.1696,2.1696,2.1696,2.1696,0.0,2.203,0.0,0.0,0.0,0.0,0.0,2.579,0.0,0.0,0.0,0.0,0.0,0.0,0.0,0.0,0.0,0.0,0.0,0.0,0.0,0.0,0.0,0.0,3.1705,0.0,0.0,0.0,0.0,0.0,0.0,0.0,0.0,0.0,3.1705,3.1705,3.1705,3.1705,3.1705,3.1705,3.1705,3.1705,3.1705,3.1705,3.1705,3.1705,3.1705,3.1705,3.1705,3.1705,3.1705,3.1705,3.1705,3.1705,3.1705,3.1705,3.1705,3.1705,3.1705,3.1705,3.1705,3.1705,3.1705,3.1705,3.1705,0.9624,1.0015,0.0,0.0,0.0,0.0,0.0,0.0,0.0,0.0,0.0,0.0,0.0,0.0,0.0,0.0,0.0,1.8295,1.8781,0.0,1.8804,0.0,0.0,1.8804,0.0,0.0,0.0,0.0,0.0,0.0,0.0,0.0,0.0,0.0,0.0,2.045,2.0722,2.0916,2.0997,2.0997,2.1019,2.1172,2.1423,0.0,2.1696,2.1696,2.1696,0.0,0.0,2.1696,2.1696,0.0,0.0,0.0,0.0,0.0,0.0,0.0,0.0,0.0,0.0,2.7978,0.0,0.0,0.0,0.0,2.849,0.0,0.0,0.0,0.0,0.0,0.0,0.0,0.0,0.0,0.0,0.0,0.0,0.0,0.0,0.0,0.0,0.0,3.1705,3.1705,3.1705,3.1705,3.1705,3.1705,3.1705,3.1705,3.1705,3.1705,3.1705,3.1705,3.1705,3.1705,3.1705,3.1705,3.1705,3.1705,3.1705,3.1705,3.1705,3.1705,3.1705,3.1705,3.1705,3.1705,3.1705,3.1705,3.1705,3.1705,3.1705,3.1705,0.0,0.0,0.0,0.0,0.0,0.0,0.0,1.1609,0.0,0.0,0.0,0.0,0.0,0.0,1.5592,0.0,0.0,1.8295,1.8781,1.8804,0.0,0.0,0.0,1.8804,0.0,0.0,0.0,0.0,0.0,0.0,0.0,0.0,0.0,0.0,0.0,2.0087,0.0,0.0,0.0,0.0,0.0,2.1172,2.1423,0.0,0.0,2.1696,2.1696,2.1696,0.0,2.1696,2.1696,2.1741,2.203,2.2207,2.2473,2.3144,2.3722,0.0,0.0,0.0,2.6848,2.7768,0.0,0.0,0.0,0.0,0.0,0.0,0.0,0.0,0.0,0.0,0.0,0.0,0.0,0.0,0.0,0.0,0.0,0.0,0.0,0.0,0.0,0.0,0.0,3.1705,3.1705,3.1705,3.1705,3.1705,3.1705,3.1705,3.1705,3.1705,3.1705,3.1705,3.1705,3.1705,3.1705,3.1705,3.1705,3.1705,3.1705,3.1705,3.1705,3.1705,3.1705,3.1705,3.1705,3.1705,3.1705,3.1705,3.1705,3.1705,3.1705,3.1705,0.9368,0.0,0.0,0.0,0.0,0.0,0.0,0.0,0.0,0.0,1.1834,0.0,1.327,0.0,1.5497,0.0,1.7676,1.8295,1.8781,1.8804,0.0,1.8804,1.8804,0.0,0.0,0.0,0.0,0.0,0.0,1.915,0.0,0.0,0.0,0.0,0.0,0.0,1.9928,0.0,2.0292,0.0,0.0,2.1096,0.0,0.0,2.1696,2.1696,0.0,2.1696,2.1696,2.1696,2.1696,2.1731,2.1896,2.203,2.223,2.2904,2.3418,2.4078,2.5306,2.602,0.0,2.7647,2.8002,0.0,2.8431,0.0,0.0,0.0,0.0,0.0,0.0,0.0,0.0,0.0,0.0,0.0,0.0,3.1585,0.0,0.0,0.0,0.0,0.0,0.0,3.1705,3.1705,3.1705,3.1705,0.0,0.0,3.1705,3.1705,3.1705,3.1705,3.1705,3.1705,3.1705,3.1705,3.1705,3.1705,3.1705,3.1705,3.1705,3.1705,3.1705,3.1705,3.1705,3.1705,3.1705,3.1705,3.1705,3.1705,3.1705,3.1705,3.1705,3.1705,0.0,0.0,0.0,0.0,1.0901,0.0,0.0,0.0,1.1194,0.0,1.1438,1.1995,1.3004,1.4058,1.5348,1.6873,1.7676,0.0,1.8781,1.8804,0.0,0.0,1.8804,1.8804,1.8804,0.0,0.0,0.0,0.0,0.0,0.0,0.0,0.0,0.0,1.9464,0.0,1.9905,2.0178,2.0292,2.0337,2.0817,2.0997,2.1042,2.153,2.1696,2.1696,2.1696,2.1696,2.1696,2.1696,2.1696,2.1696,2.1696,2.1874,2.2207,2.2882,2.3418,2.4111,2.5506,2.6062,2.6507,2.7626,0.0,0.0,0.0,0.0,2.849,0.0,0.0,0.0,0.0,0.0,0.0,0.0,0.0,0.0,0.0,0.0,0.0,0.0,0.0,0.0,0.0,3.1705,3.1705,3.1705,3.1705,3.1705,0.0,0.0,3.1705,3.1705,3.1705,3.1705,3.1705,3.1705,3.1705,3.1705,3.1705,3.1705,3.1705,3.1705,3.1705,3.1705,3.1705,3.1705,3.1705,3.1705,3.1705,3.1705,3.1705,3.1705,3.1705,3.1705,3.1705,3.1705,0.9091,0.9622,1.0171,0.0,1.099,1.1194,0.0,0.0,0.0,0.0,1.1614,1.219,1.2998,1.4232,1.5544,1.6873,1.7676,0.0,0.0,0.0,0.0,1.8804,1.8804,1.8804,1.8804,1.8804,0.0,1.8804,0.0,0.0,1.8804,0.0,0.0,0.0,0.0,0.0,1.9693,2.0119,2.0292,2.0337,2.0817,2.0997,0.0,0.0,2.1696,2.1696,2.1696,2.1696,2.1696,2.1696,2.1696,2.1696,2.1696,2.1741,2.1932,2.2671,2.3321,2.4112,2.5516,2.629,2.6942,2.7878,2.8119,2.8191,0.0,0.0,0.0,0.0,0.0,0.0,0.0,0.0,0.0,0.0,0.0,0.0,0.0,0.0,0.0,3.1657,0.0,0.0,3.1705,3.1705,3.1705,3.1705,3.1705,3.1705,3.1705,0.0,0.0,3.1705,3.1705,3.1705,3.1705,3.1705,3.1705,3.1705,3.1705,3.1705,3.1705,3.1705,3.1705,3.1705,3.1705,3.1705,3.1705,3.1705,3.1705,3.1705,3.1705,3.1705,3.1705,3.1705,3.1705,3.1705,0.9197,0.0,0.0,1.0556,0.0,0.0,1.1169,0.0,0.0,1.1194,1.1658,0.0,1.3028,1.419,1.5439,1.6716,1.7496,0.0,1.8627,0.0,0.0,1.8804,1.8804,1.8804,1.8804,1.8804,0.0,1.8804,0.0,0.0,1.8804,0.0,0.0,0.0,0.0,1.961,0.0,2.0096,2.0292,2.0337,2.0817,0.0,0.0,2.153,2.1696,2.1696,2.1696,2.1696,2.1696,2.1696,2.1696,2.1696,2.1696,2.1696,2.1865,2.2684,2.3408,2.4242,2.5652,2.6507,2.7228,2.7998,2.8199,2.8259,2.8451,2.849,2.849,0.0,0.0,0.0,0.0,0.0,0.0,0.0,0.0,0.0,0.0,0.0,0.0,0.0,3.1705,0.0,3.1705,3.1705,3.1705,3.1705,3.1705,3.1705,0.0,0.0,0.0,3.1705,3.1705,3.1705,3.1705,3.1705,3.1705,3.1705,3.1705,3.1705,3.1705,3.1705,3.1705,3.1705,3.1705,3.1705,3.1705,3.1705,3.1705,3.1705,3.1705,3.1705,3.1705,3.1705,3.1705,3.1705,0.0,0.0,0.0,0.0,0.0,0.0,0.0,1.1194,0.0,1.1194,0.0,1.2287,1.3028,1.4052,1.5213,1.6487,0.0,1.7885,1.8458,1.8651,1.8758,1.8804,1.8804,1.8804,1.8804,1.8804,0.0,0.0,0.0,0.0,0.0,0.0,0.0,0.0,0.0,0.0,0.0,2.0073,2.0246,2.0292,2.0803,2.0997,2.1042,2.153,2.1696,2.1696,2.1696,2.1696,2.1696,2.1696,2.1696,2.1696,2.1696,2.1718,2.1932,2.2828,2.3616,2.4499,2.5873,2.6755,2.7429,2.8079,2.8239,2.8299,2.8451,2.849,2.849,2.849,2.849,2.849,0.0,0.0,0.0,0.0,0.0,0.0,0.0,0.0,0.0,0.0,0.0,0.0,3.1705,3.1705,3.1705,3.1705,3.1705,3.1705,0.0,0.0,0.0,3.1705,3.1705,3.1705,3.1705,0.0,3.1705,3.1705,3.1705,3.1705,3.1705,3.1705,3.1705,3.1705,3.1705,3.1705,3.1705,3.1705,3.1705,3.1705,3.1705,3.1705,3.1705,3.1705,3.1705,3.1705,0.0,0.0,0.0,0.0,0.0,1.0634,1.112,1.1194,1.1194,1.1194,1.1658,1.2287,1.3028,1.4052,1.5213,1.6487,1.7075,0.0,0.0,0.0,0.0,1.8781,1.8804,1.8804,1.8804,1.8804,1.8804,0.0,0.0,0.0,0.0,0.0,0.0,0.0,0.0,0.0,1.961,1.9868,0.0,2.0019,2.0727,2.0997,2.1042,2.153,2.1696,2.1696,2.1696,2.1696,2.1696,2.1696,2.1696,2.1696,2.1696,2.1852,2.2163,2.2894,2.3854,2.4935,2.6123,2.7094,2.7889,2.8351,2.8451,2.8451,2.849,2.849,2.849,2.849,2.849,2.849,2.849,0.0,0.0,0.0,0.0,0.0,0.0,0.0,0.0,0.0,0.0,3.1705,0.0,3.1705,3.1705,3.1705,3.1705,0.0,0.0,0.0,0.0,0.0,3.1705,0.0,0.0,0.0,3.1705,3.1705,3.1705,3.1705,3.1705,3.1705,3.1705,3.1705,3.1705,3.1705,3.1705,3.1705,3.1705,3.1705,3.1705,3.1705,3.1705,3.1705,3.1705,3.1705,0.0,0.0,0.0,0.0,0.0,0.0,0.0,1.1316,0.0,1.1414,1.1878,1.2487,1.3221,1.4262,1.5296,1.6315,1.6951,1.752,1.8055,1.8218,1.8404,1.8635,1.8627,0.0,1.8804,1.8804,1.8804,1.8804,0.0,0.0,0.0,0.0,0.0,0.0,0.0,1.9356,0.0,0.0,0.0,1.9951,2.0704,2.0997,2.1042,2.153,2.1696,2.1696,2.1696,2.1696,2.1696,2.1696,2.1696,2.1696,2.1696,2.1874,2.223,2.2904,2.3907,2.5041,2.6185,2.7188,2.8002,2.8391,2.849,2.849,2.849,2.849,2.849,2.849,2.849,2.849,2.849,2.849,0.0,0.0,0.0,0.0,0.0,0.0,0.0,0.0,0.0,0.0,0.0,0.0,0.0,0.0,0.0,0.0,0.0,0.0,0.0,0.0,0.0,0.0,0.0,0.0,0.0,3.1705,3.1705,3.1705,3.1705,3.1705,3.1705,3.1705,3.1705,3.1705,3.1705,3.1705,3.1705,3.1705,3.1705,3.1705,3.1705,3.1705,3.1705,3.1705,0.0,1.0043,0.0,0.0,1.0801,0.0,1.1169,1.1438,1.1609,1.1683,1.22,1.2826,1.3589,1.4573,1.548,1.6214,1.6857,1.7364,1.7675,1.7947,1.821,1.8481,1.8551,1.8635,1.8804,1.8804,1.8804,0.0,0.0,0.0,0.0,0.0,0.0,0.0,0.0,0.0,0.0,0.0,1.9868,1.9951,2.0704,2.0997,2.1042,2.153,2.1696,2.1696,2.1696,2.1696,2.1696,2.1696,2.1696,2.1696,2.1696,2.1919,2.2287,2.2925,2.395,2.5115,2.6206,2.7188,2.8002,2.8391,2.849,2.849,2.849,2.849,2.849,2.849,2.849,2.849,2.849,2.849,0.0,0.0,0.0,0.0,0.0,0.0,0.0,0.0,0.0,0.0,3.1705,0.0,0.0,0.0,0.0,0.0,3.1705,0.0,0.0,0.0,0.0,3.1705,3.1705,0.0,3.1705,3.1705,3.1705,3.1705,3.1705,3.1705,3.1705,3.1705,3.1705,3.1705,3.1705,3.1705,3.1705,3.1705,3.1705,3.1705,3.1705,3.1705,3.1705,3.1705,0.0,0.0,0.0,0.0,0.0,0.0,1.1169,1.1438,1.1688,1.1932,1.2589,1.334,1.413,1.4908,1.57,1.6487,1.6855,1.7214,1.7675,1.7947,1.821,1.8481,1.8674,1.8781,1.8804,1.8804,1.8804,0.0,0.0,0.0,0.0,0.0,0.0,0.0,0.0,0.0,0.0,1.9533,1.9739,1.9951,2.0704,2.0997,2.1042,2.153,2.1696,2.1696,2.1696,2.1696,2.1696,2.1696,2.1696,2.1696,2.1696,2.2021,2.2463,2.296,2.4079,2.5359,2.6259,2.7188,2.8002,2.8391,2.849,2.849,2.849,2.849,2.849,2.849,2.849,2.849,2.849,2.849,2.849,0.0,0.0,0.0,0.0,0.0,0.0,0.0,0.0,0.0,0.0,3.1705,0.0,0.0,3.1705,0.0,0.0,0.0,0.0,3.1705,0.0,3.1705,3.1705,3.1705,3.1705,3.1705,3.1705,3.1705,3.1705,3.1705,3.1705,3.1705,3.1705,3.1705,3.1705,3.1705,3.1705,3.1705,3.1705,3.1705,3.1705,3.1705,3.1705,3.1705,0.0,0.0,0.0,0.0,0.0,0.0,0.0,1.181,1.2292,1.284,1.3305,1.3932,1.4867,1.5652,1.6298,1.6807,1.7059,1.727,1.7457,1.7714,1.7978,1.8257,1.8496,1.8674,1.8804,1.8804,1.8804,0.0,0.0,0.0,0.0,0.0,0.0,0.0,0.0,1.8943,1.9219,1.9487,1.9808,2.0201,2.0772,2.1096,2.1262,2.1575,2.1696,2.1696,2.1696,2.1696,2.1696,2.1696,2.1696,2.1696,2.1696,2.2021,2.2485,2.296,2.4101,2.539,2.6247,2.7188,2.8002,2.8391,2.849,2.849,2.849,2.849,2.849,2.849,2.849,2.849,2.849,2.849,2.849,0.0,0.0,0.0,0.0,0.0,0.0,0.0,0.0,0.0,0.0,3.1705,3.1705,3.1705,0.0,0.0,0.0,0.0,0.0,3.1705,0.0,3.1705,3.1705,3.1705,3.1705,3.1705,3.1705,3.1705,3.1705,3.1705,3.1705,3.1705,3.1705,3.1705,3.1705,3.1705,3.1705,3.1705,3.1705,3.1705,3.1705,3.1705,3.1705,3.1705,1.0732,0.0,1.0978,0.0,1.1194,1.1292,1.1561,1.2127,1.2802,1.3637,1.4166,1.4765,1.5551,1.6275,1.6831,1.7066,1.7216,1.7302,1.7302,1.7621,1.7908,1.8087,1.8396,0.0,1.8804,1.8804,1.8804,1.8804,1.8804,0.0,0.0,0.0,0.0,0.0,1.892,1.9104,1.9425,1.9617,1.9959,2.045,2.084,2.1172,2.1423,2.1629,2.1696,2.1696,2.1696,2.1696,2.1696,2.1696,2.1696,2.1709,2.1776,2.2087,2.252,2.3135,2.4219,2.5411,2.6353,2.7249,2.8002,2.8391,2.849,2.849,2.849,2.849,2.849,2.849,2.849,2.849,2.849,2.849,2.849,2.849,0.0,0.0,0.0,0.0,0.0,0.0,3.0576,3.1105,3.1657,3.1705,3.1705,0.0,0.0,0.0,0.0,0.0,0.0,0.0,0.0,0.0,3.1705,3.1705,3.1705,3.1705,3.1705,3.1705,3.1705,3.1705,3.1705,3.1705,3.1705,3.1705,3.1705,3.1705,3.1705,3.1705,3.1705,3.1705,3.1705,3.1705,3.1705,3.1705,1.0801,1.0998,1.1194,1.1194,1.1194,1.1292,1.1561,1.2273,1.3171,1.4154,1.5159,1.5872,1.6167,1.6683,1.7066,1.7279,1.7302,1.7302,1.7302,1.78,1.811,0.0,0.0,1.8804,1.8804,1.8804,1.8804,1.8804,0.0,0.0,1.8804,0.0,1.8943,1.9211,1.9211,1.944,1.9882,1.9882,2.0201,2.0722,2.093,2.1172,2.1423,2.1629,2.1696,2.1696,2.1696,2.1696,2.1696,2.1696,2.1696,2.1741,2.2008,2.2252,2.2574,2.3515,2.4455,2.5454,2.6592,2.7394,2.8002,2.8391,2.849,2.849,2.849,2.849,2.849,2.849,2.849,2.849,2.849,2.849,2.849,2.849,0.0,0.0,0.0,0.0,0.0,0.0,3.0576,3.1105,3.1657,3.1705,0.0,0.0,0.0,0.0,0.0,0.0,0.0,3.1705,3.1705,0.0,3.1705,3.1705,3.1705,3.1705,3.1705,3.1705,3.1705,3.1705,3.1705,3.1705,3.1705,3.1705,3.1705,3.1705,3.1705,3.1705,3.1705,3.1705,3.1705,3.1705,3.1705,3.1705,1.1047,1.1145,1.1194,1.1194,1.134,1.1609,1.2078,1.2797,1.3643,1.4723,1.5551,1.6244,1.6706,1.7012,1.7216,0.0,1.7302,1.7302,0.0,1.78,1.811,1.811,1.855,1.8804,1.8804,1.8804,1.8804,1.8804,0.0,0.0,0.0,1.8804,1.8943,1.9211,1.9211,1.9471,1.9905,1.9905,2.0283,2.0907,2.0975,2.123,2.1607,2.1674,2.1696,2.1696,2.1696,2.1696,2.1696,2.1696,2.183,2.2052,2.2451,2.2706,2.3025,2.3842,2.4818,2.5884,2.6837,2.7493,2.8002,2.8391,2.849,2.849,2.849,2.849,2.849,2.849,2.849,2.849,2.849,2.849,2.849,2.849,2.849,0.0,0.0,0.0,0.0,0.0,3.0263,3.0708,3.1621,3.1705,0.0,0.0,0.0,0.0,0.0,0.0,0.0,0.0,3.1705,0.0,3.1705,3.1705,3.1705,3.1705,3.1705,3.1705,3.1705,3.1705,3.1705,3.1705,3.1705,3.1705,3.1705,3.1705,3.1705,3.1705,3.1705,3.1705,3.1705,3.1705,3.1705,3.1705,1.1169,1.1267,1.134,1.134,1.1663,1.2078,1.2589,1.3396,1.428,1.5248,1.6032,1.6652,1.7066,1.7317,0.0,1.7309,1.738,1.745,1.745,1.7947,1.8257,1.8257,1.8596,1.8804,1.8804,1.8804,0.0,1.8804,1.8804,1.8804,1.8804,1.8897,1.9081,1.9356,1.9425,1.9745,2.0201,2.0201,2.0564,2.1141,2.1141,2.1374,2.1696,2.1696,2.1696,2.1696,2.1696,2.1696,2.1696,2.1696,2.1874,2.2207,2.2737,2.3244,2.3777,2.4487,2.5369,2.6321,2.7217,2.7736,2.8091,2.8431,2.849,2.849,2.849,2.849,2.849,2.849,2.849,2.849,2.849,2.849,2.8471,2.8411,2.8391,2.8371,2.8303,0.0,0.0,0.0,0.0,0.0,0.0,3.1705,3.1705,0.0,0.0,0.0,0.0,0.0,0.0,3.1705,3.1705,0.0,3.1705,3.1705,3.1705,3.1705,3.1705,3.1705,3.1705,3.1705,3.1705,3.1705,3.1705,3.1705,3.1705,3.1705,3.1705,3.1705,3.1705,3.1705,3.1705,3.1705,3.1705,3.1705,1.1218,1.1438,1.1634,0.0,1.2122,0.0,1.3147,1.4094,1.5021,1.5754,1.6525,1.7066,1.7309,1.7551,1.7605,1.7372,0.0,0.0,0.0,1.8202,1.8504,1.8504,1.8697,1.8804,1.8804,1.8804,1.8804,1.8804,1.8804,1.8804,1.8804,1.9073,1.9333,1.961,1.9822,2.0224,2.0699,2.0722,2.0979,2.1392,2.1392,2.1526,2.1696,2.1696,2.1696,2.1696,2.1696,2.1709,2.1741,2.1741,2.1909,2.2296,2.296,2.382,2.4691,2.5359,2.603,2.6755,2.7667,2.805,2.8259,2.8451,2.849,2.849,2.849,2.849,2.849,2.849,2.849,2.849,2.849,2.849,2.8431,2.8239,2.8199,2.8111,2.7921,0.0,0.0,0.0,0.0,0.0,0.0,3.1683,3.1705,0.0,0.0,0.0,0.0,0.0,3.1705,3.1705,3.1705,3.1705,3.1705,3.1705,3.1705,3.1705,3.1705,3.1705,3.1705,3.1705,3.1705,3.1705,3.1705,3.1705,3.1705,3.1705,3.1705,3.1705,3.1705,3.1727,3.1761,3.1761,3.1761,3.1761,0.0,0.0,1.2029,1.2443,1.2923,1.3487,1.4208,1.483,1.5534,1.6298,1.676,1.7144,1.7558,1.7651,1.7768,1.79,1.797,1.8017,1.8017,1.8311,1.8504,1.8504,1.8697,1.8804,1.8804,1.8804,1.8804,1.8804,1.8804,1.8804,1.8804,1.9073,1.9333,1.961,2.0027,2.0382,2.0722,2.0871,2.1105,2.1392,2.1392,2.1526,2.1696,2.1696,2.1696,2.1696,2.1696,2.183,2.2008,2.2008,2.2397,2.2982,2.3712,2.4551,2.5359,2.5884,2.6507,2.7185,2.7938,2.8159,2.8259,2.8451,2.849,2.849,2.849,2.849,2.849,2.849,2.849,2.849,2.849,2.8359,2.8259,2.8219,2.807,2.7941,2.7913,2.8357,0.0,0.0,3.0148,3.0823,3.1335,3.1572,3.1705,0.0,0.0,0.0,0.0,3.1705,3.1705,3.1705,3.1705,3.1705,3.1705,3.1705,3.1705,3.1705,3.1705,3.1705,3.1705,3.1705,3.1705,3.1705,3.1705,3.1705,3.1705,3.1705,3.1783,3.1928,3.1928,3.2047,3.2235,3.2235,3.2235,3.2235,1.1883,1.2273,1.2657,1.3214,1.3811,1.4448,1.5099,1.5629,1.6173,1.684,1.7153,1.7464,1.7838,1.7978,1.8125,1.8257,1.828,1.828,1.828,1.852,1.8635,1.8635,1.8743,1.8804,1.8804,1.8804,1.8804,1.8804,1.8804,1.8961,1.926,1.9508,1.9854,2.0317,2.0782,2.1131,2.1399,2.163,2.1869,2.2094,2.2094,2.2044,2.1984,2.1984,2.1941,2.1874,2.1874,2.2119,2.2429,2.2539,2.2947,2.357,2.4402,2.5126,2.5842,2.659,2.7144,2.7635,2.8179,2.8339,2.8359,2.8471,2.849,2.849,2.849,2.849,2.8471,2.8379,2.8359,2.8331,2.8231,2.8131,2.803,2.7886,2.7797,2.7769,2.7912,2.8461,0.0,2.9507,3.0339,3.0975,3.127,3.1528,3.1705,3.1705,3.1705,0.0,3.1705,3.1705,3.1705,3.1705,3.1705,3.1705,3.1705,3.1705,3.1705,3.1705,3.1705,3.1705,3.1705,3.1705,3.1705,3.1705,3.1705,3.1705,3.1717,3.1805,3.1893,3.2016,3.2125,3.2257,3.24,3.24,3.24,3.24,1.2462,1.2972,1.3504,1.4022,1.4789,1.5486,1.5944,1.6447,1.6911,1.7356,1.7621,1.7861,1.8133,1.8357,1.8504,1.8551,1.8551,1.8551,1.8551,1.872,1.8804,1.8804,1.8804,1.8804,1.8804,1.8804,1.8804,1.8804,1.886,1.9206,1.9817,2.0071,2.0545,2.1191,2.1652,2.201,2.2295,2.2532,2.2753,2.2904,2.2904,2.2693,2.2396,2.2442,2.2331,2.2212,2.2323,2.2587,2.2947,2.3222,2.3614,2.4176,2.5073,2.5674,2.6259,2.7246,2.7748,2.8022,2.8391,2.849,2.849,2.849,2.8471,2.8451,2.8451,2.8431,2.8351,2.8179,2.8139,2.8111,2.7921,2.7872,2.7768,2.7542,2.7461,2.7524,2.7887,0.0,2.9114,2.9621,3.0565,3.115,3.1195,3.1461,3.1639,3.1639,3.1683,3.1705,3.1705,3.1705,3.1705,3.1705,3.1705,3.1705,3.1705,3.1705,3.1705,3.1705,3.1705,3.1705,3.1705,3.1705,3.1705,3.1705,3.1705,3.1705,3.1761,3.1928,3.2025,3.2135,3.2366,3.2475,3.2509,3.2509,3.2509,3.2509,1.3227,1.3944,1.4591,1.5075,1.5818,1.6534,1.6998,1.734,1.7651,1.7947,1.8017,1.8141,1.8404,1.8481,1.8566,1.8743,1.8758,1.8758,1.8758,1.8781,1.8804,1.8804,1.8804,1.8804,1.8804,1.8804,1.8804,1.8804,1.9137,1.9477,1.9817,2.0342,2.0891,2.1454,2.1939,2.2295,2.2555,2.2753,2.288,2.2904,2.2904,2.2867,2.2836,2.3075,2.2931,2.2691,2.33,2.3479,2.3472,2.4079,2.4594,2.5105,2.5821,2.6373,2.6891,2.7606,2.799,2.8199,2.8451,2.849,2.849,2.849,2.8371,2.8259,2.8259,2.8111,2.7982,2.7941,2.7941,2.7941,2.7913,2.7696,2.7542,2.7502,2.7208,2.7156,2.7604,0.0,2.8438,2.9135,2.9906,3.0465,3.069,3.1094,3.1373,3.1373,3.1572,3.1705,3.1705,3.1705,3.1705,3.1705,3.1705,3.1705,3.1705,3.1705,3.1705,3.1705,3.1705,3.1705,3.1705,3.1705,3.1705,3.1705,3.1705,3.1805,3.1972,3.1994,3.2223,3.2593,3.2636,3.2788,3.2995,3.2995,3.2995,3.2995,1.4262,1.4973,1.5663,1.6167,1.6793,1.7317,1.7683,1.7831,1.8001,1.8288,1.8311,1.8404,1.8627,1.8651,1.8697,1.8781,1.8804,1.8804,1.8804,1.8804,1.8804,1.8804,1.8804,1.8804,1.8804,1.8804,1.8969,1.9332,1.9524,2.0012,2.0783,2.1046,2.1597,2.2325,2.2693,2.3001,2.3268,2.3496,2.3602,2.3602,2.3602,2.3449,2.3248,2.3525,2.3641,2.3719,2.4189,2.4626,2.5057,2.5366,2.5701,2.6064,2.6565,2.6878,2.7188,2.7869,2.8211,2.8379,2.8471,2.849,2.8471,2.8371,2.8279,2.8179,2.805,2.7962,2.7861,2.7696,2.7595,2.7493,2.7394,2.7179,2.7024,2.7024,2.7066,0.0,0.0,2.8151,2.8611,2.924,2.9852,3.0261,3.0374,3.0937,3.1306,3.1306,3.155,3.1705,3.1705,3.1705,3.1705,3.1705,3.1705,3.1705,3.1705,3.1705,3.1705,3.1705,3.1705,3.1705,3.1705,3.1805,3.1871,3.1871,3.2003,3.2125,3.2213,3.2332,3.2506,3.2711,3.2853,3.2982,3.3102,3.3102,3.3102,3.3102,1.5367,1.6032,1.6669,1.7091,1.7551,1.7962,1.8164,1.8226,1.8342,1.8543,1.8566,1.8635,1.8781,1.8804,1.8804,1.8804,1.8804,1.8804,1.8804,1.8804,1.8804,1.8804,1.8804,1.8804,1.8804,1.8953,1.9276,1.9794,2.0028,2.0636,2.161,2.1694,2.2203,2.3097,2.3297,2.3571,2.3904,2.4102,2.4202,2.4202,2.4202,2.4009,2.3782,2.4096,2.444,2.4766,2.5151,2.5799,2.6495,2.6639,2.6834,2.7101,2.7522,2.7584,2.7656,2.8216,2.8435,2.849,2.849,2.8471,2.8379,2.8239,2.8119,2.7966,2.7788,2.7699,2.7598,2.7339,2.7165,2.7012,2.6871,2.6706,2.6636,2.6728,0.0,0.0,0.0,2.8355,2.8756,2.9338,2.9783,3.0057,3.0125,3.0792,3.1229,3.1229,3.1506,3.1705,3.1705,3.1705,3.1705,3.1705,3.1705,3.1705,3.1705,3.1705,3.1705,3.1705,3.1705,3.1727,3.1771,3.1928,3.2025,3.2103,3.23,3.2431,3.2475,3.2636,3.2745,3.2797,3.3025,3.3102,3.3102,3.3102,3.3102,3.3102,1.644,1.7082,1.7605,1.7628,1.8079,1.8458,1.8458,1.8627,1.8758,1.8789,1.8781,1.8781,1.8804,1.8804,1.8804,1.8804,1.8804,1.8804,1.8804,1.8804,1.8804,1.8804,1.8804,1.8804,1.8804,1.9411,1.9738,1.9794,2.0679,2.1254,2.161,2.1912,2.2534,2.3372,2.3397,2.368,2.4177,2.4202,2.4202,2.4202,2.4202,2.4298,2.4492,2.4992,2.5256,2.5457,2.6414,2.683,2.7039,2.7678,2.8049,2.8354,2.8815,2.8764,2.8563,2.8851,2.8722,2.849,2.849,2.8359,2.8219,2.8199,2.7866,2.7502,2.7287,2.7106,2.6912,2.6706,2.6665,2.6644,2.6612,2.6623,2.6749,2.7178,0.0,0.0,2.822,2.8195,2.8313,2.9038,2.937,2.9657,2.9909,3.059,3.1029,3.1029,3.1429,3.1705,3.1705,3.1705,3.1705,3.1705,3.1705,3.1705,3.1705,3.1705,3.1705,3.1705,3.1705,3.1805,3.1981,3.1981,3.2147,3.2366,3.24,3.2519,3.268,3.2689,3.2853,3.3068,3.3102,3.3102,3.3102,3.3102,3.3102,3.3102,1.7246,1.7776,1.8195,1.8195,1.8473,1.8697,1.8697,1.8758,1.8804,1.8804,1.8804,1.8804,1.8804,1.8804,1.8804,1.8804,1.8804,1.8804,1.8804,1.8804,1.8804,1.8804,1.8966,1.9162,1.9411,1.9783,2.0283,2.0914,2.1262,2.181,2.2463,2.2601,2.3021,2.3655,2.3655,2.3845,2.4202,2.4202,2.4202,2.4202,2.4341,2.4538,2.4833,2.5518,2.6112,2.6618,2.7324,2.7893,2.8315,2.8388,2.8721,2.9116,2.9225,2.9301,2.9379,2.9618,2.9351,2.9003,2.9003,2.861,2.8179,2.805,2.7756,2.7421,2.7085,2.6953,2.683,2.6644,2.6479,2.6443,2.6732,2.6672,2.6753,2.7216,0.0,2.771,2.8094,2.8344,2.8596,2.8874,2.9255,2.9531,2.9634,3.0465,3.1006,3.1006,3.1429,3.1705,3.1705,3.1705,3.1705,3.1705,3.1705,3.1705,3.1705,3.1705,3.1705,3.1705,3.1705,3.1805,3.2016,3.2169,3.2366,3.2593,3.2757,3.2887,3.2939,3.2939,3.3004,3.3102,3.3102,3.3102,3.3102,3.3102,3.3102,3.3102,1.7939,1.8311,1.8589,1.8589,1.872,1.8804,1.8804,1.8804,1.8804,1.8804,1.8804,1.8804,1.8804,1.8804,1.8804,1.8804,1.8804,1.8804,1.8804,1.8874,1.892,1.892,1.927,1.9611,1.9895,2.033,2.0959,2.1716,2.1942,2.242,2.3122,2.3122,2.3381,2.3805,2.3805,2.3954,2.4202,2.4202,2.4202,2.4226,2.4415,2.4711,2.5113,2.5907,2.6668,2.7407,2.8021,2.8676,2.9211,2.9104,2.942,2.9853,2.99,3.0012,3.0135,3.0113,2.9854,2.9544,2.9544,2.9137,2.8566,2.8024,2.7708,2.738,2.6912,2.6913,2.6943,2.6671,2.6583,2.6634,2.6974,2.691,2.6977,2.7435,2.7795,2.8068,2.8221,2.8572,2.8827,2.8896,2.9255,2.9554,2.9715,3.051,3.1017,3.1084,3.1473,3.1705,3.1705,3.1705,3.1705,3.1705,3.1705,3.1705,3.1705,3.1705,3.1705,3.1705,3.1705,3.1849,3.2125,3.2322,3.2562,3.2831,3.3025,3.3102,3.3102,3.3102,3.3102,3.3102,3.3102,3.3102,3.3102,3.3102,3.3102,3.3124,1.8504,1.8651,1.8804,1.8804,1.8804,1.8804,1.8804,1.8804,1.8804,1.8804,1.8804,1.8804,1.8804,1.8804,1.8804,1.8804,1.8804,1.8804,1.8812,1.9058,1.9219,1.9219,1.9793,2.0099,2.0107,2.1101,2.1741,2.201,2.268,2.3147,2.3397,2.3397,2.3555,2.3805,2.3805,2.3954,2.4202,2.4202,2.4202,2.4226,2.4415,2.4833,2.5406,2.6207,2.6976,2.7702,2.8524,2.9094,2.9531,2.9817,3.0216,3.0645,3.0927,3.0961,3.0804,3.0275,3.0119,3.0119,3.0119,2.9962,2.9513,2.8233,2.7719,2.7351,2.6747,2.6975,2.7163,2.6703,2.6977,2.7293,2.7293,2.7315,2.7457,2.7925,2.8002,2.8188,2.8738,2.8803,2.8873,2.9082,2.9324,2.9692,3.0148,3.0691,3.1084,3.1284,3.155,3.1705,3.1705,3.1705,3.1705,3.1705,3.1705,3.1705,3.1705,3.1705,3.1705,3.1705,3.1705,3.1959,3.24,3.24,3.2649,3.3102,3.3102,3.3102,3.3102,3.3102,3.3102,3.3102,3.3102,3.3102,3.3102,3.3102,3.3102,3.3133,1.872,1.8766,1.8804,1.8804,1.8804,1.8804,1.8804,1.8804,1.8804,1.8804,1.8804,1.8804,1.8804,1.8804,1.8804,1.8804,1.8804,1.9008,1.9467,1.9709,2.0026,2.0504,2.0441,2.071,2.1417,2.1916,2.2445,2.2996,2.3185,2.3422,2.3671,2.3671,2.3829,2.4078,2.4078,2.4127,2.4202,2.4202,2.4276,2.444,2.4883,2.5504,2.6231,2.6965,2.7641,2.8231,2.8803,2.9209,2.9531,2.9817,3.0341,3.0938,3.1362,3.1476,3.144,3.1262,3.0949,3.066,3.066,3.0204,2.9593,2.9084,2.8783,2.8445,2.7753,2.7693,2.7675,2.7195,2.7195,2.7391,2.7741,2.7795,2.7959,2.8485,2.8562,2.8616,2.8781,2.8919,2.9035,2.9105,2.9508,2.9897,3.017,3.0691,3.1084,3.1284,3.155,3.1705,3.1705,3.1705,3.1705,3.1705,3.1705,3.1705,3.1705,3.1705,3.1705,3.1705,3.1705,3.1959,3.24,3.24,3.2649,3.3102,3.3102,3.3102,3.3102,3.3102,3.3102,3.3102,3.3102,3.3102,3.3102,3.3102,3.3197,3.3334,1.8804,1.8804,1.8804,1.8804,1.8804,1.8804,1.8804,1.8804,1.8804,1.8804,1.8804,1.8804,1.8804,1.8804,1.8804,1.8804,1.9047,1.9475,2.0123,2.0378,2.075,2.1272,2.1263,2.1532,2.2133,2.2577,2.3042,2.3546,2.3546,2.3696,2.3954,2.3954,2.4053,2.4202,2.4202,2.4202,2.4202,2.4267,2.439,2.4563,2.5323,2.5965,2.6592,2.7441,2.8032,2.8488,2.9058,2.9347,2.9554,3.0023,3.0601,3.1184,3.1584,3.1705,3.1705,3.1705,3.1476,3.118,3.1093,3.0691,3.0247,2.9943,2.9466,2.8874,2.8159,2.8141,2.8143,2.7666,2.7752,2.7971,2.8265,2.8331,2.8441,2.8841,2.8919,2.8966,2.9047,2.9186,2.9312,2.9393,2.9783,3.0148,3.0476,3.0871,3.1206,3.1439,3.1617,3.1705,3.1705,3.1705,3.1705,3.1705,3.1705,3.1705,3.1705,3.1705,3.1705,3.1705,3.1705,3.1959,3.24,3.24,3.2649,3.3102,3.3102,3.3102,3.3102,3.3102,3.3102,3.3102,3.3102,3.3102,3.3124,3.3197,3.3398,3.3717,1.8804,1.8804,1.8804,1.8804,1.8804,1.8804,1.8827,1.885,1.885,1.8874,1.8874,1.8889,1.8913,1.8921,1.8929,1.8969,1.953,2.0132,2.0742,2.1024,2.1329,2.1709,2.2244,2.2539,2.2539,2.312,2.358,2.3854,2.3854,2.3954,2.4202,2.4202,2.4202,2.4202,2.4202,2.4202,2.4202,2.4415,2.4529,2.4701,2.5727,2.6342,2.6736,2.7668,2.822,2.8558,2.9255,2.9508,2.9646,3.0397,3.0915,3.135,3.1617,3.1705,3.1705,3.1705,3.1705,3.1639,3.1373,3.1284,3.1172,3.0713,2.9836,2.8903,2.8272,2.8444,2.8622,2.817,2.8451,2.8803,2.8803,2.8803,2.8873,2.9082,2.9105,2.9197,2.9462,2.9508,2.9634,2.9863,3.0102,3.0431,3.095,3.1206,3.1439,3.1683,3.1705,3.1705,3.1705,3.1705,3.1705,3.1705,3.1705,3.1705,3.1705,3.1705,3.1705,3.1705,3.1705,3.1959,3.24,3.24,3.2649,3.3102,3.3102,3.3102,3.3102,3.3102,3.3102,3.3102,3.3124,3.3133,3.3176,3.3398,3.3802,3.4243,1.8804,1.8804,1.8804,1.8804,1.8804,1.8874,1.9073,1.9119,1.9196,1.9396,1.9427,1.9525,1.9787,1.982,1.9958,2.0253,2.0432,2.075,2.136,2.1663,2.207,2.2657,2.3198,2.3505,2.3505,2.3635,2.3854,2.4102,2.4102,2.4152,2.4202,2.4202,2.4202,2.4202,2.4202,2.4202,2.4202,2.4415,2.4873,2.5499,2.6149,2.6918,2.7715,2.8149,2.8571,2.8989,2.937,2.9634,2.9931,3.0646,3.1095,3.135,3.1617,3.1705,3.1705,3.1705,3.1705,3.1639,3.1373,3.1184,3.0995,3.0679,3.0157,2.9625,2.9262,2.909,2.895,2.8673,2.8727,2.8803,2.8803,2.8803,2.8873,2.9082,2.9105,2.9197,2.9462,2.9691,2.984,2.9886,3.025,3.0634,3.0984,3.1362,3.1639,3.1705,3.1705,3.1705,3.1705,3.1705,3.1705,3.1705,3.1705,3.1705,3.1705,3.1705,3.1705,3.1705,3.1705,3.1959,3.24,3.24,3.2649,3.3102,3.3102,3.3102,3.3102,3.3102,3.3102,3.3124,3.3283,3.3441,3.362,3.4021,3.4481,3.4949,1.9288,1.932,1.9375,1.9502,1.9525,1.962,1.9871,1.9918,1.9973,2.0099,2.0123,2.0189,2.0371,2.0395,2.0592,2.1087,2.1258,2.1581,2.2235,2.2517,2.2828,2.3188,2.3571,2.3805,2.3805,2.3929,2.4053,2.4202,2.4202,2.4251,2.4341,2.4341,2.4341,2.4341,2.4341,2.4341,2.4365,2.4735,2.5274,2.597,2.6726,2.7489,2.8243,2.8594,2.8966,2.9336,2.9588,3.0023,3.0499,3.0983,3.1296,3.1506,3.1661,3.1705,3.1705,3.1705,3.1705,3.1639,3.1373,3.1139,3.0927,3.0679,3.0261,2.9863,2.9714,2.9474,2.9266,2.9174,2.9117,2.9094,2.8966,2.9058,2.9163,2.9255,2.9405,2.9565,2.9806,2.9954,3.0102,3.0216,3.0567,3.0938,3.1296,3.1562,3.1705,3.1705,3.1705,3.1705,3.1705,3.1705,3.1705,3.1705,3.1705,3.1705,3.1705,3.1705,3.1705,3.1705,3.1805,3.2025,3.24,3.2497,3.2757,3.3102,3.3102,3.3102,3.3102,3.3102,3.3154,3.3261,3.3462,3.3747,3.4084,3.4564,3.5202,3.5951,1.9885,1.9965,2.0046,2.033,2.0378,2.0451,2.0741,2.0814,2.0853,2.0878,2.0926,2.0975,2.1042,2.1125,2.1357,2.1866,2.2122,2.2465,2.3029,2.3322,2.3481,2.3481,2.373,2.3879,2.392,2.4152,2.4251,2.4251,2.4251,2.4365,2.4637,2.4637,2.4637,2.4637,2.4637,2.4637,2.4677,2.5201,2.5761,2.638,2.7347,2.8055,2.8581,2.8989,2.9336,2.9611,2.9852,3.0432,3.1084,3.1239,3.1484,3.1705,3.1705,3.1705,3.1705,3.1705,3.1705,3.1639,3.1373,3.1184,3.0972,3.0679,3.0273,2.9954,2.9954,2.9703,2.9508,2.9508,2.9508,2.9439,2.922,2.9347,2.9508,2.9565,2.9783,3.0034,3.0238,3.0306,3.042,3.0634,3.0893,3.1206,3.1673,3.1705,3.1705,3.1705,3.1705,3.1705,3.1705,3.1705,3.1705,3.1705,3.1705,3.1705,3.1705,3.1705,3.1705,3.1705,3.1937,3.2191,3.241,3.2615,3.2853,3.3102,3.3102,3.3124,3.3154,3.3154,3.3304,3.3535,3.3789,3.4176,3.4688,3.5263,3.6071,3.6959,2.0192,2.0257,2.033,2.0596,2.0644,2.0733,2.0998,2.1239,2.1446,2.1629,2.1843,2.2142,2.247,2.2828,2.3065,2.3142,2.3192,2.3244,2.3347,2.3596,2.3755,2.3755,2.4003,2.4217,2.4415,2.444,2.4464,2.4464,2.4464,2.4711,2.5186,2.5186,2.5186,2.5186,2.5186,2.5186,2.5235,2.5761,2.6404,2.7112,2.7961,2.8581,2.9035,2.9324,2.9611,2.9886,3.0091,3.0634,3.1261,3.1284,3.1484,3.1705,3.1705,3.1705,3.1705,3.1705,3.1705,3.1639,3.1373,3.1284,3.115,3.0713,3.0374,3.0148,3.0148,2.9806,2.9508,2.9508,2.9508,2.9485,2.9439,2.9485,2.9588,2.9817,3.0034,3.0238,3.051,3.0758,3.0905,3.0927,3.1139,3.1373,3.1661,3.1705,3.1705,3.1705,3.1705,3.1705,3.1705,3.1705,3.1705,3.1705,3.1705,3.1705,3.1705,3.1705,3.1705,3.1717,3.2147,3.2344,3.241,3.2615,3.2853,3.3102,3.3102,3.3197,3.3356,3.3356,3.3611,3.4034,3.4418,3.4964,3.5649,3.6646,3.7303,3.772,2.1015,2.1081,2.1155,2.1429,2.1602,2.18,2.2096,2.24,2.2588,2.2686,2.2808,2.2944,2.313,2.3299,2.3397,2.3397,2.3646,2.3786,2.3786,2.4192,2.4415,2.4415,2.4523,2.4686,2.4932,2.5094,2.5314,2.5616,2.5314,2.5436,2.5965,2.6125,2.6187,2.6187,2.6187,2.6187,2.6221,2.6572,2.717,2.7904,2.843,2.9,2.9577,2.9794,3.0057,3.0341,3.069,3.1026,3.1328,3.1461,3.1594,3.1705,3.1705,3.1705,3.1705,3.1705,3.1705,3.1661,3.155,3.1417,3.1261,3.1049,3.0814,3.0646,3.0646,3.0488,3.025,2.9943,3.0011,3.0034,2.9783,2.9817,2.992,3.0045,3.0261,3.0521,3.0781,3.0927,3.1039,3.1139,3.1373,3.1572,3.1683,3.1705,3.1705,3.1705,3.1705,3.1705,3.1705,3.1705,3.1705,3.1705,3.1705,3.1705,3.1705,3.1705,3.1761,3.1871,3.2235,3.24,3.241,3.2757,3.2982,3.3124,3.3219,3.3377,3.3577,3.3852,3.4243,3.4701,3.51,3.575,3.6528,3.7341,3.7758,3.7891]},{"header":{"parameterUnit":"m.s-1","parameterCategory":1,"la1":30.6,"la2":28.766,"lo1":-90.7593,"lo2":-88.6598,"dy":0.0162,"dx":0.0183,"nx":116,"ny":114,"refTime":"2023-09-13T12:00:00:Z","depth":0,"parameterNumber":3,"parameterNumberName":"V-component_of_WINDS"},"data":[0.0,0.0,0.0,0.0,0.0,0.0,0.0,0.0,0.0,0.0,0.0,0.0,0.0,0.0,0.0,0.0,0.0,0.0,0.0,0.0,0.0,0.0,0.0,0.0,0.0,0.0,0.0,0.0,0.0,0.0,0.0,0.0,0.0,0.0,0.0,0.0,0.0,0.0,0.0,0.0,0.0,0.0,0.0,0.0,0.0,0.0,0.0,0.0,0.0,0.0,0.0,0.0,0.0,0.0,0.0,0.0,0.0,0.0,0.0,0.0,0.0,0.0,0.0,0.0,0.0,0.0,0.0,0.0,0.0,0.0,0.0,0.0,0.0,0.0,0.0,0.0,0.0,0.0,0.0,0.0,0.0,0.0,0.0,0.0,0.0,0.0,0.0,0.0,0.0,0.0,0.0,0.0,0.0,0.0,0.0,0.0,0.0,0.0,0.0,0.0,0.0,0.0,0.0,0.0,0.0,0.0,0.0,0.0,0.0,0.0,0.0,0.0,0.0,0.0,0.0,0.0,0.0,0.0,0.0,0.0,0.0,0.0,0.0,0.0,0.0,0.0,0.0,0.0,0.0,0.0,0.0,0.0,0.0,0.0,0.0,0.0,0.0,0.0,0.0,0.0,0.0,0.0,0.0,0.0,0.0,0.0,0.0,0.0,0.0,0.0,0.0,0.0,0.0,0.0,0.0,0.0,0.0,0.0,0.0,0.0,0.0,0.0,0.0,0.0,0.0,0.0,0.0,0.0,0.0,0.0,0.0,0.0,0.0,0.0,0.0,0.0,0.0,0.0,0.0,0.0,0.0,0.0,0.0,0.0,0.0,0.0,0.0,0.0,0.0,0.0,0.0,0.0,0.0,0.0,0.0,0.0,0.0,0.0,0.0,0.0,0.0,0.0,0.0,0.0,0.0,0.0,0.0,0.0,0.0,0.0,0.0,0.0,0.0,0.0,0.0,0.0,0.0,0.0,0.0,0.0,0.0,0.0,0.0,0.0,0.0,0.0,0.0,0.0,0.0,0.0,0.0,0.0,0.0,0.0,0.0,0.0,0.0,0.0,0.0,0.0,0.0,0.0,0.0,0.0,0.0,0.0,0.0,0.0,0.0,0.0,0.0,0.0,0.0,0.0,0.0,0.0,0.0,0.0,0.0,0.0,0.0,0.0,0.0,0.0,0.0,0.0,0.0,0.0,0.0,0.0,0.0,0.0,0.0,0.0,0.0,0.0,0.0,0.0,0.0,0.0,0.0,0.0,0.0,0.0,0.0,0.0,0.0,0.0,0.0,0.0,0.0,0.0,0.0,0.0,0.0,0.0,0.0,0.0,0.0,0.0,0.0,0.0,0.0,0.0,0.0,0.0,0.0,0.0,0.0,0.0,0.0,0.0,0.0,0.0,0.0,0.0,0.0,0.0,0.0,0.0,0.0,0.0,0.0,0.0,0.0,0.0,0.0,0.0,0.0,0.0,0.0,0.0,0.0,0.0,0.0,0.0,0.0,0.0,0.0,0.0,0.0,0.0,0.0,0.0,0.0,0.0,0.0,0.0,0.0,0.0,0.0,0.0,0.0,0.0,0.0,0.0,0.0,0.0,0.0,0.0,0.0,0.0,0.0,0.0,0.0,0.0,0.0,0.0,0.0,0.0,0.0,0.0,0.0,0.0,0.0,0.0,0.0,0.0,0.0,0.0,0.0,0.0,0.0,0.0,0.0,0.0,0.0,0.0,0.0,0.0,0.0,0.0,0.0,0.0,0.0,0.0,0.0,0.0,0.0,0.0,0.0,0.0,0.0,0.0,0.0,0.0,0.0,0.0,0.0,0.0,0.0,0.0,0.0,0.0,0.0,0.0,0.0,0.0,0.0,0.0,0.0,0.0,0.0,0.0,0.0,0.0,0.0,0.0,0.0,0.0,0.0,0.0,0.0,0.0,0.0,0.0,0.0,0.0,0.0,0.0,0.0,0.0,0.0,0.0,0.0,0.0,0.0,0.0,0.0,0.0,0.0,0.0,0.0,0.0,0.0,0.0,0.0,0.0,0.0,0.0,0.0,0.0,0.0,0.0,0.0,0.0,0.0,0.0,0.0,0.0,0.0,0.0,0.0,0.0,0.0,0.0,0.0,0.0,0.0,0.0,0.0,0.0,0.0,0.0,0.0,0.0,0.0,0.0,0.0,0.0,0.0,0.0,0.0,0.0,0.0,0.0,0.0,0.0,0.0,0.0,0.0,0.0,0.0,0.0,0.0,0.0,0.0,0.0,0.0,0.0,0.0,0.0,0.0,0.0,0.0,0.0,0.0,0.0,0.0,0.0,0.0,0.0,0.0,0.0,0.0,0.0,0.0,0.0,0.0,0.0,0.0,0.0,0.0,0.0,0.0,0.0,0.0,0.0,0.0,0.0,0.0,0.0,0.0,0.0,0.0,0.0,0.0,0.0,0.0,0.0,0.0,0.0,0.0,0.0,0.0,0.0,0.0,0.0,0.0,0.0,0.0,0.0,0.0,0.0,0.0,0.0,0.0,0.0,0.0,0.0,0.0,0.0,0.0,0.0,0.0,0.0,0.0,0.0,0.0,0.0,0.0,0.0,0.0,0.0,0.0,0.0,0.0,0.0,0.0,0.0,0.0,0.0,0.0,0.0,0.0,0.0,0.0,0.0,0.0,0.0,0.0,0.0,0.0,0.0,0.0,0.0,0.0,0.0,0.0,0.0,0.0,0.0,0.0,0.0,0.0,0.0,0.0,0.0,0.0,0.0,0.0,0.0,0.0,0.0,0.0,0.0,0.0,0.0,0.0,0.0,0.0,0.0,0.0,0.0,0.0,0.0,0.0,0.0,0.0,0.0,0.0,0.0,0.0,0.0,0.0,0.0,0.0,0.0,0.0,0.0,0.0,0.0,0.0,0.0,0.0,0.0,0.0,0.0,0.0,0.0,0.0,0.0,0.0,0.0,0.0,0.0,0.0,0.0,0.0,0.0,0.0,0.0,0.0,0.0,0.0,0.0,0.0,0.0,0.0,0.0,0.0,0.0,0.0,0.0,0.0,0.0,0.0,0.0,0.0,0.0,0.0,0.0,0.0,0.0,0.0,0.0,0.0,0.0,0.0,0.0,0.0,0.0,0.0,0.0,0.0,0.0,0.0,0.0,0.0,0.0,0.0,0.0,0.0,0.0,0.0,0.0,0.0,0.0,0.0,0.0,0.0,0.0,0.0,0.0,0.0,0.0,0.0,0.0,0.0,0.0,0.0,0.0,0.0,0.0,0.0,0.0,0.0,0.0,0.0,0.0,0.0,0.0,0.0,0.0,0.0,0.0,0.0,0.0,0.0,0.0,0.0,0.0,0.0,0.0,0.0,0.0,0.0,0.0,0.0,0.0,0.0,0.0,0.0,0.0,0.0,0.0,0.0,0.0,0.0,0.0,0.0,0.0,0.0,0.0,0.0,0.0,0.0,0.0,0.0,0.0,0.0,0.0,0.0,0.0,0.0,0.0,0.0,0.0,0.0,0.0,0.0,0.0,0.0,0.0,0.0,0.0,0.0,0.0,0.0,0.0,0.0,0.0,0.0,0.0,0.0,0.0,0.0,0.0,0.0,0.0,0.0,0.0,0.0,0.0,0.0,0.0,0.0,0.0,0.0,0.0,0.0,0.0,0.0,0.0,0.0,0.0,0.0,0.0,0.0,0.0,0.0,0.0,0.0,0.0,0.0,0.0,0.0,0.0,0.0,0.0,0.0,0.0,0.0,0.0,0.0,0.0,0.0,0.0,0.0,0.0,0.0,0.0,0.0,0.0,0.0,0.0,0.0,0.0,0.0,0.0,0.0,0.0,0.0,0.0,0.0,0.0,0.0,0.0,0.0,0.0,0.0,0.0,0.0,0.0,0.0,0.0,0.0,0.0,0.0,0.0,0.0,0.0,0.0,0.0,0.0,0.0,0.0,0.0,0.0,0.0,0.0,0.0,0.0,0.0,0.0,0.0,0.0,0.0,0.0,0.0,0.0,0.0,0.0,0.0,0.0,0.0,0.0,0.0,0.0,0.0,0.0,0.0,0.0,0.0,0.0,0.0,0.0,0.0,0.0,0.0,0.0,0.0,0.0,0.0,0.0,0.0,0.0,0.0,0.0,0.0,0.0,0.0,0.0,0.0,0.0,0.0,0.0,0.0,0.0,0.0,0.0,0.0,0.0,0.0,0.0,0.0,0.0,0.0,0.0,0.0,0.0,0.0,0.0,0.0,0.0,0.0,0.0,0.0,0.0,0.0,0.0,0.0,0.0,0.0,0.0,0.0,0.0,0.0,0.0,0.0,0.0,0.0,0.0,0.0,0.0,0.0,0.0,0.0,0.0,0.0,0.0,0.0,0.0,0.0,0.0,0.0,0.0,0.0,0.0,0.0,0.0,0.0,0.0,0.0,0.0,0.0,0.0,0.0,0.0,0.0,0.0,0.0,0.0,0.0,0.0,0.0,0.0,0.0,0.0,0.0,0.0,0.0,0.0,0.0,0.0,0.0,0.0,0.0,0.0,0.0,0.0,0.0,0.0,0.0,0.0,0.0,0.0,0.0,0.0,0.0,0.0,0.0,0.0,0.0,0.0,0.0,0.0,0.0,0.0,0.0,0.0,0.0,0.0,0.0,0.0,0.0,0.0,0.0,0.0,0.0,0.0,0.0,0.0,0.0,0.0,0.0,0.0,0.0,0.0,0.0,0.0,0.0,0.0,0.0,0.0,0.0,0.0,0.0,0.0,0.0,0.0,0.0,0.0,0.0,0.0,0.0,0.0,0.0,0.0,0.0,0.0,0.0,0.0,0.0,0.0,0.0,0.0,0.0,0.0,0.0,0.0,0.0,0.0,0.0,0.0,0.0,0.0,0.0,0.0,0.0,0.0,0.0,0.0,0.0,0.0,0.0,0.0,0.0,0.0,0.0,0.0,0.0,0.0,0.0,0.0,0.0,0.0,0.0,0.0,0.0,0.0,0.0,0.0,0.0,0.0,0.0,0.0,0.0,0.0,0.0,0.0,0.0,0.0,0.0,0.0,0.0,0.0,0.0,0.0,0.0,0.0,0.0,0.0,0.0,0.0,0.0,0.0,0.0,0.0,0.0,0.0,0.0,0.0,0.0,0.0,0.0,0.0,0.0,0.0,0.0,0.0,0.0,0.0,0.0,0.0,0.0,0.0,0.0,0.0,0.0,0.0,0.0,0.0,0.0,0.0,0.0,0.0,0.0,0.0,0.0,0.0,0.0,0.0,0.0,0.0,0.0,0.0,0.0,0.0,0.0,0.0,0.0,0.0,0.0,0.0,0.0,0.0,0.0,0.0,0.0,0.0,0.0,0.0,0.0,0.0,0.0,0.0,0.0,0.0,0.0,0.0,0.0,0.0,0.0,0.0,0.0,0.0,0.0,0.0,0.0,0.0,0.0,0.0,0.0,0.0,0.0,0.0,0.0,0.0,0.0,0.0,0.0,0.0,0.0,0.0,0.0,0.0,0.0,0.0,0.0,0.0,0.0,0.0,0.0,0.0,0.0,0.0,0.0,0.0,0.0,0.0,0.0,0.0,0.0,0.0,0.0,0.0,0.0,0.0,0.0,0.0,0.0,0.0,0.0,0.0,0.0,0.0,0.0,0.0,0.0,0.0,0.0,0.0,0.0,0.0,0.0,0.0,0.0,0.0,0.0,0.0,0.0,0.0,0.0,0.0,0.0,0.0,0.0,0.0,0.0,0.0,0.0,0.0,0.0,0.0,0.0,0.0,0.0,0.0,0.0,0.0,0.0,0.0,0.0,0.0,0.0,0.0,0.0,0.0,0.0,0.0,0.0,0.0,0.0,0.0,0.0,0.0,0.0,0.0,0.0,0.0,0.0,0.0,0.0,0.0,0.0,0.0,0.0,0.0,0.0,0.0,0.0,0.0,0.0,0.0,0.0,0.0,0.0,0.0,0.0,0.0,0.0,0.0,0.0,0.0,0.0,0.0,0.0,0.0,0.0,0.0,0.0,0.0,0.0,0.0,0.0,0.0,0.0,0.0,0.0,0.0,0.0,0.0,0.0,0.0,0.0,0.0,0.0,0.0,0.0,0.0,0.0,0.0,0.0,0.0,0.0,0.0,0.0,0.0,0.0,4.1104,0.0,0.0,0.0,0.0,0.0,0.0,0.0,0.0,0.0,0.0,0.0,0.0,0.0,0.0,0.0,0.0,0.0,0.0,0.0,0.0,0.0,0.0,0.0,0.0,0.0,0.0,0.0,0.0,0.0,0.0,0.0,0.0,0.0,0.0,0.0,0.0,0.0,0.0,0.0,0.0,0.0,0.0,0.0,0.0,0.0,0.0,0.0,0.0,0.0,0.0,0.0,0.0,0.0,0.0,0.0,0.0,0.0,0.0,0.0,0.0,0.0,0.0,0.0,0.0,0.0,0.0,0.0,0.0,0.0,0.0,0.0,0.0,0.0,0.0,0.0,0.0,0.0,0.0,0.0,0.0,0.0,0.0,0.0,0.0,0.0,0.0,0.0,0.0,0.0,0.0,0.0,0.0,0.0,0.0,0.0,0.0,0.0,0.0,0.0,0.0,0.0,0.0,0.0,0.0,0.0,0.0,0.0,0.0,0.0,0.0,0.0,0.0,0.0,0.0,0.0,0.0,4.111,0.0,0.0,0.0,0.0,0.0,0.0,0.0,0.0,0.0,0.0,0.0,0.0,0.0,0.0,0.0,0.0,0.0,0.0,0.0,0.0,0.0,0.0,0.0,0.0,0.0,0.0,0.0,0.0,0.0,0.0,0.0,0.0,0.0,0.0,0.0,0.0,0.0,0.0,0.0,0.0,0.0,0.0,0.0,0.0,0.0,0.0,0.0,0.0,0.0,0.0,0.0,0.0,0.0,0.0,0.0,0.0,0.0,0.0,0.0,0.0,0.0,0.0,0.0,0.0,0.0,0.0,0.0,0.0,0.0,0.0,0.0,0.0,0.0,0.0,0.0,0.0,0.0,0.0,0.0,0.0,0.0,0.0,0.0,0.0,0.0,0.0,0.0,0.0,0.0,0.0,0.0,0.0,0.0,0.0,0.0,0.0,0.0,0.0,0.0,0.0,0.0,0.0,0.0,0.0,0.0,0.0,0.0,0.0,4.1092,4.1094,4.1093,4.1107,4.1101,4.1098,4.1102,4.1105,4.1109,4.11,0.0,0.0,0.0,0.0,0.0,0.0,0.0,0.0,0.0,0.0,0.0,0.0,0.0,0.0,0.0,0.0,0.0,0.0,0.0,0.0,0.0,0.0,0.0,0.0,0.0,0.0,0.0,0.0,0.0,0.0,0.0,0.0,0.0,0.0,0.0,0.0,0.0,0.0,4.1008,4.1005,4.0997,4.0968,4.0909,0.0,0.0,0.0,0.0,0.0,0.0,0.0,0.0,0.0,0.0,0.0,0.0,0.0,0.0,0.0,0.0,0.0,0.0,0.0,0.0,0.0,0.0,0.0,0.0,0.0,0.0,0.0,0.0,0.0,0.0,0.0,0.0,0.0,0.0,0.0,0.0,0.0,0.0,0.0,0.0,0.0,0.0,0.0,4.1093,4.1108,0.0,0.0,0.0,0.0,0.0,0.0,0.0,0.0,0.0,0.0,0.0,0.0,0.0,4.1095,4.1091,4.1105,4.1099,4.1094,4.11,4.1105,4.111,4.1094,4.1091,4.1098,4.1102,0.0,4.1098,4.1096,0.0,0.0,0.0,0.0,0.0,0.0,0.0,0.0,0.0,0.0,0.0,0.0,0.0,0.0,0.0,0.0,0.0,0.0,0.0,0.0,0.0,0.0,0.0,0.0,0.0,0.0,0.0,0.0,0.0,0.0,0.0,0.0,0.0,0.0,0.0,0.0,4.1007,4.0999,4.1003,4.1009,4.1021,4.1041,4.1036,4.0983,4.0961,4.0965,0.0,0.0,0.0,0.0,0.0,0.0,0.0,0.0,0.0,0.0,0.0,0.0,0.0,0.0,0.0,0.0,0.0,0.0,0.0,0.0,0.0,0.0,0.0,0.0,0.0,0.0,0.0,0.0,0.0,0.0,0.0,0.0,0.0,0.0,0.0,0.0,0.0,0.0,0.0,4.1113,4.1109,4.1107,4.1098,4.1104,0.0,0.0,0.0,0.0,0.0,0.0,0.0,0.0,0.0,4.1056,4.1082,4.1092,4.1105,4.1091,4.1104,4.1101,4.1103,4.1127,4.1151,4.1113,4.1107,4.1093,4.1094,4.1085,4.105,4.1079,4.1107,4.1096,0.0,0.0,0.0,0.0,4.0974,4.0941,0.0,0.0,0.0,0.0,0.0,0.0,0.0,0.0,0.0,0.0,0.0,0.0,0.0,0.0,0.0,4.1092,0.0,0.0,0.0,0.0,0.0,0.0,0.0,0.0,0.0,0.0,0.0,4.1021,4.1009,4.1005,4.0995,4.1015,4.104,4.1097,4.1094,4.1064,4.1032,4.1023,4.1029,0.0,0.0,0.0,0.0,0.0,0.0,0.0,0.0,0.0,0.0,0.0,0.0,0.0,0.0,0.0,0.0,0.0,0.0,0.0,0.0,0.0,0.0,0.0,0.0,0.0,0.0,0.0,0.0,0.0,0.0,0.0,0.0,0.0,0.0,0.0,0.0,0.0,0.0,4.1131,4.1107,4.1107,4.1098,4.1105,0.0,0.0,0.0,0.0,0.0,0.0,4.1024,4.1074,4.1106,4.1098,4.1098,4.1105,4.1097,4.1097,4.1109,4.1105,4.1107,4.113,4.1172,4.1129,4.1099,4.1061,4.1076,4.1042,4.1001,4.1057,4.107,4.1078,4.1078,4.1057,4.1031,4.0992,4.0933,4.0904,0.0,0.0,0.0,0.0,0.0,0.0,0.0,0.0,0.0,0.0,0.0,0.0,0.0,0.0,4.1096,4.1106,4.1108,4.1095,0.0,0.0,0.0,0.0,0.0,0.0,0.0,0.0,0.0,4.1094,4.1036,4.1008,4.099,4.108,4.1106,4.1095,4.1107,4.1098,4.1088,4.1086,4.1086,4.1089,0.0,0.0,0.0,0.0,0.0,0.0,0.0,0.0,0.0,0.0,0.0,0.0,0.0,0.0,0.0,0.0,0.0,0.0,0.0,0.0,0.0,0.0,0.0,0.0,0.0,0.0,0.0,0.0,0.0,0.0,0.0,0.0,0.0,0.0,0.0,0.0,0.0,0.0,0.0,4.1107,4.1098,0.0,0.0,0.0,0.0,4.1092,4.1091,4.1091,4.1091,4.1092,4.1099,4.1093,4.1093,4.1098,4.1108,4.1108,4.1093,4.1099,4.1105,4.1091,4.1094,4.1107,4.1067,4.1015,4.1007,4.0993,4.0998,4.1001,4.1018,4.1019,4.1019,4.097,4.0911,4.0904,4.0896,4.088,0.0,0.0,0.0,0.0,0.0,0.0,0.0,0.0,0.0,0.0,0.0,0.0,0.0,4.1104,4.1105,4.1108,4.1109,4.1093,4.1101,0.0,0.0,0.0,0.0,0.0,0.0,0.0,4.1101,4.1094,4.1081,4.1059,4.1048,4.0514,4.0261,4.0254,4.0256,4.0264,4.0296,4.0824,4.1057,4.1107,4.1094,4.1107,0.0,0.0,0.0,0.0,0.0,0.0,0.0,0.0,0.0,0.0,0.0,0.0,0.0,0.0,0.0,0.0,0.0,0.0,0.0,0.0,0.0,0.0,0.0,0.0,0.0,0.0,0.0,0.0,0.0,0.0,0.0,0.0,0.0,0.0,0.0,0.0,0.0,4.109,4.1103,0.0,4.1091,4.1101,4.1092,4.1107,4.1098,4.1097,4.1106,4.1106,4.1093,4.1104,4.1104,4.1105,4.1109,4.1093,4.1101,4.1108,4.1093,4.1092,4.1103,4.1104,4.1059,4.1007,4.1007,4.0995,4.0997,4.095,4.0958,4.0994,4.0943,4.0924,4.09,4.0891,4.087,4.0826,0.0,0.0,0.0,0.0,0.0,0.0,0.0,0.0,0.0,0.0,0.0,4.3032,4.1299,4.1104,4.1105,4.1108,4.1109,4.1092,4.1098,0.0,0.0,0.0,0.0,0.0,0.0,4.1097,4.109,4.1104,4.0805,4.0668,4.0635,3.9764,3.9375,3.939,3.937,3.9358,3.9408,3.9932,4.0511,4.1061,4.1066,4.1082,4.1105,0.0,0.0,0.0,0.0,0.0,0.0,0.0,0.0,0.0,0.0,0.0,0.0,0.0,0.0,0.0,0.0,0.0,0.0,0.0,0.0,0.0,0.0,0.0,0.0,0.0,0.0,0.0,0.0,0.0,0.0,0.0,0.0,0.0,0.0,0.0,4.1092,4.1092,4.1107,4.1102,4.1102,4.1094,4.1107,4.1104,4.1096,4.1095,4.1098,4.1102,4.1106,4.1093,4.1095,4.1097,4.1097,4.11,4.1107,4.1093,4.1093,4.1103,4.1098,4.1085,4.1028,4.0954,4.0949,4.0939,4.0929,4.0871,4.0883,4.093,4.0876,4.0874,4.0863,4.0864,4.0845,4.084,0.0,0.0,0.0,0.0,0.0,0.0,0.0,0.0,0.0,0.0,4.3708,4.303,4.1286,4.1093,4.1096,4.1107,4.1108,4.1091,4.1097,4.1098,0.0,0.0,0.0,0.0,4.1099,4.1098,4.1091,4.1055,4.0216,3.9786,3.9744,3.8879,3.8493,3.8551,3.8492,3.8458,3.8464,3.8471,3.9447,4.0967,4.0964,4.1001,4.11,0.0,0.0,0.0,0.0,0.0,0.0,0.0,0.0,0.0,0.0,0.0,0.0,0.0,0.0,0.0,0.0,0.0,0.0,0.0,0.0,0.0,0.0,0.0,0.0,0.0,0.0,0.0,0.0,0.0,0.0,0.0,0.0,0.0,4.1191,4.1132,4.1092,4.1092,4.1109,4.1107,4.1107,4.1107,4.1105,4.1099,4.1099,4.1097,4.109,4.1096,4.1099,4.1099,4.1105,4.1107,4.1108,4.1108,4.1091,4.1094,4.109,4.1093,4.1089,4.1027,4.0969,4.0883,4.0831,4.0807,4.0807,4.0807,4.0807,4.0807,4.0807,4.0807,4.0797,4.0794,4.0818,4.0948,0.0,0.0,0.0,0.0,0.0,0.0,0.0,0.0,0.0,0.0,4.3638,4.2953,4.1227,4.1061,4.1108,4.1093,4.11,4.1106,4.1108,0.0,0.0,0.0,0.0,0.0,4.1092,4.1105,4.0787,4.0158,3.9918,3.9486,3.8842,3.7966,3.7577,3.7577,3.7578,3.7539,3.7515,3.8118,3.8997,3.9986,4.0038,4.0459,4.1028,0.0,0.0,0.0,0.0,0.0,0.0,0.0,0.0,0.0,0.0,0.0,0.0,0.0,0.0,0.0,0.0,0.0,0.0,0.0,0.0,0.0,0.0,0.0,0.0,0.0,0.0,0.0,0.0,0.0,0.0,0.0,0.0,4.1132,4.1191,4.1172,4.1172,4.1172,4.1131,4.1091,4.1091,4.1109,4.1107,4.1105,4.1105,4.1105,4.1103,4.1105,4.1107,4.1109,4.109,4.1092,4.1093,4.1093,4.1109,4.11,4.1059,4.0998,4.0949,4.0948,4.0881,4.0831,4.0815,4.0807,4.0807,4.0801,4.0792,4.0792,4.0792,4.0806,4.0794,4.0793,4.1171,4.1795,0.0,0.0,0.0,0.0,0.0,0.0,0.0,0.0,0.0,0.0,4.374,4.2992,4.161,4.1184,4.1027,4.1016,4.1037,4.1068,4.1068,0.0,0.0,0.0,0.0,4.1028,4.1028,4.1014,4.0595,3.9712,3.9348,3.8738,3.7842,3.6982,3.6574,3.6579,3.657,3.6547,3.6546,3.7007,3.7715,3.8535,3.8927,3.9825,4.0955,4.0954,4.0998,4.1055,4.1053,4.1088,4.1094,4.1093,0.0,0.0,0.0,0.0,0.0,0.0,0.0,0.0,0.0,0.0,0.0,0.0,0.0,0.0,0.0,0.0,0.0,0.0,0.0,0.0,0.0,0.0,0.0,0.0,4.1107,4.1108,4.1148,4.1171,4.1191,4.1191,4.1133,4.1094,4.1094,4.1094,4.1093,4.1093,4.1093,4.1093,4.1092,4.1093,4.1094,4.1093,4.1091,4.1089,4.1064,4.1057,4.1066,4.1052,4.1018,4.0951,4.0907,4.0878,4.0831,4.0807,4.0795,4.079,4.0809,4.0808,4.0992,0.0,0.0,0.0,0.0,0.0,4.2307,4.3063,0.0,0.0,0.0,0.0,0.0,0.0,0.0,0.0,0.0,0.0,0.0,4.3131,4.2169,4.1423,4.0968,4.0858,4.0923,4.097,0.0,0.0,0.0,4.0878,4.0876,4.0874,4.0874,4.0874,4.0446,3.957,3.8692,3.7824,3.6966,3.6091,3.5674,3.5674,3.5691,3.5687,3.5684,3.568,3.6176,3.7052,3.7865,3.9217,4.0769,4.085,4.0942,4.0989,4.0999,4.1048,4.1087,4.1093,0.0,0.0,0.0,0.0,0.0,0.0,0.0,0.0,0.0,0.0,0.0,0.0,0.0,0.0,0.0,0.0,0.0,0.0,0.0,0.0,0.0,0.0,0.0,0.0,4.1308,4.1266,4.1356,4.1339,4.1288,4.1191,4.1131,4.1109,4.1109,4.1087,4.1086,4.1089,4.1089,4.1091,4.1093,0.0,0.0,0.0,0.0,4.1061,4.0987,4.0986,4.0998,4.0985,4.0992,4.0953,4.0887,4.0814,4.0779,4.0779,4.0774,4.0823,4.0916,4.0916,4.14,4.2054,4.1345,4.1519,4.2225,4.3038,4.3789,4.4407,0.0,0.0,0.0,0.0,0.0,0.0,0.0,0.0,0.0,4.4576,4.4262,4.3557,4.2022,4.1723,4.1341,4.0643,4.0687,4.0784,0.0,0.0,4.0749,4.0743,4.0743,4.0731,4.0731,4.0699,4.0233,3.9356,3.8536,3.7687,3.6828,3.5945,3.5546,3.5532,3.5538,3.5543,3.5537,3.555,3.6032,3.6903,3.7778,3.881,3.9922,4.0626,4.0912,4.0932,4.097,4.1007,4.1028,4.1086,4.1093,4.1091,4.1108,0.0,0.0,0.0,0.0,0.0,0.0,0.0,0.0,0.0,0.0,0.0,0.0,0.0,0.0,0.0,0.0,0.0,0.0,0.0,0.0,4.3014,4.2529,4.2298,4.2934,4.2487,4.185,4.1193,4.111,4.1104,4.1104,4.1056,4.101,4.1013,4.1013,4.1014,4.1016,4.1013,4.102,4.1016,4.1028,4.0992,4.0919,4.0926,4.0927,4.0922,0.0,0.0,4.0742,4.0724,4.0681,4.0641,4.0635,4.1033,4.1682,4.1682,4.2184,4.296,4.2799,4.283,4.3072,4.3871,4.4268,4.4502,0.0,0.0,0.0,0.0,0.0,0.0,0.0,0.0,0.0,0.0,4.4459,4.3698,4.2387,4.188,4.1314,4.0476,4.0492,0.0,0.0,4.0575,4.0539,4.0501,4.0506,4.0495,4.0495,4.0469,4.0023,3.9154,3.875,3.7905,3.663,3.6174,3.5725,3.5307,3.5266,3.5281,3.53,3.53,3.5591,3.6153,3.7462,3.832,3.8942,4.0258,4.0775,4.0812,4.0883,4.0929,4.0964,4.1031,4.1061,4.1093,4.1094,4.1112,4.1132,0.0,0.0,0.0,0.0,0.0,0.0,0.0,0.0,0.0,0.0,0.0,0.0,0.0,0.0,4.3631,0.0,0.0,4.3078,4.3436,4.3121,4.2981,4.3343,4.3056,4.2502,4.1731,4.1303,4.1041,4.1006,4.0971,4.0937,4.0907,4.0907,4.0907,4.0907,4.0896,4.0896,4.0904,4.0891,4.0866,4.0791,4.0797,4.0804,4.0807,4.0792,4.0754,4.0707,4.1113,4.1275,4.1279,4.1703,4.2147,4.2583,4.2988,4.3401,4.3848,4.428,4.4176,4.3902,4.4738,4.5023,4.5062,0.0,0.0,0.0,0.0,0.0,0.0,0.0,0.0,0.0,0.0,4.4656,4.3885,4.2961,4.2152,4.127,0.0,0.0,0.0,0.0,4.0302,4.0281,4.0226,4.0208,4.018,4.018,4.0172,3.9843,3.9146,3.8975,3.819,3.6866,3.6629,3.6078,3.5241,3.5186,3.5096,3.5003,3.5207,3.534,3.5611,3.7375,3.8127,3.8366,3.9964,4.0604,4.0697,4.0764,4.0826,4.0887,4.0968,4.1043,4.1095,4.1107,4.1131,4.1171,4.111,4.1091,0.0,0.0,0.0,0.0,0.0,0.0,0.0,0.0,0.0,4.3914,4.3851,4.3968,4.4043,4.4008,4.3843,4.3745,4.3873,4.3735,4.3651,4.3772,4.3647,4.3316,4.2708,4.178,4.1173,4.1118,4.0962,4.0844,4.0781,4.0779,4.0779,4.0779,4.0775,4.079,4.0782,4.0775,4.0745,4.0678,4.0678,4.0771,4.0926,4.0932,4.1012,4.1198,4.1838,4.2124,4.2175,4.3046,4.3412,4.3489,4.4287,4.461,4.4677,4.537,4.5216,4.4696,4.541,4.5644,4.5594,0.0,0.0,0.0,0.0,0.0,0.0,0.0,0.0,0.0,0.0,0.0,0.0,0.0,0.0,0.0,0.0,0.0,0.0,4.0033,3.9986,3.9948,3.9942,3.9821,3.9766,3.9766,3.9773,3.9717,3.9617,3.8857,3.8368,3.8174,3.7383,3.6589,3.5803,3.5735,3.5326,3.4711,3.5548,3.594,3.6169,3.7971,3.878,3.8998,4.0036,4.0492,4.0628,4.0697,4.0743,4.0832,4.0968,4.1048,4.1105,4.1107,4.1117,4.1101,4.1101,0.0,4.1108,4.1107,4.1671,0.0,4.2244,4.292,4.3533,0.0,0.0,4.4759,4.4681,4.5228,4.5738,4.5728,4.5035,4.4737,4.5506,4.4924,4.4643,4.5416,4.4849,4.432,4.4174,4.2805,4.1889,4.1883,4.1185,4.0721,4.0718,4.0718,4.0718,4.0718,4.0715,4.0716,4.0717,4.071,4.0674,4.0605,4.0605,4.1007,4.1768,4.1764,4.2132,4.2838,4.2927,4.2965,4.3001,4.3809,4.4179,4.4233,4.5059,4.5383,4.5374,4.5428,4.5419,4.5407,4.5547,4.5618,4.5594,0.0,0.0,0.0,0.0,0.0,0.0,0.0,0.0,0.0,0.0,0.0,0.0,0.0,0.0,0.0,0.0,0.0,0.0,3.9597,3.9532,3.9496,3.9496,3.9364,3.9294,3.9294,3.9294,3.9294,3.9294,3.8926,3.8502,3.8047,3.7603,3.6937,3.6136,3.6061,3.5882,3.5628,3.6087,3.6358,3.6563,3.7879,3.8501,3.8755,3.9776,4.0261,4.0382,4.0571,4.0672,0.0,0.0,4.0927,4.0989,4.1022,4.104,4.1051,4.1095,4.1099,0.0,4.1728,0.0,0.0,0.0,4.3747,4.4377,4.4311,4.4933,4.5514,4.5449,4.5717,4.5926,4.5893,4.5553,4.5392,0.0,4.5445,4.5317,4.564,4.5366,4.5123,4.5106,4.4068,4.3142,4.2684,4.2307,4.2096,4.2093,4.1627,4.1338,4.1338,4.0859,4.0814,4.1312,4.135,4.1543,4.1982,4.2001,4.2146,4.2409,4.2409,4.2579,4.2884,4.3387,4.3895,4.4399,4.4744,4.4878,4.4916,4.5241,4.5385,4.5385,4.5341,4.5365,4.5395,4.5457,4.5508,4.5541,0.0,0.0,0.0,0.0,0.0,0.0,0.0,0.0,0.0,0.0,0.0,0.0,0.0,0.0,0.0,0.0,0.0,0.0,0.0,3.9022,3.8952,3.8952,3.8821,3.8752,3.8752,3.8752,3.8752,3.8752,3.8752,3.8456,3.7903,3.7798,3.7298,3.6483,3.6443,3.6322,3.6196,3.6553,3.6789,3.6973,3.7969,3.8453,3.8722,3.9586,3.9989,4.0134,4.044,4.0591,0.0,0.0,4.0792,4.087,4.0914,4.0965,4.0986,4.1036,4.1219,4.1538,4.2163,0.0,0.0,4.3798,4.4568,4.5194,4.5111,4.5546,4.5953,4.5886,4.586,4.5835,4.5785,4.5766,4.5734,4.5673,4.5661,4.5652,4.5618,4.5594,4.5594,4.5594,4.5032,4.4429,4.3842,4.3365,4.3103,4.3109,4.2523,4.2154,4.2137,4.153,4.1461,4.2061,4.2081,4.2343,4.2912,4.2894,4.2962,4.3095,4.308,4.3189,4.3377,4.4017,4.4627,4.5189,4.5189,4.5184,4.5167,4.5151,4.5121,4.5121,4.5123,4.5129,4.5132,4.5178,4.5301,4.5405,0.0,0.0,0.0,0.0,0.0,0.0,0.0,0.0,0.0,0.0,0.0,0.0,0.0,0.0,0.0,0.0,0.0,0.0,0.0,3.8475,3.8334,3.8334,3.8208,3.8135,3.8135,3.8135,3.8135,3.8135,3.8135,3.815,3.8188,3.8124,3.7688,3.6988,3.6983,3.6539,3.5882,3.686,3.7322,3.7474,3.8547,3.9052,3.9203,3.9574,3.9747,3.9856,4.0251,0.0,0.0,4.0589,4.0652,4.0715,4.0779,4.0854,0.0,4.0914,4.1507,4.2176,0.0,0.0,4.4723,4.4756,4.5378,4.5952,4.5871,4.589,4.5883,4.5829,4.5742,4.5719,4.5694,4.5648,4.5618,4.5594,4.5594,4.5594,4.5594,4.5594,4.5594,4.5594,4.5575,4.5556,0.0,4.4051,4.3104,4.3104,4.3085,4.3026,4.2979,4.2936,4.2873,4.2766,4.2766,4.2757,4.2703,4.2642,4.304,4.3865,4.3806,4.4203,4.5032,4.5051,4.5017,4.4902,4.4902,4.4885,4.48,4.4758,4.4726,4.472,4.4713,4.4726,4.472,4.4719,4.4925,4.5197,0.0,0.0,0.0,0.0,0.0,0.0,0.0,0.0,0.0,0.0,0.0,0.0,0.0,0.0,0.0,0.0,0.0,0.0,0.0,3.8759,3.8464,3.7941,3.7827,3.7766,3.7766,3.7685,3.7632,3.7632,3.7496,3.7468,3.7533,3.7386,3.7216,3.7076,3.7067,3.697,3.6827,3.7307,3.7596,3.7784,3.8315,3.8618,3.8763,3.9098,3.9338,3.9513,0.0,0.0,0.0,4.0465,4.0519,4.0563,4.0589,4.062,4.0765,4.1386,4.1774,4.2249,4.3412,0.0,4.473,4.526,4.5596,4.5785,4.5726,4.5696,4.5687,4.561,4.5558,4.5512,4.5568,4.5555,4.5527,4.5527,4.5527,4.5513,4.5462,4.5476,4.5476,4.5476,4.5476,0.0,0.0,0.0,0.0,4.4696,4.4165,4.3794,4.3723,4.3177,4.3073,4.3517,4.3495,4.3697,4.4154,4.4004,4.4027,4.4234,4.4111,4.4226,4.4496,4.4496,4.4483,4.4443,4.4443,4.443,4.4402,4.4374,4.4367,4.436,4.4376,4.4365,4.436,4.4376,4.4419,4.4483,0.0,0.0,0.0,0.0,0.0,0.0,0.0,0.0,0.0,0.0,0.0,0.0,0.0,0.0,0.0,0.0,0.0,0.0,0.0,0.0,3.8644,3.7761,3.7657,3.7439,3.7071,3.6986,3.6919,3.6862,3.6731,3.6711,3.6801,3.6671,3.6671,3.6789,3.6828,3.6895,3.6992,3.7234,3.7449,3.7631,3.795,3.8163,3.8318,3.8676,3.8942,0.0,0.0,0.0,4.0163,4.0286,4.0351,4.0408,4.0442,4.045,4.065,4.1581,4.2077,4.2616,4.4044,4.4665,4.5013,4.553,4.5649,4.5625,4.5567,4.5558,4.5513,4.5462,4.5429,4.5415,4.5467,4.5452,4.5452,4.5452,4.5452,4.5443,4.541,4.5405,4.5405,4.5405,4.5405,4.5395,0.0,0.0,0.0,4.5462,4.4916,4.4546,4.447,4.3904,4.3762,4.4132,4.4067,4.4222,4.4642,4.4496,4.4379,4.4265,4.4181,4.4128,4.4128,4.4128,4.4113,4.4083,4.4083,4.4086,4.4056,4.4056,4.4056,4.4056,4.4056,4.4056,4.4056,4.3996,4.3944,4.3913,0.0,0.0,0.0,0.0,0.0,0.0,0.0,0.0,0.0,0.0,0.0,0.0,0.0,0.0,0.0,0.0,0.0,0.0,0.0,0.0,0.0,3.786,3.7657,3.7098,3.6144,3.6071,3.5983,3.5857,3.5836,3.5907,3.6032,3.6032,3.6058,3.6141,3.6263,3.6333,3.6374,3.6711,3.6937,3.7118,3.7504,3.7757,3.7934,3.8326,0.0,0.0,0.0,0.0,0.0,0.0,0.0,0.0,4.0353,4.0413,4.0632,4.1576,4.2415,4.3237,4.4117,4.4953,4.5577,4.5577,4.5546,4.549,4.549,4.5434,4.5395,4.5395,4.5395,4.54,0.0,0.0,4.54,4.54,4.54,4.54,4.5395,4.5395,4.539,0.0,0.0,0.0,0.0,0.0,0.0,4.5343,0.0,4.5208,4.5091,4.5003,4.4846,4.4592,4.4441,4.4318,4.4196,4.4113,4.4041,4.3974,4.3974,4.3974,4.3966,4.3966,4.3918,4.3857,4.3857,4.3835,4.3771,4.3771,4.3771,4.3771,4.3771,4.3771,4.3744,4.3632,4.3529,4.3522,0.0,0.0,0.0,0.0,0.0,0.0,0.0,0.0,0.0,0.0,0.0,0.0,0.0,0.0,0.0,0.0,0.0,0.0,0.0,0.0,0.0,0.0,0.0,0.0,0.0,0.0,0.0,0.0,3.5081,3.4988,3.5133,3.5023,3.511,3.5317,3.534,3.5521,3.5826,3.6058,3.6374,3.6756,0.0,3.7476,3.7703,0.0,0.0,0.0,0.0,0.0,0.0,0.0,0.0,0.0,0.0,4.0734,4.1384,4.2274,4.3116,4.3939,4.4805,4.5212,4.5389,4.5389,4.5355,4.5345,4.5345,4.5334,4.5324,4.5324,4.5324,4.5339,0.0,0.0,0.0,4.5404,4.5404,0.0,4.5272,4.5243,0.0,4.5184,0.0,4.5156,4.5114,4.4973,0.0,0.0,4.4877,4.4864,4.4725,4.4616,4.4483,4.4305,4.4166,4.4064,4.3974,4.3814,4.3666,4.3559,4.3559,4.3497,4.3391,4.3391,4.3392,4.3375,4.3375,4.3375,4.3358,4.3358,4.3358,4.3358,4.3358,4.3358,4.3358,4.3313,4.3286,4.3286,0.0,0.0,0.0,0.0,0.0,0.0,0.0,0.0,0.0,0.0,0.0,0.0,0.0,0.0,0.0,0.0,0.0,0.0,0.0,0.0,0.0,0.0,0.0,0.0,0.0,0.0,0.0,0.0,0.0,0.0,3.4387,3.4403,3.4464,3.461,3.473,3.4909,3.5143,3.5487,0.0,0.0,0.0,0.0,0.0,0.0,0.0,0.0,0.0,0.0,0.0,0.0,0.0,4.0248,4.0629,4.1054,4.165,4.2876,0.0,4.4091,4.4979,4.5208,4.5208,4.5208,4.5208,4.5208,4.5208,4.5224,4.5265,4.5265,4.5286,0.0,0.0,0.0,0.0,0.0,0.0,0.0,4.5208,4.5153,4.5091,0.0,4.4998,0.0,4.4751,4.4642,4.4488,0.0,4.4453,4.4515,4.44,4.4283,4.414,4.3941,4.3836,4.3724,4.3582,4.3479,4.3393,4.3314,4.3314,4.3269,4.3205,4.3205,4.3205,4.3205,0.0,4.3205,4.3205,4.3205,4.3205,4.3205,4.3205,4.3205,4.3205,4.316,4.316,4.316,0.0,0.0,0.0,0.0,0.0,0.0,0.0,0.0,0.0,0.0,0.0,0.0,0.0,0.0,0.0,0.0,0.0,0.0,0.0,0.0,0.0,0.0,0.0,0.0,0.0,0.0,0.0,0.0,0.0,0.0,0.0,0.0,0.0,0.0,0.0,0.0,0.0,0.0,0.0,0.0,0.0,0.0,0.0,0.0,0.0,0.0,0.0,0.0,0.0,0.0,3.9803,4.0255,4.1024,4.1401,4.1876,4.3332,4.3832,4.4098,4.4859,4.5068,4.5068,4.5068,4.5043,4.5057,4.5068,4.5114,4.5164,4.517,0.0,4.5262,4.5262,4.5262,4.5275,4.527,0.0,4.5164,4.5142,4.5033,4.4913,4.4827,4.4757,4.4615,4.4353,4.4268,4.4091,4.3783,4.4015,4.4114,4.4041,4.3947,4.3795,4.3545,4.3496,4.3384,4.3205,4.3205,4.3205,4.3187,4.3187,4.3178,4.3151,4.3151,4.3151,4.3151,4.3151,0.0,4.3151,4.3151,4.3151,4.3151,4.3151,4.3151,4.3142,4.3095,4.3058,4.3049,0.0,0.0,0.0,0.0,0.0,0.0,0.0,0.0,0.0,0.0,0.0,0.0,0.0,0.0,0.0,0.0,0.0,0.0,0.0,0.0,0.0,0.0,0.0,0.0,0.0,0.0,0.0,0.0,0.0,0.0,0.0,0.0,0.0,0.0,0.0,0.0,0.0,0.0,0.0,0.0,0.0,0.0,0.0,0.0,0.0,0.0,0.0,0.0,0.0,0.0,4.0289,4.0784,4.098,4.2,4.3187,4.3477,4.4064,4.4656,4.4808,4.4846,4.4846,4.4846,4.4802,4.4777,4.4833,4.4901,0.0,0.0,4.5091,4.5136,4.5136,4.5136,4.512,4.5068,0.0,0.0,0.0,0.0,4.4587,0.0,0.0,0.0,0.0,0.0,0.0,0.0,0.0,4.3511,4.3599,4.3495,4.3364,4.3277,4.325,4.3242,4.3205,4.3205,4.3169,4.3123,4.3123,4.3068,4.2939,4.2939,4.2939,4.2939,4.2939,0.0,4.2939,4.2939,4.2939,4.2939,4.2939,4.2939,4.2939,4.2938,4.2929,4.2929,0.0,0.0,0.0,0.0,0.0,0.0,0.0,0.0,0.0,0.0,4.0912,4.0912,0.0,0.0,0.0,0.0,0.0,0.0,0.0,0.0,0.0,0.0,0.0,0.0,0.0,0.0,0.0,0.0,0.0,0.0,0.0,0.0,0.0,0.0,0.0,0.0,0.0,0.0,0.0,0.0,0.0,0.0,0.0,0.0,0.0,0.0,0.0,0.0,0.0,0.0,4.0994,4.1662,4.1873,4.2537,4.3321,4.3741,4.4161,4.4481,4.4481,4.4453,4.4444,4.4444,4.4416,4.4395,4.4437,0.0,0.0,0.0,4.4827,4.4937,4.4937,0.0,0.0,0.0,0.0,0.0,0.0,0.0,0.0,0.0,0.0,0.0,0.0,0.0,0.0,0.0,0.0,4.3251,4.333,4.326,4.3178,4.3151,4.3087,4.305,4.305,4.305,4.3022,4.2994,4.2994,4.2947,4.2892,4.2892,4.2892,4.2892,4.2892,0.0,4.291,4.2853,4.2852,4.2842,4.2767,4.2738,4.2738,4.2738,4.2738,4.2738,0.0,0.0,0.0,0.0,0.0,0.0,0.0,4.0823,4.0811,4.0811,4.0787,4.0764,4.0764,4.0847,0.0,0.0,0.0,0.0,0.0,0.0,0.0,0.0,0.0,0.0,0.0,0.0,0.0,0.0,0.0,0.0,0.0,0.0,0.0,0.0,0.0,0.0,0.0,0.0,0.0,0.0,0.0,0.0,0.0,0.0,0.0,0.0,0.0,0.0,0.0,0.0,4.1652,4.2492,4.2775,4.2987,4.3256,4.3897,4.4064,4.4064,4.4064,4.4019,4.3991,4.3991,4.3975,4.3986,4.3983,4.4132,0.0,0.0,4.4495,4.4648,4.4661,0.0,0.0,0.0,0.0,0.0,0.0,0.0,0.0,0.0,0.0,0.0,0.0,0.0,0.0,0.0,0.0,0.0,4.3123,4.3077,4.3039,4.3039,4.2909,4.2843,4.2843,4.2843,4.2843,4.2843,4.2843,4.2843,4.2843,4.2843,4.2843,4.2843,4.2843,0.0,0.0,4.2775,4.2754,4.2745,4.2639,4.2599,4.2599,4.2599,4.2599,4.2599,0.0,0.0,0.0,0.0,0.0,0.0,0.0,4.0624,4.0546,4.0546,4.0424,4.0367,4.0367,4.068,0.0,0.0,0.0,0.0,0.0,0.0,0.0,0.0,0.0,0.0,0.0,0.0,0.0,0.0,0.0,0.0,0.0,0.0,0.0,0.0,0.0,0.0,0.0,0.0,0.0,0.0,0.0,0.0,0.0,0.0,0.0,0.0,0.0,0.0,0.0,0.0,0.0,4.2876,4.3014,4.3291,4.3553,4.3635,0.0,0.0,4.3654,4.3646,4.3656,4.3656,4.3597,4.3573,4.3639,0.0,0.0,4.4002,4.4109,4.4181,4.4236,4.4269,0.0,0.0,0.0,0.0,0.0,0.0,0.0,0.0,0.0,0.0,0.0,0.0,0.0,0.0,0.0,0.0,4.2929,4.2861,4.284,4.284,4.2697,4.2629,4.2629,4.2629,4.2629,4.2629,4.2629,4.2629,4.2629,4.2629,4.2629,4.2629,4.2629,0.0,0.0,4.2619,4.2619,4.2619,4.2609,4.2599,4.2599,4.2599,4.2599,4.2599,0.0,0.0,0.0,0.0,0.0,0.0,0.0,4.0399,4.035,4.0275,4.0196,4.0096,3.9914,3.9961,4.0087,0.0,0.0,0.0,0.0,0.0,0.0,0.0,0.0,0.0,0.0,0.0,0.0,0.0,0.0,0.0,0.0,0.0,0.0,0.0,0.0,0.0,0.0,0.0,0.0,0.0,0.0,0.0,0.0,0.0,0.0,0.0,0.0,0.0,0.0,0.0,0.0,0.0,4.2879,4.3003,0.0,0.0,4.3347,4.3347,4.3347,4.333,4.3304,4.3304,4.3269,4.3269,4.3286,0.0,4.3475,4.3562,4.3695,4.3809,4.3823,4.423,4.4661,0.0,0.0,0.0,0.0,0.0,0.0,0.0,0.0,0.0,0.0,0.0,0.0,0.0,0.0,0.0,4.344,4.2968,4.2668,4.2668,4.2629,4.2599,4.2599,4.2599,4.2599,4.2599,4.2599,4.2599,4.2599,4.2599,4.2599,4.2599,4.2599,0.0,0.0,4.2558,4.2488,4.2409,4.232,4.2218,4.2132,4.2212,4.2191,4.2132,0.0,0.0,0.0,0.0,0.0,0.0,4.0138,4.0049,3.9944,3.9854,3.976,3.9618,3.9335,3.9132,3.9132,3.9431,0.0,0.0,0.0,0.0,0.0,0.0,0.0,0.0,0.0,0.0,0.0,0.0,0.0,0.0,0.0,0.0,0.0,0.0,0.0,0.0,0.0,0.0,0.0,0.0,0.0,0.0,0.0,0.0,0.0,0.0,0.0,0.0,0.0,0.0,0.0,0.0,0.0,0.0,0.0,0.0,4.3105,4.3105,4.3105,4.3077,4.304,4.304,4.304,4.304,0.0,0.0,4.3187,4.3223,4.3347,4.347,4.3478,4.413,4.4755,0.0,0.0,4.605,0.0,0.0,0.0,0.0,0.0,0.0,0.0,0.0,0.0,0.0,0.0,0.0,4.3712,4.3174,4.2771,4.2578,4.253,4.251,4.251,4.251,4.251,4.251,4.248,4.2442,4.2442,4.2381,4.2351,4.2369,4.231,0.0,0.0,4.2253,4.2181,4.209,4.1945,4.1805,4.1692,4.1743,4.1692,4.1648,0.0,0.0,0.0,0.0,0.0,0.0,0.0,3.9421,3.9219,3.9206,3.898,3.8764,3.8639,3.8315,3.8057,3.7943,0.0,0.0,0.0,0.0,0.0,0.0,0.0,0.0,0.0,0.0,0.0,0.0,0.0,0.0,0.0,0.0,0.0,0.0,0.0,0.0,0.0,0.0,0.0,0.0,0.0,0.0,0.0,0.0,0.0,0.0,0.0,0.0,0.0,0.0,0.0,0.0,0.0,0.0,0.0,0.0,4.2901,4.2901,4.2901,4.2901,4.2892,4.2892,4.2892,4.2892,0.0,0.0,4.2938,4.3068,4.3104,4.3132,4.3196,4.3862,4.4636,0.0,0.0,0.0,0.0,0.0,0.0,0.0,0.0,0.0,0.0,0.0,0.0,0.0,0.0,0.0,4.3543,4.349,4.3185,4.2511,4.2366,4.2308,4.2308,4.2308,4.2308,4.2297,4.2166,4.2103,4.2093,4.1899,4.1801,4.1791,0.0,0.0,0.0,4.1615,4.1615,4.1593,4.1458,4.1413,4.1402,4.1266,4.1209,4.1209,0.0,0.0,0.0,0.0,0.0,0.0,0.0,3.8966,3.8788,3.8788,3.8609,3.8413,3.8272,3.7886,3.7579,3.7432,0.0,0.0,0.0,0.0,0.0,0.0,0.0,0.0,0.0,0.0,0.0,0.0,0.0,0.0,0.0,0.0,0.0,0.0,0.0,0.0,0.0,0.0,0.0,0.0,0.0,0.0,0.0,0.0,0.0,0.0,0.0,0.0,0.0,0.0,0.0,0.0,0.0,0.0,0.0,0.0,0.0,0.0,4.2891,4.2892,4.2892,4.2892,4.288,4.2823,4.2823,0.0,4.2851,4.2898,4.2928,4.3147,4.372,4.4464,4.5241,0.0,0.0,0.0,0.0,0.0,0.0,0.0,0.0,0.0,0.0,0.0,0.0,0.0,0.0,0.0,4.4293,4.3693,4.3063,4.2374,4.2318,4.2256,4.2156,4.2156,4.2082,4.1963,4.192,4.1795,4.1624,4.1558,4.1487,0.0,0.0,0.0,0.0,4.134,4.1266,4.1175,4.1042,4.0902,4.0765,4.07,4.0616,4.059,0.0,0.0,0.0,0.0,0.0,0.0,0.0,3.8556,3.8347,3.8347,3.8189,3.8015,3.7841,3.7476,3.7179,3.7028,0.0,0.0,0.0,0.0,0.0,0.0,0.0,0.0,0.0,0.0,0.0,0.0,0.0,0.0,0.0,0.0,0.0,0.0,0.0,0.0,0.0,0.0,0.0,0.0,0.0,0.0,4.1553,0.0,0.0,0.0,0.0,0.0,0.0,0.0,0.0,0.0,0.0,0.0,0.0,0.0,4.2617,4.2696,0.0,4.2796,4.2796,4.2796,4.2756,0.0,0.0,0.0,4.2725,4.2725,4.3,4.3382,4.3888,4.4899,4.5781,4.6196,0.0,0.0,0.0,0.0,0.0,0.0,0.0,0.0,0.0,0.0,0.0,0.0,0.0,0.0,4.4613,4.3998,4.3169,4.2083,4.209,4.2069,4.1995,4.1892,4.1766,4.1642,4.1542,4.1379,4.1169,4.1105,4.0989,0.0,0.0,0.0,0.0,4.0772,4.0741,4.0645,4.0507,4.0377,4.0258,4.0162,4.0104,4.0087,0.0,0.0,0.0,0.0,0.0,0.0,0.0,0.0,0.0,0.0,3.7774,3.7627,3.7432,3.718,3.6938,0.0,0.0,0.0,0.0,0.0,0.0,0.0,0.0,0.0,0.0,0.0,0.0,3.7417,3.7611,3.7876,3.8209,0.0,0.0,0.0,0.0,0.0,0.0,0.0,0.0,0.0,0.0,0.0,0.0,0.0,0.0,0.0,0.0,0.0,0.0,0.0,0.0,0.0,0.0,0.0,0.0,0.0,0.0,0.0,0.0,4.2589,0.0,0.0,0.0,0.0,0.0,0.0,0.0,4.2661,4.3318,4.3904,4.3958,4.5198,4.6223,4.6266,0.0,0.0,0.0,0.0,0.0,0.0,0.0,0.0,0.0,0.0,0.0,0.0,0.0,0.0,4.4589,4.4338,4.3451,4.1635,4.1648,4.1697,4.1736,4.148,4.1357,4.1328,4.1082,4.0866,4.0731,4.0536,4.0387,0.0,0.0,0.0,0.0,4.0058,4.0058,4.0062,3.991,3.9875,3.9862,3.9716,3.9677,3.9677,0.0,0.0,0.0,0.0,0.0,0.0,0.0,0.0,0.0,0.0,0.0,3.7568,3.7611,3.7329,0.0,0.0,0.0,0.0,0.0,0.0,0.0,0.0,0.0,0.0,0.0,0.0,0.0,3.7626,3.7788,3.7963,3.8209,3.8292,0.0,0.0,0.0,0.0,0.0,0.0,0.0,0.0,0.0,0.0,0.0,0.0,0.0,0.0,4.2297,4.2297,0.0,0.0,0.0,0.0,0.0,0.0,0.0,0.0,4.2356,4.2356,4.2369,0.0,4.2599,4.2599,4.2558,4.2516,0.0,0.0,0.0,0.0,0.0,4.491,4.5522,4.5953,4.6381,0.0,0.0,0.0,0.0,0.0,0.0,0.0,0.0,0.0,0.0,0.0,0.0,0.0,0.0,4.6268,4.4589,4.4185,4.3149,4.1353,4.0831,4.0766,4.1186,4.103,4.0866,4.071,4.0541,4.0333,4.0108,4.0062,3.9961,0.0,0.0,0.0,3.9794,3.9794,3.9794,3.9781,3.9642,3.9577,3.9593,3.9445,3.9392,3.9392,0.0,0.0,0.0,0.0,0.0,0.0,0.0,0.0,0.0,0.0,0.0,0.0,0.0,0.0,0.0,0.0,0.0,0.0,0.0,0.0,0.0,0.0,0.0,0.0,0.0,0.0,0.0,0.0,0.0,3.8121,0.0,0.0,0.0,0.0,0.0,0.0,0.0,0.0,0.0,0.0,4.0619,0.0,0.0,0.0,0.0,0.0,4.2297,4.2297,0.0,4.2297,4.2297,4.2297,0.0,0.0,0.0,0.0,4.2297,4.2297,4.2297,4.2379,4.247,4.247,4.2437,4.2494,0.0,0.0,0.0,0.0,0.0,0.0,4.5946,0.0,0.0,0.0,0.0,0.0,0.0,0.0,0.0,0.0,0.0,0.0,0.0,0.0,0.0,0.0,0.0,4.6024,4.4624,4.3903,4.2824,4.1243,4.0399,4.015,4.0538,4.0294,4.0095,3.999,3.985,3.9687,3.9494,3.9494,3.9455,0.0,0.0,0.0,3.9524,3.9524,3.9524,3.9511,3.9432,3.9422,3.9392,3.9325,3.9299,3.9285,0.0,0.0,0.0,0.0,0.0,0.0,0.0,0.0,0.0,0.0,0.0,0.0,0.0,0.0,0.0,0.0,0.0,0.0,0.0,0.0,0.0,0.0,0.0,0.0,0.0,0.0,0.0,0.0,0.0,0.0,0.0,0.0,3.842,0.0,0.0,0.0,0.0,0.0,0.0,0.0,4.0546,0.0,0.0,0.0,0.0,0.0,0.0,0.0,0.0,4.2297,4.2297,4.2297,4.2297,0.0,0.0,0.0,0.0,0.0,4.2297,4.2297,4.2297,4.2297,4.2387,4.2662,4.3347,0.0,0.0,0.0,0.0,0.0,0.0,0.0,0.0,0.0,0.0,0.0,0.0,0.0,0.0,0.0,0.0,0.0,0.0,0.0,0.0,0.0,0.0,4.5626,4.4572,4.3629,4.2561,4.1325,4.0282,3.9798,3.9942,3.9547,3.9342,3.9342,3.9192,3.9088,3.8969,3.8969,3.8969,3.8969,0.0,0.0,3.9232,3.9232,3.9232,3.9232,3.9232,3.9232,3.9232,3.9232,3.9232,3.9205,0.0,0.0,0.0,0.0,0.0,0.0,0.0,0.0,0.0,0.0,0.0,0.0,0.0,0.0,0.0,0.0,0.0,0.0,0.0,0.0,0.0,0.0,0.0,0.0,0.0,0.0,0.0,0.0,0.0,0.0,3.8391,3.8391,3.8532,3.8736,0.0,0.0,0.0,0.0,0.0,0.0,0.0,0.0,0.0,0.0,0.0,0.0,0.0,0.0,0.0,4.2297,4.2297,4.2297,4.2297,0.0,0.0,0.0,0.0,0.0,4.2297,4.2297,4.2297,4.2297,4.2804,4.3347,4.3472,0.0,0.0,0.0,0.0,0.0,0.0,0.0,0.0,0.0,0.0,0.0,0.0,0.0,0.0,0.0,0.0,0.0,0.0,0.0,0.0,0.0,0.0,4.5156,4.4148,4.3579,4.2784,4.1744,4.0503,3.9837,3.9755,3.9295,3.9064,3.9064,3.8928,3.8843,3.8832,3.8832,3.8832,3.8832,0.0,3.8846,3.8873,3.8873,3.8873,3.8873,3.8873,3.8873,3.8873,3.8873,3.8873,3.8873,0.0,0.0,0.0,0.0,0.0,0.0,0.0,0.0,0.0,0.0,0.0,0.0,0.0,0.0,0.0,0.0,0.0,0.0,0.0,0.0,0.0,0.0,0.0,0.0,0.0,0.0,0.0,0.0,0.0,3.8351,3.8391,3.8462,3.86,3.8805,0.0,0.0,0.0,0.0,0.0,0.0,0.0,0.0,0.0,0.0,0.0,0.0,0.0,0.0,0.0,0.0,4.2297,4.2297,4.2297,0.0,0.0,0.0,0.0,0.0,4.2297,4.2297,4.2404,4.284,4.3233,4.3597,4.4007,0.0,0.0,0.0,0.0,0.0,0.0,0.0,0.0,0.0,0.0,0.0,0.0,0.0,0.0,0.0,0.0,0.0,0.0,0.0,0.0,0.0,0.0,0.0,4.3908,4.3239,4.2591,4.1978,4.091,4.0259,4.013,3.9919,3.9436,3.8669,3.8614,3.8586,3.8586,3.8586,3.8614,3.8683,0.0,3.8722,3.8805,3.8805,3.8805,3.8805,3.8805,3.8805,3.8805,3.8805,3.875,3.8683,0.0,0.0,0.0,0.0,0.0,0.0,0.0,0.0,0.0,0.0,0.0,0.0,0.0,0.0,0.0,0.0,0.0,0.0,0.0,0.0,0.0,0.0,0.0,0.0,0.0,0.0,3.8064,3.8252,3.8351,3.8422,3.845,3.8588,3.8697,0.0,0.0,0.0,0.0,0.0,0.0,0.0,0.0,0.0,0.0,0.0,0.0,0.0,0.0,0.0,0.0,0.0,0.0,0.0,0.0,0.0,0.0,4.2297,4.2297,4.2297,4.2297,4.244,4.2744,4.3347,0.0,4.3954,4.4703,0.0,0.0,0.0,0.0,0.0,0.0,0.0,0.0,0.0,0.0,0.0,0.0,0.0,0.0,0.0,0.0,0.0,0.0,0.0,0.0,0.0,0.0,0.0,4.3638,4.2962,4.2489,4.2282,4.1383,4.0859,4.0754,4.0592,3.9946,3.8893,3.8893,3.8893,3.8877,3.8732,3.8707,3.8806,3.8627,3.86,3.8708,3.8708,3.8708,3.8708,3.8708,3.8708,3.8708,3.8708,3.8641,3.8546,0.0,0.0,0.0,0.0,0.0,0.0,0.0,0.0,0.0,0.0,0.0,0.0,0.0,0.0,0.0,0.0,0.0,0.0,0.0,0.0,0.0,0.0,0.0,0.0,0.0,3.8078,3.8252,3.8394,3.8408,3.8462,3.859,3.8725,3.8791,3.8805,0.0,0.0,0.0,0.0,0.0,0.0,0.0,0.0,0.0,0.0,0.0,0.0,0.0,0.0,0.0,0.0,0.0,0.0,0.0,0.0,4.2297,4.2297,4.2297,4.2297,4.2297,4.284,4.3436,4.349,0.0,0.0,4.5523,4.6337,0.0,0.0,0.0,0.0,0.0,0.0,0.0,0.0,0.0,0.0,0.0,0.0,0.0,0.0,0.0,0.0,0.0,0.0,0.0,0.0,0.0,0.0,4.3174,4.2973,4.2849,4.2833,4.1996,4.153,4.1531,4.0835,4.0448,4.0349,4.0349,4.0349,4.0333,3.9701,3.9441,3.9392,3.8713,3.8406,3.842,3.842,3.842,3.842,3.842,3.842,3.842,3.842,3.842,3.8406,0.0,0.0,0.0,0.0,0.0,0.0,0.0,0.0,0.0,0.0,0.0,0.0,0.0,0.0,0.0,0.0,0.0,0.0,0.0,0.0,0.0,0.0,0.0,3.8676,3.8458,3.8292,3.8308,3.8518,3.8777,3.8912,3.8966,3.9115,0.0,0.0,0.0,0.0,0.0,0.0,0.0,0.0,0.0,0.0,0.0,0.0,0.0,0.0,0.0,0.0,0.0,0.0,4.2297,4.2297,0.0,4.2297,4.2297,4.2297,4.2297,4.2297,4.2297,4.2894,4.3615,4.4078,0.0,0.0,0.0,0.0,0.0,0.0,0.0,0.0,0.0,0.0,0.0,0.0,0.0,0.0,0.0,0.0,0.0,0.0,0.0,0.0,0.0,0.0,0.0,0.0,0.0,0.0,4.2789,4.2743,4.2712,4.2712,4.239,4.2213,4.2213,4.1938,4.1809,4.1809,4.0917,4.0511,4.0495,4.0252,4.0123,4.0106,3.9816,3.9703,3.9671,3.9264,3.9086,3.9037,3.857,3.8391,3.8391,3.8391,3.8391,3.8391,0.0,0.0,0.0,0.0,0.0,0.0,0.0,0.0,0.0,0.0,0.0,0.0,0.0,0.0,0.0,0.0,0.0,0.0,0.0,0.0,0.0,0.0,0.0,3.9315,3.9091,3.875,3.8628,3.8727,3.9142,3.9382,3.9421,0.0,0.0,0.0,0.0,0.0,0.0,0.0,0.0,0.0,4.1346,4.1642,0.0,0.0,0.0,0.0,0.0,0.0,0.0,0.0,4.2297,0.0,0.0,0.0,4.2297,4.2297,4.2297,4.2351,4.2619,4.3251,4.4025,0.0,0.0,0.0,0.0,0.0,0.0,0.0,0.0,0.0,0.0,0.0,0.0,0.0,0.0,0.0,0.0,0.0,0.0,0.0,0.0,0.0,0.0,0.0,0.0,0.0,0.0,0.0,0.0,4.2602,4.2602,4.2602,4.2602,4.2602,4.2602,4.2602,4.2602,4.2586,4.1615,4.116,4.116,4.0934,4.0851,4.0835,4.0609,4.0511,4.0448,3.9993,3.9815,3.9766,3.925,3.8926,3.8762,3.8762,3.8602,3.8391,0.0,0.0,0.0,0.0,0.0,0.0,0.0,0.0,0.0,0.0,0.0,0.0,0.0,0.0,0.0,0.0,0.0,0.0,0.0,0.0,0.0,0.0,0.0,3.9833,3.9703,3.95,3.9276,3.901,3.9481,3.9781,3.9914,3.9914,0.0,0.0,0.0,0.0,0.0,0.0,0.0,0.0,4.1542,4.1795,0.0,0.0,0.0,0.0,0.0,0.0,0.0,0.0,4.2297,4.2297,0.0,0.0,0.0,4.2297,4.2297,4.2476,4.3276,4.4043,0.0,0.0,0.0,0.0,0.0,0.0,0.0,0.0,0.0,0.0,0.0,0.0,0.0,0.0,0.0,0.0,0.0,0.0,0.0,0.0,0.0,0.0,0.0,0.0,0.0,0.0,0.0,0.0,0.0,4.2602,4.2602,4.2602,4.2602,4.2602,4.2602,4.2602,4.2602,4.2602,4.2602,4.2602,4.257,4.1921,4.1612,4.1579,4.0835,4.0528,4.0528,4.0496,4.0511,4.0511,4.0511,4.009,3.9507,3.9507,3.9054,3.8424,0.0,0.0,0.0,0.0,0.0,0.0,0.0,0.0,0.0,0.0,0.0,0.0,0.0,0.0,0.0,0.0,0.0,0.0,0.0,0.0,4.0436,4.0436,4.0362,4.0263,4.0125,4.0058,3.991,3.9625,4.015,4.0412,0.0,0.0,0.0,4.0323,0.0,0.0,0.0,0.0,0.0,4.1553,4.1786,4.197,4.2103,0.0,0.0,0.0,0.0,0.0,0.0,0.0,0.0,0.0,0.0,0.0,0.0,4.2297,4.2297,4.2476,4.3276,0.0,0.0,0.0,0.0,0.0,0.0,0.0,0.0,0.0,0.0,0.0,0.0,0.0,0.0,0.0,0.0,0.0,0.0,0.0,0.0,0.0,0.0,0.0,0.0,0.0,0.0,0.0,0.0,0.0,0.0,4.2602,4.2602,4.2602,4.2602,4.2602,4.2602,4.2602,4.2602,4.2602,4.2602,4.2602,4.2586,4.2392,4.2294,4.2278,4.2068,4.1987,4.1938,4.1467,4.0965,4.0511,4.0511,4.0382,4.0204,4.0204,4.0058,3.988,0.0,0.0,0.0,0.0,0.0,0.0,0.0,0.0,0.0,0.0,0.0,0.0,0.0,0.0,0.0,0.0,0.0,0.0,0.0,0.0,4.0655,4.0655,4.0655,4.0595,4.0466,4.0466,4.0379,0.0,0.0,0.0,0.0,0.0,0.0,4.0794,0.0,4.0818,0.0,0.0,4.1431,4.1692,4.1869,4.197,4.2058,0.0,0.0,0.0,0.0,0.0,0.0,0.0,0.0,0.0,0.0,0.0,0.0,4.2225,4.2408,4.2814,4.3658,0.0,0.0,0.0,0.0,0.0,0.0,0.0,0.0,0.0,0.0,0.0,0.0,0.0,0.0,0.0,0.0,0.0,0.0,0.0,0.0,0.0,0.0,0.0,0.0,0.0,0.0,0.0,0.0,0.0,0.0,4.2602,4.2602,4.2602,4.2602,4.2602,4.2602,4.2602,4.2602,4.2602,4.2602,4.2602,4.2602,4.2602,4.2602,4.2602,4.2602,4.2602,4.257,4.2164,4.1743,4.1323,4.1323,4.1177,4.0932,4.0932,4.0754,4.0511,0.0,0.0,0.0,0.0,0.0,0.0,0.0,0.0,0.0,0.0,0.0,0.0,0.0,0.0,0.0,0.0,0.0,0.0,0.0,0.0,4.0912,4.0912,4.0912,4.0852,4.0721,4.0721,4.0721,0.0,0.0,0.0,0.0,0.0,4.1128,4.114,0.0,4.1169,0.0,4.1363,4.1571,4.1791,4.1791,4.1873,4.2016,4.2058,0.0,0.0,0.0,0.0,0.0,0.0,0.0,0.0,4.2267,4.2194,4.2082,4.2082,4.2576,4.3302,0.0,0.0,0.0,0.0,0.0,0.0,0.0,0.0,0.0,0.0,0.0,0.0,0.0,0.0,0.0,0.0,0.0,0.0,0.0,0.0,0.0,0.0,0.0,0.0,0.0,0.0,0.0,0.0,0.0,0.0,0.0,4.2602,4.2602,4.2602,4.2602,4.2602,4.2602,4.2602,4.2602,4.2602,4.2602,4.2602,4.2602,4.2602,4.2602,4.2602,4.2602,4.2602,4.2602,4.2602,4.2602,4.2602,4.2602,4.2229,4.1693,4.1693,4.1273,4.0691,0.0,0.0,0.0,0.0,0.0,0.0,0.0,0.0,0.0,0.0,0.0,0.0,0.0,0.0,0.0,0.0,0.0,0.0,0.0,0.0,4.0912,4.0912,4.0912,4.0888,4.0864,4.0864,4.0864,4.0864,0.0,0.0,0.0,0.0,0.0,4.1499,0.0,4.1403,4.1526,4.1531,4.1648,4.1791,4.1791,4.1873,4.2005,4.2026,4.2019,0.0,0.0,0.0,0.0,0.0,0.0,0.0,4.2062,4.2041,4.2019,4.2019,4.2529,4.328,0.0,4.4866,0.0,0.0,0.0,0.0,0.0,0.0,0.0,0.0,0.0,0.0,0.0,0.0,0.0,0.0,0.0,0.0,0.0,0.0,0.0,0.0,0.0,0.0,0.0,0.0,0.0,0.0,0.0,0.0,4.2602,4.2602,4.2602,4.2602,4.2602,4.2602,4.2602,4.2602,4.2602,0.0,4.2602,4.2602,4.2602,4.2602,4.2602,4.2602,4.2602,4.2602,4.2602,4.2602,4.2602,4.2602,4.2602,4.2505,4.2392,4.2392,4.2278,4.2165,0.0,0.0,0.0,0.0,0.0,0.0,0.0,0.0,0.0,0.0,0.0,0.0,0.0,0.0,0.0,0.0,0.0,0.0,0.0,0.0,0.0,0.0,4.0912,4.0912,4.0912,4.0912,4.0912,0.0,0.0,0.0,0.0,0.0,0.0,4.1504,0.0,4.1471,4.1604,4.1604,4.1604,4.1615,4.1681,4.171,4.1739,4.1869,4.1895,4.1912,4.1984,0.0,0.0,0.0,0.0,0.0,0.0,0.0,4.1983,4.2326,4.2935,4.3671,0.0,0.0,0.0,0.0,0.0,0.0,0.0,0.0,0.0,0.0,0.0,0.0,0.0,0.0,0.0,0.0,0.0,0.0,0.0,0.0,0.0,0.0,0.0,0.0,0.0,0.0,0.0,0.0,0.0,4.2602,4.2602,4.2602,4.2602,4.2602,4.2602,4.2602,4.2602,4.2602,4.2602,4.2602,4.2602,4.2602,4.2602,4.2602,4.2602,4.2602,4.2602,4.2602,4.2602,4.2602,4.2602,4.2602,4.2602,4.2602,4.2602,4.2602,4.2602,4.2602,0.0,0.0,0.0,0.0,0.0,0.0,0.0,0.0,0.0,0.0,0.0,0.0,0.0,0.0,0.0,0.0,0.0,0.0,0.0,0.0,0.0,0.0,4.0912,4.0912,4.0912,4.0912,4.0912,0.0,0.0,0.0,0.0,0.0,0.0,4.1403,0.0,4.1459,4.1571,4.1571,4.1493,4.1392,4.1493,4.1453,4.1386,4.1615,4.1703,4.1714,4.1819,4.1869,4.1869,4.1869,0.0,0.0,0.0,0.0,4.1833,4.2596,4.3301,4.4032,0.0,0.0,0.0,0.0,0.0,0.0,0.0,0.0,0.0,0.0,0.0,0.0,0.0,0.0,0.0,0.0,0.0,0.0,0.0,0.0,0.0,0.0,0.0,0.0,0.0,0.0,0.0,0.0,0.0,4.2602,4.2602,4.2602,4.2602,4.2602,4.2587,4.2571,4.2571,4.2539,4.2508,4.2508,4.2508,4.2508,4.2508,4.2508,4.2555,4.2602,4.2602,4.2602,4.2602,4.2602,4.2602,4.2602,4.2602,4.2602,4.2602,4.2602,4.2602,4.2602,0.0,0.0,0.0,0.0,0.0,0.0,0.0,0.0,0.0,0.0,0.0,0.0,0.0,0.0,0.0,0.0,0.0,0.0,4.0912,0.0,0.0,4.0912,4.0912,4.0912,4.0912,4.0912,4.0912,0.0,0.0,0.0,0.0,0.0,0.0,4.1403,0.0,0.0,4.1426,4.1426,4.1352,4.1232,4.1243,4.1243,4.1232,4.1266,0.0,4.1277,4.13,4.13,4.13,4.13,4.13,0.0,0.0,0.0,4.1446,4.2236,4.2991,4.3729,0.0,0.0,0.0,0.0,0.0,0.0,0.0,0.0,0.0,0.0,0.0,0.0,0.0,0.0,0.0,0.0,0.0,0.0,0.0,0.0,0.0,0.0,0.0,0.0,0.0,0.0,0.0,0.0,4.2602,4.2602,4.2602,4.2602,4.2602,4.2602,4.2492,4.2429,4.2429,4.2254,4.2158,4.2158,4.2158,4.2158,4.2158,4.2158,4.2317,4.2602,4.2602,4.2602,4.2602,4.2602,4.2602,4.2602,4.2602,4.2602,4.2602,4.2602,4.2602,4.2602,0.0,0.0,0.0,0.0,0.0,0.0,0.0,0.0,0.0,0.0,0.0,0.0,0.0,0.0,0.0,4.0912,4.0912,4.0912,4.0912,4.0912,4.0912,4.0912,4.0912,4.0912,4.0912,4.0912,0.0,0.0,0.0,0.0,0.0,4.1,4.1105,0.0,0.0,0.0,0.0,0.0,4.1226,4.114,4.1175,4.118,4.114,0.0,0.0,0.0,0.0,0.0,0.0,4.1209,4.1209,4.1209,4.1209,0.0,0.0,0.0,4.2932,0.0,4.4978,0.0,0.0,0.0,0.0,0.0,0.0,0.0,0.0,0.0,0.0,0.0,0.0,0.0,0.0,0.0,0.0,0.0,0.0,0.0,0.0,0.0,0.0,0.0,0.0,0.0,0.0,0.0,4.2602,4.2602,4.2602,4.2602,4.2602,4.2602,4.2476,4.2397,4.2397,4.219,4.2093,4.2093,4.2093,4.2093,4.2093,4.2093,4.2174,4.2317,4.2445,4.2492,4.2492,4.2571,4.2602,4.2602,4.2602,4.2602,4.2602,4.2602,4.2602,4.2602,0.0,0.0,0.0,0.0,0.0,0.0,0.0,0.0,0.0,0.0,0.0,0.0,0.0,0.0,0.0,0.0,4.0791,4.0912,4.0912,4.0912,4.0912,4.0912,4.0912,4.0912,4.0912,0.0,0.0,0.0,0.0,0.0,4.0912,4.0912,4.0947,0.0,4.1082,0.0,0.0,0.0,0.0,0.0,0.0,0.0,0.0,0.0,0.0,0.0,0.0,0.0,0.0,0.0,0.0,0.0,0.0,0.0,0.0,0.0,0.0,0.0,0.0,0.0,0.0,0.0,0.0,0.0,0.0,0.0,0.0,0.0,0.0,0.0,0.0,0.0,0.0,0.0,0.0,0.0,0.0,0.0,0.0,0.0,0.0,0.0,0.0,0.0,0.0,0.0,4.2602,4.2602,4.2602,4.2602,4.2587,4.2555,4.2397,4.2318,4.227,4.2013,4.1883,4.185,4.185,4.185,4.185,4.185,4.1867,4.1916,4.219,4.2334,4.2334,4.2445,4.2508,4.2555,4.2555,4.2571,4.2602,4.2602,4.2602,4.2602,0.0,0.0,0.0,0.0,0.0,0.0,0.0,0.0,0.0,0.0,0.0,0.0,0.0,3.933,3.975,3.975,4.0451,4.0912,4.0912,4.0912,4.0912,4.0912,4.0912,0.0,4.0912,0.0,0.0,0.0,0.0,0.0,4.0912,4.0912,4.0894,4.0923,4.1047,4.1093,4.1105,0.0,0.0,0.0,0.0,0.0,0.0,0.0,0.0,0.0,0.0,0.0,0.0,0.0,0.0,0.0,0.0,0.0,0.0,0.0,0.0,0.0,0.0,0.0,0.0,0.0,0.0,0.0,0.0,0.0,0.0,0.0,0.0,0.0,0.0,0.0,0.0,0.0,0.0,0.0,0.0,0.0,0.0,0.0,0.0,0.0,0.0,0.0,0.0,0.0,4.2602,4.2602,4.2602,4.2602,4.2539,4.2413,4.2222,4.2045,4.193,4.1538,4.1272,4.1152,4.1152,4.1152,4.1152,4.1152,4.1221,4.1373,4.1899,4.2109,4.2109,4.2126,4.2238,4.2413,4.2413,4.2492,4.2602,4.2602,4.2602,4.2602,0.0,0.0,0.0,0.0,0.0,0.0,0.0,0.0,0.0,0.0,0.0,0.0,0.0,3.9131,3.983,3.983,4.0498,4.0912,4.0912,4.0912,4.0912,4.0912,4.0912,4.0912,4.0912,0.0,0.0,0.0,0.0,4.0912,4.0912,4.0912,4.0912,4.0912,4.0947,4.0971,4.0971,4.0971,0.0,0.0,0.0,0.0,0.0,0.0,0.0,0.0,0.0,0.0,0.0,0.0,0.0,0.0,0.0,0.0,0.0,0.0,0.0,0.0,0.0,0.0,0.0,0.0,0.0,0.0,0.0,0.0,0.0,0.0,0.0,0.0,0.0,0.0,0.0,0.0,0.0,0.0,0.0,0.0,0.0,0.0,0.0,0.0,0.0,0.0,0.0,0.0,0.0,4.2476,4.2476,4.2349,4.2254,4.2206,4.2045,4.1833,4.1522,4.1288,4.1152,4.11,4.11,4.11,4.11,4.11,4.1118,4.117,4.1371,4.1653,4.198,4.2061,4.2142,4.2222,4.2222,4.2238,4.227,4.227,4.2349,4.2476,0.0,0.0,0.0,0.0,0.0,0.0,0.0,0.0,0.0,0.0,0.0,0.0,0.0,0.0,3.9798,4.0284,4.0718,4.0959,4.0959,4.0923,4.0912,4.0912,4.0912,4.0912,4.0912,0.0,0.0,0.0,0.0,0.0,0.0,4.0912,4.0912,4.0912,4.0912,4.0912,0.0,0.0,0.0,4.0912,0.0,0.0,4.0912,0.0,0.0,0.0,0.0,0.0,0.0,0.0,0.0,0.0,0.0,0.0,0.0,0.0,0.0,0.0,0.0,0.0,0.0,0.0,0.0,0.0,0.0,0.0,0.0,0.0,0.0,0.0,0.0,0.0,0.0,0.0,0.0,0.0,0.0,0.0,0.0,0.0,0.0,0.0,0.0,0.0,0.0,0.0,0.0,0.0,4.2302,4.2174,4.2045,4.1932,4.1768,4.1521,4.1139,4.1052,4.0966,4.0898,4.0898,4.0898,4.0898,4.0898,4.0932,4.1,4.1,4.1236,4.1636,4.1785,4.1867,4.1932,4.2013,4.2061,4.2093,4.2093,4.2174,4.2302,0.0,0.0,0.0,0.0,0.0,0.0,0.0,0.0,0.0,0.0,0.0,0.0,0.0,0.0,0.0,4.107,4.1146,4.1093,4.1093,4.0971,4.0912,4.0912,4.0912,4.0912,4.0912,0.0,0.0,0.0,0.0,0.0,0.0,0.0,4.0912,4.0912,4.0912,4.0912,4.0912,0.0,4.0912,4.0912,0.0,4.0912,4.0912,0.0,0.0,0.0,4.0912,4.0912,0.0,0.0,0.0,0.0,0.0,0.0,0.0,0.0,0.0,0.0,0.0,0.0,0.0,0.0,0.0,0.0,0.0,0.0,0.0,0.0,0.0,0.0,0.0,0.0,0.0,0.0,0.0,0.0,0.0,0.0,0.0,0.0,0.0,0.0,0.0,0.0,0.0,0.0,4.2093,4.2093,4.2093,4.2077,4.1932,4.1588,4.139,4.1122,4.0799,4.0799,4.0696,4.0489,4.0489,4.0489,4.0489,4.0489,4.061,4.0799,4.0799,4.0899,4.1085,4.1239,4.1406,4.1605,4.18,4.1964,4.2077,4.2077,4.2077,4.2093,0.0,0.0,0.0,0.0,0.0,0.0,0.0,0.0,0.0,0.0,0.0,0.0,0.0,0.0,4.0318,4.1133,4.1175,4.1152,4.1093,4.107,4.1047,4.1047,4.1047,4.1047,4.1047,0.0,0.0,0.0,0.0,0.0,0.0,0.0,0.0,0.0,4.0912,4.0912,4.0912,4.0912,0.0,0.0,4.0912,4.0912,0.0,0.0,0.0,0.0,0.0,4.0912,4.0912,0.0,4.0912,4.0912,0.0,0.0,0.0,0.0,0.0,0.0,4.1744,0.0,0.0,0.0,0.0,0.0,0.0,0.0,0.0,0.0,0.0,0.0,0.0,0.0,0.0,0.0,0.0,0.0,0.0,0.0,0.0,0.0,0.0,0.0,0.0,0.0,0.0,0.0,4.2012,4.1963,4.1963,4.1687,4.1423,4.1237,4.1037,4.0885,4.0799,4.0662,4.0558,4.0489,4.0489,4.0489,4.0489,4.0489,4.0524,4.0576,4.0576,4.061,4.0694,4.1018,4.1186,4.1237,4.1287,4.1337,4.1388,4.1489,4.1621,4.1753,0.0,0.0,0.0,0.0,0.0,0.0,0.0,0.0,0.0,0.0,0.0,0.0,0.0,0.0,0.0,4.1423,4.1408,4.1318,4.1227,4.1169,4.114,4.114,4.114,4.114,4.114,4.1117,0.0,0.0,0.0,0.0,0.0,0.0,0.0,0.0,0.0,0.0,0.0,0.0,0.0,0.0,4.0912,0.0,0.0,4.0912,4.0912,0.0,0.0,0.0,4.0912,4.0912,4.0912,0.0,0.0,0.0,0.0,0.0,0.0,0.0,0.0,0.0,0.0,0.0,0.0,0.0,4.2564,4.2758,0.0,0.0,0.0,0.0,0.0,0.0,0.0,0.0,0.0,0.0,0.0,0.0,0.0,0.0,0.0,0.0,0.0,4.167,4.167,4.167,4.1619,4.1569,4.1569,4.1338,4.1137,4.0983,4.085,4.0765,4.0679,4.0558,4.0489,4.0489,4.0489,4.0489,4.0489,4.0489,4.0489,4.0489,4.0489,4.0489,4.0507,4.0746,4.0898,4.0983,4.1068,4.11,4.1117,4.1187,4.1289,4.1405,0.0,0.0,0.0,0.0,0.0,0.0,0.0,0.0,0.0,0.0,0.0,0.0,0.0,0.0,0.0,0.0,4.1703,4.1571,4.1437,4.1306,4.122,4.122,4.122,4.122,4.122,4.1169,0.0,0.0,0.0,0.0,0.0,0.0,0.0,0.0,0.0,0.0,0.0,0.0,0.0,4.0912,4.0912,4.0912,0.0,0.0,4.0912,0.0,4.0912,4.0912,4.0912,4.0912,4.0912,0.0,0.0,0.0,0.0,0.0,4.0769,0.0,0.0,0.0,0.0,0.0,0.0,0.0,4.1058,4.1331,4.1697,0.0,0.0,0.0,0.0,0.0,0.0,0.0,0.0,0.0,0.0,0.0,0.0,0.0,0.0,0.0,4.1102,4.11,4.11,4.11,4.11,4.11,4.1068,4.1068,4.0967,4.0765,4.0765,4.0679,4.0489,4.0489,4.0489,4.0489,4.0489,4.0489,4.0489,4.0489,4.0489,4.0489,4.0489,4.0489,4.0489,4.0489,4.061,4.0782,4.0966,4.1017,4.1034,4.1051,4.1068,4.1068,3.8181,0.0,0.0,0.0,0.0,0.0,0.0,0.0,0.0,0.0,0.0,0.0,0.0,0.0,0.0,0.0,4.1877,4.1703,4.1571,4.1437,4.1352,4.1352,4.1352,4.1352,4.1352,4.1346,4.1261,0.0,0.0,0.0,0.0,0.0,0.0,0.0,0.0,0.0,0.0,0.0,0.0,4.0912,4.0912,0.0,4.0912,4.0912,4.0912,4.0912,4.0912,4.0912,4.0912,0.0,4.0912,4.0912,0.0,0.0,0.0,0.0,0.0,0.0,0.0,0.0,0.0,0.0,0.0,0.0,3.9847,4.0592,4.1149,0.0,0.0,0.0,0.0,0.0,0.0,0.0,0.0,0.0,0.0,0.0,0.0,0.0,0.0,0.0,4.1102,4.11,4.11,4.11,4.11,4.1034,4.0882,4.085,4.078,4.0558,4.0558,4.0541,4.0489,4.0489,4.0489,4.0489,4.0489,4.0489,4.0489,4.0489,4.0489,4.0489,4.0489,4.0489,4.0489,4.0489,4.0524,4.0558,4.0608,4.0626,4.0643,4.0799,4.085,4.0882,3.8601,0.0,0.0,0.0,0.0,0.0,0.0,0.0,0.0,0.0,0.0,0.0,0.0,0.0,0.0,0.0,0.0,0.0,0.0,0.0,4.1699,4.1699,4.1699,4.1666,4.1604,4.1538,4.1414,0.0,0.0,0.0,0.0,0.0,0.0,0.0,0.0,0.0,0.0,0.0,4.0912,4.0912,4.0912,0.0,4.0912,4.0912,4.0912,4.0912,4.0912,4.0912,4.0912,4.0912,4.0912,0.0,0.0,4.0817,4.0673,0.0,4.0313,4.0016,0.0,0.0,0.0,3.8344,0.0,0.0,0.0,3.9141,3.9708,4.0241,4.0633,0.0,0.0,0.0,0.0,0.0,0.0,0.0,0.0,0.0,0.0,0.0,0.0,0.0,4.0814,4.0797,4.0797,4.0797,4.0797,4.0763,4.0662,4.0645,4.061,4.0489,4.0489,4.0489,4.0489,4.0489,4.0489,4.0489,4.0489,4.0489,4.0489,4.0489,4.0489,4.0489,4.0489,4.0489,4.0489,4.0489,4.0489,4.0489,4.0489,4.0489,4.0507,4.061,4.0645,4.0662,3.8974,0.0,0.0,0.0,0.0,0.0,0.0,0.0,0.0,0.0,0.0,0.0,0.0,0.0,0.0,0.0,0.0,0.0,0.0,0.0,0.0,4.1994,4.1994,4.1945,4.1841,4.1703,4.1571,0.0,0.0,0.0,0.0,0.0,0.0,0.0,0.0,0.0,0.0,0.0,0.0,4.0912,0.0,4.0912,4.0912,4.0912,4.0912,4.0912,4.0912,4.0912,4.0912,4.0912,0.0,4.09,4.0876,4.0757,0.0,0.0,0.0,0.0,0.0,0.0,0.0,0.0,0.0,3.7365,0.0,0.0,0.0,3.9416,0.0,0.0,0.0,0.0,0.0,0.0,0.0,0.0,0.0,0.0,0.0,0.0,0.0,0.0,4.0524,4.0489,4.0489,4.0489,4.0489,4.0489,4.0489,4.0489,4.0489,4.0489,4.0489,4.0489,4.0489,4.0489,4.0489,4.0489,4.0489,4.0489,4.0489,4.0489,4.0489,4.0489,4.0489,4.0489,4.0489,4.0489,4.0489,4.0489,4.0489,4.0489,4.0489,4.0489,4.0489,4.0489,3.9388,3.9337,0.0,0.0,0.0,0.0,0.0,0.0,0.0,0.0,0.0,0.0,0.0,0.0,0.0,0.0,0.0,0.0,4.21,0.0,0.0,0.0,4.1994,4.1994,4.1984,4.1841,4.1703,0.0,0.0,0.0,0.0,0.0,0.0,0.0,4.1123,0.0,0.0,0.0,4.0912,0.0,4.0912,4.0912,0.0,4.0912,4.0912,4.0912,4.0912,4.0912,4.0912,0.0,4.0912,4.0888,0.0,4.0551,4.0263,0.0,0.0,0.0,0.0,0.0,0.0,0.0,3.7045,0.0,0.0,0.0,3.7997,3.798,0.0,0.0,0.0,0.0,0.0,0.0,0.0,0.0,0.0,0.0,0.0,0.0,0.0,0.0,0.0,4.0489,4.0489,4.0489,4.0489,4.0489,4.0489,4.0489,4.0489,4.0489,4.0489,4.0489,4.0489,4.0489,4.0489,4.0489,4.0489,4.0489,4.0489,4.0489,4.0489,4.0489,4.0489,4.0489,4.0489,4.0489,4.0489,4.0489,4.0489,4.0489,4.0489,4.0489,4.0489,4.0489,3.9612,3.9983,0.0,0.0,0.0,0.0,0.0,0.0,0.0,0.0,0.0,0.0,0.0,0.0,0.0,0.0,0.0,4.2399,0.0,0.0,0.0,0.0,0.0,0.0,0.0,4.2005,4.1899,4.1714,4.1659,0.0,0.0,0.0,0.0,0.0,4.1278,0.0,4.1146,0.0,0.0,0.0,0.0,0.0,0.0,4.0935,4.0912,4.0912,4.0912,4.0912,4.0912,0.0,4.0912,0.0,0.0,0.0,0.0,0.0,0.0,0.0,0.0,0.0,0.0,0.0,0.0,0.0,3.6631,0.0,3.7219,0.0,0.0,0.0,0.0,0.0,0.0,0.0,4.0489,0.0,0.0,0.0,0.0,0.0,0.0,0.0,0.0,0.0,0.0,0.0,4.0489,4.0489,4.0489,4.0489,4.0489,4.0489,4.0489,4.0489,4.0489,4.0489,4.0489,4.0489,4.0489,4.0489,4.0489,4.0489,4.0489,4.0489,4.0489,4.0489,4.0489,4.0489,4.0489,4.0489,4.0489,4.0489,4.0489,4.0489,4.0489,4.0489,3.9792,0.0,0.0,0.0,0.0,0.0,0.0,0.0,0.0,0.0,0.0,0.0,4.3841,4.3664,0.0,0.0,0.0,4.252,0.0,0.0,4.2297,0.0,0.0,0.0,0.0,0.0,4.2019,4.1888,0.0,0.0,0.0,0.0,0.0,0.0,0.0,4.1374,4.1243,0.0,0.0,4.1197,4.114,4.1128,4.1099,4.0947,4.0912,4.0912,4.0912,4.0912,4.0912,4.0912,4.0912,0.0,4.0733,0.0,0.0,0.0,0.0,0.0,3.8415,0.0,0.0,0.0,0.0,0.0,0.0,0.0,0.0,0.0,0.0,0.0,0.0,0.0,0.0,0.0,0.0,4.0489,0.0,0.0,0.0,0.0,0.0,0.0,0.0,0.0,0.0,4.0489,4.0489,4.0489,4.0489,4.0489,4.0489,4.0489,4.0489,4.0489,4.0489,4.0489,4.0489,4.0489,4.0489,4.0489,4.0489,4.0489,4.0489,4.0489,4.0489,4.0489,4.0489,4.0489,4.0489,4.0489,4.0489,4.0489,4.0489,4.0489,4.0489,4.0489,3.9991,4.064,0.0,0.0,0.0,0.0,0.0,0.0,0.0,0.0,0.0,0.0,0.0,0.0,0.0,0.0,0.0,4.252,4.2308,0.0,4.2297,0.0,0.0,4.2297,0.0,0.0,0.0,0.0,0.0,0.0,0.0,0.0,0.0,0.0,0.0,4.1526,4.1392,4.1272,4.1209,4.1209,4.1197,4.1163,4.1099,0.0,4.0912,4.0912,4.0912,0.0,0.0,4.0912,4.0912,0.0,0.0,0.0,0.0,0.0,0.0,0.0,0.0,0.0,0.0,3.6877,0.0,0.0,0.0,0.0,3.6507,0.0,0.0,0.0,0.0,0.0,0.0,0.0,0.0,0.0,0.0,0.0,0.0,0.0,0.0,0.0,0.0,0.0,4.0489,4.0489,4.0489,4.0489,4.0489,4.0489,4.0489,4.0489,4.0489,4.0489,4.0489,4.0489,4.0489,4.0489,4.0489,4.0489,4.0489,4.0489,4.0489,4.0489,4.0489,4.0489,4.0489,4.0489,4.0489,4.0489,4.0489,4.0489,4.0489,4.0489,4.0489,4.0489,0.0,0.0,0.0,0.0,0.0,0.0,0.0,4.4789,0.0,0.0,0.0,0.0,0.0,0.0,4.3501,0.0,0.0,4.252,4.2308,4.2297,0.0,0.0,0.0,4.2297,0.0,0.0,0.0,0.0,0.0,0.0,0.0,0.0,0.0,0.0,0.0,4.1703,0.0,0.0,0.0,0.0,0.0,4.1163,4.1099,0.0,0.0,4.0912,4.0912,4.0912,0.0,4.0912,4.0912,4.0888,4.0733,4.0636,4.049,4.0087,3.9725,0.0,0.0,0.0,3.7683,3.7059,0.0,0.0,0.0,0.0,0.0,0.0,0.0,0.0,0.0,0.0,0.0,0.0,0.0,0.0,0.0,0.0,0.0,0.0,0.0,0.0,0.0,0.0,0.0,4.0489,4.0489,4.0489,4.0489,4.0489,4.0489,4.0489,4.0489,4.0489,4.0489,4.0489,4.0489,4.0489,4.0489,4.0489,4.0489,4.0489,4.0489,4.0489,4.0489,4.0489,4.0489,4.0489,4.0489,4.0489,4.0489,4.0489,4.0489,4.0489,4.0489,4.0489,4.1294,0.0,0.0,0.0,0.0,0.0,0.0,0.0,0.0,0.0,4.4751,0.0,4.4265,0.0,4.3535,0.0,4.2739,4.252,4.2308,4.2297,0.0,4.2297,4.2297,0.0,0.0,0.0,0.0,0.0,0.0,4.2142,0.0,0.0,0.0,0.0,0.0,0.0,4.178,0.0,4.1604,0.0,0.0,4.118,0.0,0.0,4.0912,4.0912,0.0,4.0912,4.0912,4.0912,4.0912,4.0871,4.0805,4.0733,4.0624,4.0226,3.9905,3.9534,3.8736,3.826,0.0,3.715,3.6908,0.0,3.6554,0.0,0.0,0.0,0.0,0.0,0.0,0.0,0.0,0.0,0.0,0.0,0.0,4.0336,0.0,0.0,0.0,0.0,0.0,0.0,4.0489,4.0489,4.0489,4.0489,0.0,0.0,4.0489,4.0489,4.0489,4.0489,4.0489,4.0489,4.0489,4.0489,4.0489,4.0489,4.0489,4.0489,4.0489,4.0489,4.0489,4.0489,4.0489,4.0489,4.0489,4.0489,4.0489,4.0489,4.0489,4.0489,4.0489,4.0489,0.0,0.0,0.0,0.0,4.4444,0.0,0.0,0.0,4.4895,0.0,4.4833,4.4667,4.4343,4.4,4.3567,4.3041,4.2739,0.0,4.2308,4.2297,0.0,0.0,4.2297,4.2297,4.2297,0.0,0.0,0.0,0.0,0.0,0.0,0.0,0.0,0.0,4.2041,0.0,4.1791,4.1659,4.1604,4.1582,4.13,4.1209,4.1186,4.0977,4.0912,4.0912,4.0912,4.0912,4.0912,4.0912,4.0912,4.0912,4.0912,4.0817,4.0636,4.0238,3.9905,3.9491,3.8628,3.8232,3.79,3.7165,0.0,0.0,0.0,0.0,3.6507,0.0,0.0,0.0,0.0,0.0,0.0,0.0,0.0,0.0,0.0,0.0,0.0,0.0,0.0,0.0,0.0,4.0489,4.0489,4.0489,4.0489,4.0489,0.0,0.0,4.0489,4.0489,4.0489,4.0489,4.0489,4.0489,4.0489,4.0489,4.0489,4.0489,4.0489,4.0489,4.0489,4.0489,4.0489,4.0489,4.0489,4.0489,4.0489,4.0489,4.0489,4.0489,4.0489,4.0489,4.0489,4.0489,4.2316,4.3739,4.4837,0.0,4.4805,4.4895,0.0,0.0,0.0,0.0,4.4808,4.4615,4.4325,4.3965,4.3518,4.3041,4.2739,0.0,0.0,0.0,0.0,4.2297,4.2297,4.2297,4.2297,4.2297,0.0,4.2297,0.0,0.0,4.2297,0.0,0.0,0.0,0.0,0.0,4.1934,4.171,4.1604,4.1582,4.13,4.1209,0.0,0.0,4.0912,4.0912,4.0912,4.0912,4.0912,4.0912,4.0912,4.0912,4.0912,4.0888,4.0764,4.0379,3.994,3.9444,3.8551,3.8075,3.7641,3.6953,3.677,3.6739,0.0,0.0,0.0,0.0,0.0,0.0,0.0,0.0,0.0,0.0,0.0,0.0,0.0,0.0,0.0,4.0428,0.0,0.0,4.0489,4.0489,4.0489,4.0489,4.0489,4.0489,4.0489,0.0,0.0,4.0489,4.0489,4.0489,4.0489,4.0489,4.0489,4.0489,4.0489,4.0489,4.0489,4.0489,4.0489,4.0489,4.0489,4.0489,4.0489,4.0489,4.0489,4.0489,4.0489,4.0489,4.0489,4.0489,4.0489,4.0489,4.3152,0.0,0.0,4.5049,0.0,0.0,4.4901,0.0,0.0,4.4895,4.4777,0.0,4.4336,4.3999,4.3597,4.3124,4.2834,0.0,4.2397,0.0,0.0,4.2297,4.2297,4.2297,4.2297,4.2297,0.0,4.2297,0.0,0.0,4.2297,0.0,0.0,0.0,0.0,4.1994,0.0,4.1721,4.1604,4.1582,4.13,0.0,0.0,4.0977,4.0912,4.0912,4.0912,4.0912,4.0912,4.0912,4.0912,4.0912,4.0912,4.0912,4.0799,4.035,3.9889,3.9319,3.8437,3.79,3.7434,3.6861,3.6708,3.6662,3.6538,3.6507,3.6507,0.0,0.0,0.0,0.0,0.0,0.0,0.0,0.0,0.0,0.0,0.0,0.0,0.0,4.0489,0.0,4.0489,4.0489,4.0489,4.0489,4.0489,4.0489,0.0,0.0,0.0,4.0489,4.0489,4.0489,4.0489,4.0489,4.0489,4.0489,4.0489,4.0489,4.0489,4.0489,4.0489,4.0489,4.0489,4.0489,4.0489,4.0489,4.0489,4.0489,4.0489,4.0489,4.0489,4.0489,4.0489,4.0489,0.0,0.0,0.0,0.0,0.0,0.0,0.0,4.4895,0.0,4.4895,0.0,4.4588,4.4336,4.4064,4.3718,4.3232,0.0,4.2715,4.2514,4.2387,4.2318,4.2297,4.2297,4.2297,4.2297,4.2297,0.0,0.0,0.0,0.0,0.0,0.0,0.0,0.0,0.0,0.0,0.0,4.1732,4.1626,4.1604,4.1329,4.1209,4.1186,4.0977,4.0912,4.0912,4.0912,4.0912,4.0912,4.0912,4.0912,4.0912,4.0912,4.09,4.0764,4.0246,3.9744,3.9159,3.8313,3.7726,3.7238,3.68,3.6677,3.6631,3.6538,3.6507,3.6507,3.6507,3.6507,3.6507,0.0,0.0,0.0,0.0,0.0,0.0,0.0,0.0,0.0,0.0,0.0,0.0,4.0489,4.0489,4.0489,4.0489,4.0489,4.0489,0.0,0.0,0.0,4.0489,4.0489,4.0489,4.0489,0.0,4.0489,4.0489,4.0489,4.0489,4.0489,4.0489,4.0489,4.0489,4.0489,4.0489,4.0489,4.0489,4.0489,4.0489,4.0489,4.0489,4.0489,4.0489,4.0489,4.0489,0.0,0.0,0.0,0.0,0.0,4.5051,4.4913,4.4895,4.4895,4.4895,4.4777,4.4588,4.4336,4.4064,4.3718,4.3232,4.3003,0.0,0.0,0.0,0.0,4.2308,4.2297,4.2297,4.2297,4.2297,4.2297,0.0,0.0,0.0,0.0,0.0,0.0,0.0,0.0,0.0,4.1994,4.183,0.0,4.1736,4.1346,4.1209,4.1186,4.0977,4.0912,4.0912,4.0912,4.0912,4.0912,4.0912,4.0912,4.0912,4.0912,4.0829,4.066,4.0209,3.9601,3.8906,3.8142,3.7507,3.6968,3.6616,3.6538,3.6538,3.6507,3.6507,3.6507,3.6507,3.6507,3.6507,3.6507,0.0,0.0,0.0,0.0,0.0,0.0,0.0,0.0,0.0,0.0,4.0489,0.0,4.0489,4.0489,4.0489,4.0489,0.0,0.0,0.0,0.0,0.0,4.0489,0.0,0.0,0.0,4.0489,4.0489,4.0489,4.0489,4.0489,4.0489,4.0489,4.0489,4.0489,4.0489,4.0489,4.0489,4.0489,4.0489,4.0489,4.0489,4.0489,4.0489,4.0489,4.0489,0.0,0.0,0.0,0.0,0.0,0.0,0.0,4.4864,0.0,4.484,4.4719,4.4553,4.4279,4.3975,4.3647,4.3277,4.3032,4.2824,4.2665,4.2596,4.2516,4.2415,4.2397,0.0,4.2297,4.2297,4.2297,4.2297,0.0,0.0,0.0,0.0,0.0,0.0,0.0,4.2048,0.0,0.0,0.0,4.1769,4.1357,4.1209,4.1186,4.0977,4.0912,4.0912,4.0912,4.0912,4.0912,4.0912,4.0912,4.0912,4.0912,4.0817,4.0624,4.0226,3.9592,3.8838,3.81,3.7463,3.6908,3.6585,3.6507,3.6507,3.6507,3.6507,3.6507,3.6507,3.6507,3.6507,3.6507,3.6507,0.0,0.0,0.0,0.0,0.0,0.0,0.0,0.0,0.0,0.0,0.0,0.0,0.0,0.0,0.0,0.0,0.0,0.0,0.0,0.0,0.0,0.0,0.0,0.0,0.0,4.0489,4.0489,4.0489,4.0489,4.0489,4.0489,4.0489,4.0489,4.0489,4.0489,4.0489,4.0489,4.0489,4.0489,4.0489,4.0489,4.0489,4.0489,4.0489,0.0,4.5186,0.0,0.0,4.4991,0.0,4.4901,4.4833,4.4789,4.477,4.4652,4.4456,4.4188,4.3873,4.3562,4.3294,4.3069,4.2909,4.2803,4.2668,4.2578,4.2503,4.2473,4.2415,4.2297,4.2297,4.2297,0.0,0.0,0.0,0.0,0.0,0.0,0.0,0.0,0.0,0.0,0.0,4.183,4.1769,4.1357,4.1209,4.1186,4.0977,4.0912,4.0912,4.0912,4.0912,4.0912,4.0912,4.0912,4.0912,4.0912,4.0793,4.0571,4.0213,3.9566,3.8813,3.8085,3.7463,3.6908,3.6585,3.6507,3.6507,3.6507,3.6507,3.6507,3.6507,3.6507,3.6507,3.6507,3.6507,0.0,0.0,0.0,0.0,0.0,0.0,0.0,0.0,0.0,0.0,4.0489,0.0,0.0,0.0,0.0,0.0,4.0489,0.0,0.0,0.0,0.0,4.0489,4.0489,0.0,4.0489,4.0489,4.0489,4.0489,4.0489,4.0489,4.0489,4.0489,4.0489,4.0489,4.0489,4.0489,4.0489,4.0489,4.0489,4.0489,4.0489,4.0489,4.0489,4.0489,0.0,0.0,0.0,0.0,0.0,0.0,4.4901,4.4833,4.4789,4.4725,4.4544,4.4325,4.4059,4.3761,4.3504,4.3232,4.3132,4.3011,4.2803,4.2668,4.2578,4.2503,4.2377,4.2308,4.2297,4.2297,4.2297,0.0,0.0,0.0,0.0,0.0,0.0,0.0,0.0,0.0,0.0,4.2009,4.1912,4.1769,4.1357,4.1209,4.1186,4.0977,4.0912,4.0912,4.0912,4.0912,4.0912,4.0912,4.0912,4.0912,4.0912,4.0716,4.0473,4.0171,3.9487,3.8678,3.8073,3.7463,3.6908,3.6585,3.6507,3.6507,3.6507,3.6507,3.6507,3.6507,3.6507,3.6507,3.6507,3.6507,3.6507,0.0,0.0,0.0,0.0,0.0,0.0,0.0,0.0,0.0,0.0,4.0489,0.0,0.0,4.0489,0.0,0.0,0.0,0.0,4.0489,0.0,4.0489,4.0489,4.0489,4.0489,4.0489,4.0489,4.0489,4.0489,4.0489,4.0489,4.0489,4.0489,4.0489,4.0489,4.0489,4.0489,4.0489,4.0489,4.0489,4.0489,4.0489,4.0489,4.0489,0.0,0.0,0.0,0.0,0.0,0.0,0.0,4.4757,4.4607,4.4412,4.4295,4.4102,4.3795,4.3521,4.3304,4.3151,4.3031,4.2947,4.2871,4.2765,4.2676,4.2558,4.2475,4.2377,4.2297,4.2297,4.2297,0.0,0.0,0.0,0.0,0.0,0.0,0.0,0.0,4.2236,4.2111,4.203,4.188,4.1648,4.1323,4.118,4.1117,4.0953,4.0912,4.0912,4.0912,4.0912,4.0912,4.0912,4.0912,4.0912,4.0912,4.0716,4.0461,4.0171,3.9474,3.8681,3.8057,3.7463,3.6908,3.6585,3.6507,3.6507,3.6507,3.6507,3.6507,3.6507,3.6507,3.6507,3.6507,3.6507,3.6507,0.0,0.0,0.0,0.0,0.0,0.0,0.0,0.0,0.0,0.0,4.0489,4.0489,4.0489,0.0,0.0,0.0,0.0,0.0,4.0489,0.0,4.0489,4.0489,4.0489,4.0489,4.0489,4.0489,4.0489,4.0489,4.0489,4.0489,4.0489,4.0489,4.0489,4.0489,4.0489,4.0489,4.0489,4.0489,4.0489,4.0489,4.0489,4.0489,4.0489,4.5028,0.0,4.4968,0.0,4.4895,4.487,4.4802,4.4672,4.4463,4.4173,4.4006,4.3809,4.3536,4.3313,4.3142,4.3049,4.2947,4.2892,4.2892,4.2804,4.2706,4.2609,4.2498,0.0,4.2297,4.2297,4.2297,4.2297,4.2297,0.0,0.0,0.0,0.0,0.0,4.2246,4.2163,4.2016,4.1948,4.1786,4.1526,4.1289,4.1163,4.1099,4.0947,4.0912,4.0912,4.0912,4.0912,4.0912,4.0912,4.0912,4.0883,4.0847,4.068,4.0419,4.007,3.9425,3.8667,3.8032,3.7419,3.6908,3.6585,3.6507,3.6507,3.6507,3.6507,3.6507,3.6507,3.6507,3.6507,3.6507,3.6507,3.6507,3.6507,0.0,0.0,0.0,0.0,0.0,0.0,3.9091,3.9768,4.0428,4.0489,4.0489,0.0,0.0,0.0,0.0,0.0,0.0,0.0,0.0,0.0,4.0489,4.0489,4.0489,4.0489,4.0489,4.0489,4.0489,4.0489,4.0489,4.0489,4.0489,4.0489,4.0489,4.0489,4.0489,4.0489,4.0489,4.0489,4.0489,4.0489,4.0489,4.0489,4.4991,4.4943,4.4895,4.4895,4.4895,4.487,4.4802,4.4632,4.4376,4.4051,4.3716,4.3462,4.3312,4.3178,4.3049,4.2901,4.2892,4.2892,4.2892,4.2709,4.2599,0.0,0.0,4.2297,4.2297,4.2297,4.2297,4.2297,0.0,0.0,4.2297,0.0,4.2236,4.2093,4.2093,4.1988,4.1801,4.1801,4.1648,4.1392,4.1243,4.1163,4.1099,4.0947,4.0912,4.0912,4.0912,4.0912,4.0912,4.0912,4.0912,4.0888,4.0745,4.0612,4.0412,3.9871,3.9279,3.8639,3.7889,3.7361,3.6908,3.6585,3.6507,3.6507,3.6507,3.6507,3.6507,3.6507,3.6507,3.6507,3.6507,3.6507,3.6507,3.6507,0.0,0.0,0.0,0.0,0.0,0.0,3.9091,3.9768,4.0428,4.0489,0.0,0.0,0.0,0.0,0.0,0.0,0.0,4.0489,4.0489,0.0,4.0489,4.0489,4.0489,4.0489,4.0489,4.0489,4.0489,4.0489,4.0489,4.0489,4.0489,4.0489,4.0489,4.0489,4.0489,4.0489,4.0489,4.0489,4.0489,4.0489,4.0489,4.0489,4.4931,4.4907,4.4895,4.4895,4.4858,4.4789,4.4685,4.4444,4.4192,4.3844,4.3536,4.3303,4.3169,4.305,4.2947,0.0,4.2892,4.2892,0.0,4.2709,4.2599,4.2599,4.2409,4.2297,4.2297,4.2297,4.2297,4.2297,0.0,0.0,0.0,4.2297,4.2236,4.2093,4.2093,4.1995,4.1791,4.1791,4.1587,4.1255,4.122,4.1111,4.0959,4.0923,4.0912,4.0912,4.0912,4.0912,4.0912,4.0912,4.084,4.0721,4.0502,4.0337,4.0133,3.9631,3.9004,3.8329,3.7667,3.724,3.6908,3.6585,3.6507,3.6507,3.6507,3.6507,3.6507,3.6507,3.6507,3.6507,3.6507,3.6507,3.6507,3.6507,3.6507,0.0,0.0,0.0,0.0,0.0,3.8691,3.9261,4.0382,4.0489,0.0,0.0,0.0,0.0,0.0,0.0,0.0,0.0,4.0489,0.0,4.0489,4.0489,4.0489,4.0489,4.0489,4.0489,4.0489,4.0489,4.0489,4.0489,4.0489,4.0489,4.0489,4.0489,4.0489,4.0489,4.0489,4.0489,4.0489,4.0489,4.0489,4.0489,4.4901,4.4877,4.4858,4.4858,4.4796,4.4685,4.4544,4.4247,4.3949,4.3664,4.3383,4.3169,4.3049,4.2928,0.0,4.291,4.2881,4.2853,4.2853,4.2668,4.2558,4.2558,4.2389,4.2297,4.2297,4.2297,0.0,4.2297,4.2297,4.2297,4.2297,4.2256,4.2173,4.2048,4.2016,4.1866,4.1648,4.1648,4.1471,4.1157,4.1157,4.1059,4.0912,4.0912,4.0912,4.0912,4.0912,4.0912,4.0912,4.0912,4.0817,4.0636,4.0342,4.0007,3.967,3.9235,3.8648,3.803,3.7418,3.7059,3.6816,3.6554,3.6507,3.6507,3.6507,3.6507,3.6507,3.6507,3.6507,3.6507,3.6507,3.6507,3.6523,3.6569,3.6585,3.66,3.6677,0.0,0.0,0.0,0.0,0.0,0.0,4.0489,4.0489,0.0,0.0,0.0,0.0,0.0,0.0,4.0489,4.0489,0.0,4.0489,4.0489,4.0489,4.0489,4.0489,4.0489,4.0489,4.0489,4.0489,4.0489,4.0489,4.0489,4.0489,4.0489,4.0489,4.0489,4.0489,4.0489,4.0489,4.0489,4.0489,4.0489,4.4889,4.4833,4.4783,0.0,4.4653,0.0,4.4383,4.403,4.3701,4.3505,4.326,4.3049,4.291,4.2833,4.2832,4.2863,0.0,0.0,0.0,4.2624,4.2493,4.2493,4.2366,4.2297,4.2297,4.2297,4.2297,4.2297,4.2297,4.2297,4.2297,4.2156,4.2058,4.1994,4.1852,4.1637,4.1403,4.1392,4.1284,4.1093,4.1093,4.1023,4.0912,4.0912,4.0912,4.0912,4.0912,4.0883,4.0888,4.0888,4.0776,4.0588,4.0171,3.9644,3.9085,3.8678,3.823,3.7726,3.7135,3.6846,3.6662,3.6538,3.6507,3.6507,3.6507,3.6507,3.6507,3.6507,3.6507,3.6507,3.6507,3.6507,3.6554,3.6677,3.6708,3.68,3.6969,0.0,0.0,0.0,0.0,0.0,0.0,4.0507,4.0489,0.0,0.0,0.0,0.0,0.0,4.0489,4.0489,4.0489,4.0489,4.0489,4.0489,4.0489,4.0489,4.0489,4.0489,4.0489,4.0489,4.0489,4.0489,4.0489,4.0489,4.0489,4.0489,4.0489,4.0489,4.0489,4.0472,4.047,4.047,4.047,4.047,0.0,0.0,4.4699,4.4585,4.4428,4.4199,4.3972,4.3767,4.3563,4.3304,4.3169,4.3039,4.2851,4.2812,4.2764,4.2688,4.2658,4.2639,4.2639,4.2556,4.2493,4.2493,4.2366,4.2297,4.2297,4.2297,4.2297,4.2297,4.2297,4.2297,4.2297,4.2156,4.2058,4.1994,4.1754,4.156,4.1392,4.1295,4.1198,4.1093,4.1093,4.1023,4.0912,4.0912,4.0912,4.0912,4.0912,4.084,4.0745,4.0745,4.051,4.0159,3.9709,3.9195,3.8678,3.8329,3.79,3.7417,3.6907,3.6739,3.6662,3.6538,3.6507,3.6507,3.6507,3.6507,3.6507,3.6507,3.6507,3.6507,3.6507,3.6585,3.6662,3.6693,3.6831,3.6954,3.7,3.7545,0.0,0.0,3.9423,3.9988,4.0653,4.0593,4.0489,0.0,0.0,0.0,0.0,4.0489,4.0489,4.0489,4.0489,4.0489,4.0489,4.0489,4.0489,4.0489,4.0489,4.0489,4.0489,4.0489,4.0489,4.0489,4.0489,4.0489,4.0489,4.0489,4.0453,4.0364,4.0364,4.0244,4.0119,4.0119,4.0119,4.0119,4.4738,4.4632,4.4505,4.4342,4.414,4.3894,4.3695,4.3529,4.333,4.3096,4.2994,4.2889,4.2735,4.2676,4.2635,4.2558,4.2548,4.2548,4.2548,4.2465,4.2415,4.2415,4.2346,4.2297,4.2297,4.2297,4.2297,4.2297,4.2297,4.2463,4.2757,4.2622,4.2699,4.2957,4.2669,4.2497,4.2341,4.2223,4.2122,4.2049,4.2049,4.1788,4.14,4.14,4.1157,4.0817,4.0817,4.0685,4.0515,4.0453,4.0201,3.9816,3.9289,3.883,3.8357,3.7842,3.7447,3.7134,3.6723,3.66,3.6585,3.6523,3.6507,3.6507,3.6507,3.6507,3.6523,3.6569,3.6585,3.6631,3.6708,3.6785,3.6862,3.6922,3.7014,3.723,3.7635,3.82,0.0,3.9515,3.9989,4.0413,4.0752,4.0627,4.0489,4.0489,4.0489,0.0,4.0489,4.0489,4.0489,4.0489,4.0489,4.0489,4.0489,4.0489,4.0489,4.0489,4.0489,4.0489,4.0489,4.0489,4.0489,4.0489,4.0489,4.0489,4.0505,4.0436,4.0366,4.0294,4.0207,4.0101,4.0011,4.0011,4.0011,4.0011,4.456,4.4414,4.4255,4.4053,4.3801,4.358,4.3436,4.3269,4.3068,4.2891,4.2804,4.2725,4.2589,4.2536,4.2493,4.2473,4.2473,4.2473,4.2473,4.2356,4.2297,4.2297,4.2297,4.2297,4.2297,4.2297,4.2297,4.2297,4.2422,4.276,4.3297,4.3288,4.3562,4.4055,4.3786,4.3608,4.3463,4.3341,4.3247,4.3189,4.3189,4.2792,4.2176,4.2152,4.1614,4.0856,4.0796,4.0539,4.0201,4.002,3.979,3.9451,3.8887,3.8469,3.8073,3.7372,3.7075,3.6892,3.6585,3.6507,3.6507,3.6507,3.6523,3.6538,3.6538,3.6554,3.6616,3.6723,3.6754,3.68,3.6969,3.703,3.7059,3.7179,3.7239,3.7581,3.8428,0.0,3.966,4.0306,4.0699,4.0918,4.0884,4.0679,4.0541,4.0541,4.0507,4.0489,4.0489,4.0489,4.0489,4.0489,4.0489,4.0489,4.0489,4.0489,4.0489,4.0489,4.0489,4.0489,4.0489,4.0489,4.0489,4.0489,4.0489,4.0489,4.047,4.0364,4.0261,4.0174,4.0013,3.9925,3.9922,3.9922,3.9922,3.9922,4.4298,4.4057,4.3847,4.3703,4.3461,4.3214,4.3013,4.2918,4.2812,4.2668,4.2639,4.2607,4.2516,4.2503,4.2445,4.2346,4.2318,4.2318,4.2318,4.2308,4.2297,4.2297,4.2297,4.2297,4.2297,4.2297,4.2297,4.2297,4.2983,4.3301,4.3297,4.3873,4.4047,4.3927,4.3644,4.3463,4.3328,4.3247,4.3202,4.3189,4.3189,4.312,4.3004,4.2832,4.2288,4.1574,4.1236,4.0616,3.9897,3.9487,3.9169,3.8843,3.8371,3.8017,3.77,3.718,3.6892,3.6708,3.6538,3.6507,3.6507,3.6507,3.66,3.6662,3.6662,3.68,3.6923,3.6954,3.6954,3.6954,3.7,3.7089,3.7179,3.7209,3.7449,3.7896,3.8655,0.0,4.01,4.0658,4.1162,4.1406,4.124,4.0936,4.0747,4.0747,4.0593,4.0489,4.0489,4.0489,4.0489,4.0489,4.0489,4.0489,4.0489,4.0489,4.0489,4.0489,4.0489,4.0489,4.0489,4.0489,4.0489,4.0489,4.0489,4.0436,4.0329,4.0312,4.0104,3.9803,3.9768,3.9643,3.9496,3.9496,3.9496,3.9496,4.3975,4.3718,4.3475,4.3312,4.3114,4.2928,4.2757,4.2717,4.2667,4.2566,4.2556,4.2516,4.2397,4.2387,4.2366,4.2308,4.2297,4.2297,4.2297,4.2297,4.2297,4.2297,4.2297,4.2297,4.2297,4.2297,4.2481,4.2853,4.3216,4.3724,4.4379,4.4687,4.49,4.5023,4.4839,4.4659,4.452,4.4423,4.4389,4.4389,4.4389,4.416,4.3781,4.361,4.2924,4.2031,4.1739,4.1188,4.0491,3.9674,3.9294,3.8961,3.8027,3.7638,3.7463,3.6984,3.6724,3.6569,3.6523,3.6507,3.6523,3.66,3.6647,3.6723,3.6846,3.6938,3.7014,3.7089,3.7165,3.724,3.7361,3.7494,3.7582,3.7582,3.8032,0.0,0.0,4.0111,4.0814,4.1422,4.1562,4.1555,4.1473,4.1055,4.0799,4.0799,4.061,4.0489,4.0489,4.0489,4.0489,4.0489,4.0489,4.0489,4.0489,4.0489,4.0489,4.0489,4.0489,4.0489,4.0489,4.0436,4.0383,4.0383,4.0279,4.0207,4.0137,4.0016,3.9874,3.9681,3.9589,3.9481,3.9406,3.9406,3.9406,3.9406,4.3622,4.3383,4.3142,4.2976,4.2833,4.2704,4.2598,4.255,4.25,4.2455,4.2445,4.2415,4.2308,4.2297,4.2297,4.2297,4.2297,4.2297,4.2297,4.2297,4.2297,4.2297,4.2297,4.2297,4.2297,4.2445,4.2792,4.3308,4.3631,4.4318,4.5305,4.5482,4.5713,4.5947,4.5846,4.5705,4.5554,4.545,4.5397,4.5397,4.5397,4.5035,4.4492,4.4322,4.353,4.2466,4.2171,4.164,4.0945,4.0009,3.9596,3.9295,3.8186,3.7706,3.746,3.7064,3.6724,3.6507,3.6507,3.6523,3.6569,3.6677,3.677,3.6861,3.7044,3.7136,3.7211,3.7329,3.7432,3.7566,3.7715,3.7832,3.7953,3.8127,0.0,0.0,0.0,4.0826,4.1451,4.2094,4.1899,4.1703,4.1654,4.1188,4.0882,4.0882,4.0645,4.0489,4.0489,4.0489,4.0489,4.0489,4.0489,4.0489,4.0489,4.0489,4.0489,4.0489,4.0489,4.0472,4.0437,4.0364,4.0261,4.0224,4.0066,3.996,3.9925,3.9768,3.9679,3.961,3.9445,3.9406,3.9406,3.9406,3.9406,3.9406,4.325,4.3022,4.2832,4.2822,4.2655,4.2514,4.2514,4.2397,4.2318,4.2325,4.2308,4.2308,4.2297,4.2297,4.2297,4.2297,4.2297,4.2297,4.2297,4.2297,4.2297,4.2297,4.2297,4.2297,4.2297,4.2903,4.3248,4.3308,4.4599,4.5257,4.5305,4.6005,4.6139,4.5808,4.5795,4.5671,4.541,4.5397,4.5397,4.5397,4.5397,4.5279,4.5108,4.4855,4.4078,4.3057,4.2477,4.1612,4.0658,4.0131,3.9872,3.9704,3.9298,3.8607,3.7904,3.7685,3.7094,3.6507,3.6507,3.6585,3.6693,3.6708,3.6937,3.7209,3.7343,3.7523,3.7686,3.7832,3.7861,3.7876,3.7874,3.789,3.8113,3.8814,0.0,0.0,4.1109,4.1458,4.1779,4.2301,4.219,4.2013,4.1882,4.1387,4.1083,4.1083,4.0729,4.0489,4.0489,4.0489,4.0489,4.0489,4.0489,4.0489,4.0489,4.0489,4.0489,4.0489,4.0489,4.0436,4.0296,4.0296,4.0189,4.0013,4.0011,3.9889,3.9732,3.9699,3.9589,3.9409,3.9406,3.9406,3.9406,3.9406,3.9406,3.9406,4.2956,4.2782,4.2606,4.2606,4.2486,4.2366,4.2366,4.2318,4.2297,4.2297,4.2297,4.2297,4.2297,4.2297,4.2297,4.2297,4.2297,4.2297,4.2297,4.2297,4.2297,4.2297,4.2225,4.2415,4.2903,4.3098,4.362,4.4533,4.5081,4.547,4.5739,4.6019,4.5985,4.5684,4.5684,4.5563,4.5397,4.5397,4.5397,4.5397,4.53,4.5194,4.5032,4.4648,4.4054,4.3383,4.2942,4.2341,4.1635,4.0922,4.0498,4.0167,3.936,3.8839,3.8461,3.8253,3.7694,3.7123,3.7123,3.6909,3.6723,3.6846,3.7044,3.7269,3.7537,3.7656,3.7744,3.7876,3.7992,3.8206,3.8624,3.8808,3.9108,3.9832,0.0,4.0889,4.1455,4.1923,4.2295,4.2507,4.227,4.2077,4.2029,4.1454,4.11,4.11,4.0729,4.0489,4.0489,4.0489,4.0489,4.0489,4.0489,4.0489,4.0489,4.0489,4.0489,4.0489,4.0489,4.0436,4.0294,4.0172,4.0013,3.9803,3.9694,3.9586,3.9517,3.9517,3.9463,3.9406,3.9406,3.9406,3.9406,3.9406,3.9406,3.9406,4.2714,4.2556,4.2435,4.2435,4.2356,4.2297,4.2297,4.2297,4.2297,4.2297,4.2297,4.2297,4.2297,4.2297,4.2297,4.2297,4.2297,4.2297,4.2297,4.2267,4.2246,4.2246,4.2345,4.2661,4.3219,4.3598,4.4252,4.5211,4.5427,4.5651,4.5935,4.5935,4.5825,4.5607,4.5607,4.5528,4.5397,4.5397,4.5397,4.5384,4.5261,4.51,4.4899,4.4423,4.3948,4.3491,4.3098,4.2665,4.2205,4.1565,4.1103,4.0668,3.9904,3.9379,3.8964,3.8586,3.8168,3.7815,3.7815,3.7588,3.7313,3.7063,3.7105,3.7299,3.7686,3.7949,3.8167,3.8357,3.8679,3.9071,3.9524,3.9709,4.0042,4.0722,4.1256,4.1661,4.1888,4.2311,4.2587,4.2539,4.227,4.2061,4.1948,4.1421,4.1068,4.1017,4.0694,4.0489,4.0489,4.0489,4.0489,4.0489,4.0489,4.0489,4.0489,4.0489,4.0489,4.0489,4.0489,4.0401,4.0207,4.0049,3.9854,3.9607,3.9445,3.9406,3.9406,3.9406,3.9406,3.9406,3.9406,3.9406,3.9406,3.9406,3.9406,3.9388,4.2493,4.2387,4.2297,4.2297,4.2297,4.2297,4.2297,4.2297,4.2297,4.2297,4.2297,4.2297,4.2297,4.2297,4.2297,4.2297,4.2297,4.2297,4.2315,4.2184,4.2111,4.2111,4.275,4.3103,4.312,4.4552,4.5199,4.5003,4.5675,4.5922,4.5795,4.5795,4.5736,4.5607,4.5607,4.5528,4.5397,4.5397,4.5397,4.5384,4.5261,4.5032,4.4734,4.427,4.3805,4.3327,4.279,4.2381,4.2077,4.1947,4.1637,4.1273,4.1135,4.0349,3.9384,3.8707,3.8507,3.8507,3.8507,3.8653,3.8506,3.7296,3.7121,3.7344,3.7803,3.8479,3.911,3.9449,4.0042,4.0511,4.0511,4.0496,4.0754,4.1498,4.1612,4.184,4.2505,4.2602,4.2555,4.2413,4.2222,4.1964,4.1638,4.1288,4.1017,4.0816,4.061,4.0489,4.0489,4.0489,4.0489,4.0489,4.0489,4.0489,4.0489,4.0489,4.0489,4.0489,4.0489,4.0314,4.0011,4.0011,3.9783,3.9406,3.9406,3.9406,3.9406,3.9406,3.9406,3.9406,3.9406,3.9406,3.9406,3.9406,3.9406,3.9355,4.2356,4.2336,4.2297,4.2297,4.2297,4.2297,4.2297,4.2297,4.2297,4.2297,4.2297,4.2297,4.2297,4.2297,4.2297,4.2297,4.2297,4.2506,4.2963,4.2874,4.3007,4.3474,4.3158,4.3419,4.4402,4.481,4.5203,4.5561,4.5749,4.5782,4.5654,4.5654,4.5594,4.5463,4.5463,4.5437,4.5397,4.5397,4.5357,4.5247,4.5005,4.4679,4.4255,4.3789,4.3388,4.3008,4.2602,4.2302,4.2077,4.1947,4.157,4.1103,4.078,4.047,4.0151,3.9968,3.9568,3.9199,3.9199,3.9009,3.8741,3.8465,3.8545,3.8794,3.9269,3.955,3.98,4.013,4.0366,4.0657,4.1175,4.1256,4.1499,4.2181,4.2294,4.2375,4.257,4.2524,4.2445,4.2397,4.2141,4.1866,4.1621,4.1288,4.1017,4.0816,4.061,4.0489,4.0489,4.0489,4.0489,4.0489,4.0489,4.0489,4.0489,4.0489,4.0489,4.0489,4.0489,4.0314,4.0011,4.0011,3.9783,3.9406,3.9406,3.9406,3.9406,3.9406,3.9406,3.9406,3.9406,3.9406,3.9406,3.9406,3.9301,3.9159,4.2297,4.2297,4.2297,4.2297,4.2297,4.2297,4.2297,4.2297,4.2297,4.2297,4.2297,4.2297,4.2297,4.2297,4.2297,4.2297,4.2531,4.2981,4.3651,4.3576,4.3811,4.4536,4.402,4.4085,4.4943,4.5159,4.5406,4.5718,4.5718,4.5641,4.5528,4.5528,4.5476,4.5397,4.5397,4.5397,4.5397,4.534,4.5274,4.518,4.4759,4.4412,4.4039,4.3492,4.3114,4.2837,4.2429,4.2206,4.2061,4.1752,4.1355,4.0916,4.0608,4.0489,4.0489,4.0489,4.0197,3.9908,3.9976,3.9818,3.9642,3.9872,3.9594,3.9424,3.989,4.0237,4.0521,4.0872,4.1144,4.1468,4.1905,4.2002,4.2116,4.2459,4.2524,4.2492,4.2413,4.2317,4.2254,4.2222,4.1947,4.1686,4.1422,4.1153,4.0899,4.0696,4.0558,4.0489,4.0489,4.0489,4.0489,4.0489,4.0489,4.0489,4.0489,4.0489,4.0489,4.0489,4.0489,4.0314,4.0011,4.0011,3.9783,3.9406,3.9406,3.9406,3.9406,3.9406,3.9406,3.9406,3.9406,3.9406,3.9388,3.9301,3.9104,3.883,4.2297,4.2297,4.2297,4.2297,4.2297,4.2297,4.2287,4.2277,4.2277,4.2267,4.2267,4.2302,4.2356,4.2374,4.2391,4.2481,4.3042,4.3669,4.4355,4.4265,4.453,4.5323,4.5106,4.496,4.496,4.5498,4.5723,4.5581,4.5581,4.5528,4.5397,4.5397,4.5397,4.5397,4.5397,4.5397,4.5397,4.5261,4.5177,4.5083,4.4505,4.4167,4.3952,4.3325,4.2991,4.2791,4.227,4.2093,4.1997,4.1456,4.1072,4.0765,4.0558,4.0489,4.0489,4.0489,4.0489,4.0541,4.0747,4.0816,4.0901,4.1223,4.0414,3.9645,4.0097,4.0717,4.1306,4.1616,4.218,4.2602,4.2602,4.2602,4.2555,4.2413,4.2397,4.2334,4.2126,4.2093,4.2029,4.1915,4.1719,4.1455,4.1118,4.0899,4.0696,4.0507,4.0489,4.0489,4.0489,4.0489,4.0489,4.0489,4.0489,4.0489,4.0489,4.0489,4.0489,4.0489,4.0489,4.0314,4.0011,4.0011,3.9783,3.9406,3.9406,3.9406,3.9406,3.9406,3.9406,3.9406,3.9388,3.9355,3.9319,3.9104,3.8756,3.8366,4.2297,4.2297,4.2297,4.2297,4.2297,4.2267,4.2156,4.2135,4.2121,4.2072,4.208,4.2292,4.286,4.2931,4.3168,4.3806,4.4003,4.4372,4.5035,4.4912,4.5126,4.5817,4.559,4.5454,4.5454,4.5585,4.5581,4.545,4.545,4.5423,4.5397,4.5397,4.5397,4.5397,4.5397,4.5397,4.5397,4.5261,4.4988,4.4614,4.4281,4.3818,4.3295,4.3037,4.2759,4.2476,4.219,4.2029,4.1866,4.1321,4.0984,4.0765,4.0558,4.0489,4.0489,4.0489,4.0489,4.0541,4.0747,4.0916,4.1085,4.1272,4.1317,4.1389,4.1598,4.1885,4.2172,4.236,4.2489,4.2602,4.2602,4.2602,4.2555,4.2413,4.2397,4.2334,4.2126,4.2012,4.1931,4.1898,4.1588,4.1305,4.1117,4.078,4.0541,4.0489,4.0489,4.0489,4.0489,4.0489,4.0489,4.0489,4.0489,4.0489,4.0489,4.0489,4.0489,4.0489,4.0489,4.0314,4.0011,4.0011,3.9783,3.9406,3.9406,3.9406,3.9406,3.9406,3.9406,3.9388,3.9228,3.9068,3.8889,3.8538,3.8127,3.7725,4.3322,4.3393,4.339,4.3355,4.3344,4.3302,4.3165,4.3144,4.314,4.3103,4.3092,4.3233,4.3623,4.3676,4.3972,4.471,4.4694,4.4929,4.5589,4.5472,4.5536,4.5879,4.5705,4.5607,4.5607,4.5541,4.5476,4.5397,4.5397,4.5371,4.53,4.53,4.53,4.53,4.53,4.53,4.5287,4.5086,4.4786,4.4364,4.3935,4.3462,4.2976,4.2743,4.2492,4.2238,4.2061,4.18,4.1454,4.1069,4.0831,4.0645,4.0524,4.0489,4.0489,4.0489,4.0489,4.0541,4.0747,4.095,4.1135,4.1272,4.1604,4.1915,4.1996,4.2142,4.2286,4.2349,4.2365,4.2381,4.2492,4.2429,4.2333,4.227,4.219,4.2077,4.1883,4.1801,4.1719,4.1637,4.1356,4.1103,4.0831,4.0626,4.0489,4.0489,4.0489,4.0489,4.0489,4.0489,4.0489,4.0489,4.0489,4.0489,4.0489,4.0489,4.0489,4.0489,4.0436,4.0261,4.0011,3.9907,3.9694,3.9406,3.9406,3.9406,3.9406,3.9406,3.9337,3.9247,3.905,3.8778,3.8482,3.8052,3.7462,3.6744,4.4467,4.4581,4.4566,4.4481,4.4458,4.4425,4.429,4.4256,4.4216,4.4204,4.4182,4.4223,4.4364,4.4476,4.4777,4.5334,4.5231,4.5367,4.5938,4.5833,4.5774,4.5774,4.5645,4.5567,4.5524,4.5423,4.5371,4.5371,4.5371,4.5287,4.514,4.514,4.514,4.514,4.514,4.514,4.5096,4.4828,4.4508,4.4121,4.3552,4.3099,4.2775,4.2476,4.2238,4.2045,4.1899,4.1503,4.1017,4.085,4.0662,4.0489,4.0489,4.0489,4.0489,4.0489,4.0489,4.0541,4.0747,4.0916,4.1102,4.1272,4.1571,4.1849,4.1849,4.198,4.2093,4.2093,4.2093,4.2142,4.2318,4.2206,4.2093,4.2077,4.1947,4.1768,4.1572,4.1522,4.144,4.1305,4.1137,4.0899,4.0539,4.0489,4.0489,4.0489,4.0489,4.0489,4.0489,4.0489,4.0489,4.0489,4.0489,4.0489,4.0489,4.0489,4.0489,4.0489,4.0331,4.0154,3.9978,3.9785,3.9589,3.9406,3.9406,3.9388,3.9337,3.9337,3.921,3.8962,3.8741,3.8375,3.7938,3.7404,3.6626,3.573,4.45,4.4514,4.4481,4.4358,4.4335,4.4272,4.4147,4.4032,4.391,4.3798,4.3692,4.3869,4.4579,4.5229,4.5635,4.5727,4.5702,4.5742,4.5821,4.5693,4.5632,4.5632,4.5502,4.5367,4.5261,4.5247,4.5234,4.5234,4.5234,4.51,4.4858,4.4858,4.4858,4.4858,4.4858,4.4858,4.4831,4.4508,4.4107,4.3652,4.316,4.2775,4.2445,4.2222,4.2045,4.1898,4.1703,4.1305,4.0833,4.0816,4.0662,4.0489,4.0489,4.0489,4.0489,4.0489,4.0489,4.0541,4.0747,4.0816,4.0918,4.1223,4.1473,4.1638,4.1638,4.1883,4.2093,4.2093,4.2093,4.2109,4.2142,4.2109,4.2061,4.1947,4.1768,4.1572,4.1373,4.1237,4.1152,4.1135,4.095,4.0747,4.0524,4.0489,4.0489,4.0489,4.0489,4.0489,4.0489,4.0489,4.0489,4.0489,4.0489,4.0489,4.0489,4.0489,4.0489,4.0505,4.0189,4.0031,3.9978,3.9785,3.9589,3.9406,3.9406,3.9301,3.9141,3.9141,3.8922,3.8553,3.8183,3.7658,3.7037,3.6051,3.5399,3.4983,4.5584,4.5662,4.5627,4.5499,4.5417,4.5322,4.5179,4.5051,4.4935,4.4886,4.4824,4.4908,4.5273,4.5604,4.5795,4.5795,4.5667,4.5572,4.5572,4.538,4.5261,4.5261,4.5224,4.5113,4.4978,4.4865,4.4742,4.4592,4.4742,4.4672,4.4412,4.4296,4.4236,4.4236,4.4236,4.4236,4.4239,4.4006,4.3639,4.3174,4.2852,4.2492,4.2093,4.1915,4.1703,4.1522,4.124,4.0987,4.0782,4.0679,4.0576,4.0489,4.0489,4.0489,4.0489,4.0489,4.0489,4.0524,4.061,4.0713,4.0833,4.097,4.1171,4.1321,4.1321,4.1438,4.1588,4.1785,4.1736,4.172,4.1947,4.1899,4.1802,4.1736,4.1555,4.1389,4.1221,4.1135,4.1051,4.095,4.0747,4.0593,4.0507,4.0489,4.0489,4.0489,4.0489,4.0489,4.0489,4.0489,4.0489,4.0489,4.0489,4.0489,4.0489,4.0489,4.047,4.0383,4.0119,4.0011,3.9978,3.9694,3.9481,3.9388,3.9283,3.9123,3.8925,3.8686,3.8366,3.7953,3.7558,3.694,3.6171,3.5358,3.4942,3.4797]}]]